[[{"header":{"parameterUnit":"m.s-1","parameterCategory":1,"la1":31.0,"la2":29.5877,"lo1":-88.7671,"lo2":-86.6584,"dy":0.0162,"dx":0.0185,"nx":115,"ny":88,"refTime":"2024-09-05T00:00:00:Z","depth":0,"parameterNumber":2,"parameterNumberName":"U-component_of_WINDS"},"data":[0.0,0.0,0.0,0.0,0.0,0.0,0.0,0.0,0.0,0.0,0.0,0.0,0.0,0.0,0.0,0.0,0.0,0.0,0.0,0.0,0.0,0.0,0.0,0.0,0.0,0.0,0.0,0.0,0.0,0.0,0.0,0.0,0.0,0.0,0.0,0.0,0.0,0.0,0.0,0.0,0.0,0.0,0.0,0.0,0.0,0.0,0.0,0.0,0.0,0.0,0.0,0.0,0.0,0.0,0.0,0.0,0.0,0.0,0.0,0.0,0.0,0.0,0.0,0.0,0.0,0.0,0.0,0.0,0.0,0.0,0.0,0.0,0.0,0.0,0.0,0.0,0.0,0.0,0.0,0.0,0.0,0.0,0.0,0.0,0.0,0.0,0.0,0.0,0.0,0.0,0.0,0.0,0.0,0.0,0.0,0.0,0.0,0.0,0.0,0.0,0.0,0.0,0.0,0.0,0.0,0.0,0.0,0.0,0.0,0.0,0.0,0.0,0.0,0.0,0.0,0.0,0.0,0.0,0.0,0.0,0.0,0.0,0.0,0.0,0.0,0.0,0.0,0.0,0.0,0.0,0.0,0.0,0.0,0.0,0.0,0.0,0.0,0.0,0.0,0.0,0.0,0.0,0.0,0.0,0.0,0.0,0.0,0.0,0.0,0.0,0.0,0.0,0.0,0.0,0.0,0.0,0.0,0.0,0.0,0.0,0.0,0.0,0.0,0.0,0.0,0.0,0.0,0.0,0.0,0.0,0.0,0.0,0.0,0.0,0.0,0.0,0.0,0.0,0.0,0.0,0.0,0.0,0.0,0.0,0.0,0.0,0.0,0.0,0.0,0.0,0.0,0.0,0.0,0.0,0.0,0.0,0.0,0.0,0.0,0.0,0.0,0.0,0.0,0.0,0.0,0.0,0.0,0.0,0.0,0.0,0.0,0.0,0.0,0.0,0.0,0.0,0.0,0.0,0.0,0.0,0.0,0.0,0.0,0.0,0.0,0.0,0.0,0.0,0.0,0.0,0.0,0.0,0.0,0.0,0.0,0.0,0.0,0.0,0.0,0.0,0.0,0.0,0.0,0.0,0.0,0.0,0.0,0.0,0.0,0.0,0.0,0.0,0.0,0.0,0.0,0.0,0.0,0.0,0.0,0.0,0.0,0.0,0.0,0.0,0.0,0.0,0.0,0.0,0.0,0.0,0.0,0.0,0.0,0.0,0.0,0.0,0.0,0.0,0.0,0.0,0.0,0.0,0.0,0.0,0.0,0.0,0.0,0.0,0.0,0.0,0.0,0.0,0.0,0.0,0.0,0.0,0.0,0.0,0.0,0.0,0.0,0.0,0.0,0.0,0.0,0.0,0.0,0.0,0.0,0.0,0.0,0.0,0.0,0.0,0.0,0.0,0.0,0.0,0.0,0.0,0.0,0.0,0.0,0.0,0.0,0.0,0.0,0.0,0.0,0.0,0.0,0.0,0.0,0.0,0.0,0.0,0.0,0.0,0.0,0.0,0.0,0.0,0.0,0.0,0.0,0.0,0.0,0.0,0.0,0.0,0.0,0.0,0.0,0.0,0.0,0.0,0.0,0.0,0.0,0.0,0.0,0.0,0.0,0.0,0.0,0.0,0.0,0.0,0.0,0.0,0.0,0.0,0.0,0.0,0.0,0.0,0.0,0.0,0.0,0.0,0.0,0.0,0.0,0.0,0.0,0.0,0.0,0.0,0.0,0.0,0.0,0.0,0.0,0.0,0.0,0.0,0.0,0.0,0.0,0.0,0.0,0.0,0.0,0.0,0.0,0.0,0.0,0.0,0.0,0.0,0.0,0.0,0.0,0.0,0.0,0.0,0.0,0.0,0.0,0.0,0.0,0.0,0.0,0.0,0.0,0.0,0.0,0.0,0.0,0.0,0.0,0.0,0.0,0.0,0.0,0.0,0.0,0.0,0.0,0.0,0.0,0.0,0.0,0.0,0.0,0.0,0.0,0.0,0.0,0.0,0.0,0.0,0.0,0.0,0.0,0.0,0.0,0.0,0.0,0.0,0.0,0.0,0.0,0.0,0.0,0.0,0.0,0.0,0.0,0.0,0.0,0.0,0.0,0.0,0.0,0.0,0.0,0.0,0.0,0.0,0.0,0.0,0.0,0.0,0.0,0.0,0.0,0.0,0.0,0.0,0.0,0.0,0.0,0.0,0.0,0.0,0.0,0.0,0.0,0.0,0.0,0.0,0.0,0.0,0.0,0.0,0.0,0.0,0.0,0.0,0.0,0.0,0.0,0.0,0.0,0.0,0.0,0.0,0.0,0.0,0.0,0.0,0.0,0.0,0.0,0.0,0.0,0.0,0.0,0.0,0.0,0.0,0.0,0.0,0.0,0.0,0.0,0.0,0.0,0.0,0.0,0.0,0.0,0.0,0.0,0.0,0.0,0.0,0.0,0.0,0.0,0.0,0.0,0.0,0.0,0.0,0.0,0.0,0.0,0.0,0.0,0.0,0.0,0.0,0.0,0.0,0.0,0.0,0.0,0.0,0.0,0.0,0.0,0.0,0.0,0.0,0.0,0.0,0.0,0.0,0.0,0.0,0.0,0.0,0.0,0.0,0.0,0.0,0.0,0.0,0.0,0.0,0.0,0.0,0.0,0.0,0.0,0.0,0.0,0.0,0.0,0.0,0.0,0.0,0.0,0.0,0.0,0.0,0.0,0.0,0.0,0.0,0.0,0.0,0.0,0.0,0.0,0.0,0.0,0.0,0.0,0.0,0.0,0.0,0.0,0.0,0.0,0.0,0.0,0.0,0.0,0.0,0.0,0.0,0.0,0.0,0.0,0.0,0.0,0.0,0.0,0.0,0.0,0.0,0.0,0.0,0.0,0.0,0.0,0.0,0.0,0.0,0.0,0.0,0.0,0.0,0.0,0.0,0.0,0.0,0.0,0.0,0.0,0.0,0.0,0.0,0.0,0.0,0.0,0.0,0.0,0.0,0.0,0.0,0.0,0.0,0.0,0.0,0.0,0.0,0.0,0.0,0.0,0.0,0.0,0.0,0.0,0.0,0.0,0.0,0.0,0.0,0.0,0.0,0.0,0.0,0.0,0.0,0.0,0.0,0.0,0.0,0.0,0.0,0.0,0.0,0.0,0.0,0.0,0.0,0.0,0.0,0.0,0.0,0.0,0.0,0.0,0.0,0.0,0.0,0.0,0.0,0.0,0.0,0.0,0.0,0.0,0.0,0.0,0.0,0.0,0.0,0.0,0.0,0.0,0.0,0.0,0.0,0.0,0.0,0.0,0.0,0.0,0.0,0.0,0.0,0.0,0.0,0.0,0.0,0.0,0.0,0.0,0.0,0.0,0.0,0.0,0.0,0.0,0.0,0.0,0.0,0.0,0.0,0.0,0.0,0.0,0.0,0.0,0.0,0.0,0.0,0.0,0.0,0.0,0.0,0.0,0.0,0.0,0.0,0.0,0.0,0.0,0.0,0.0,0.0,0.0,0.0,0.0,0.0,0.0,0.0,0.0,0.0,0.0,0.0,0.0,0.0,0.0,0.0,0.0,0.0,0.0,0.0,0.0,0.0,0.0,0.0,0.0,0.0,0.0,0.0,0.0,0.0,0.0,0.0,0.0,0.0,0.0,0.0,0.0,0.0,0.0,0.0,0.0,0.0,0.0,0.0,0.0,0.0,0.0,0.0,0.0,0.0,0.0,0.0,0.0,0.0,0.0,0.0,0.0,0.0,0.0,0.0,0.0,0.0,0.0,0.0,0.0,0.0,0.0,0.0,0.0,0.0,0.0,0.0,0.0,0.0,0.0,0.0,0.0,0.0,0.0,0.0,0.0,0.0,0.0,0.0,0.0,0.0,0.0,0.0,0.0,0.0,0.0,0.0,0.0,0.0,0.0,0.0,0.0,0.0,0.0,0.0,0.0,0.0,0.0,0.0,0.0,0.0,0.0,0.0,0.0,0.0,0.0,0.0,0.0,0.0,0.0,0.0,0.0,0.0,0.0,0.0,0.0,0.0,0.0,0.0,0.0,0.0,0.0,0.0,0.0,0.0,0.0,0.0,0.0,0.0,0.0,0.0,0.0,0.0,0.0,0.0,0.0,0.0,0.0,0.0,0.0,0.0,0.0,0.0,0.0,0.0,0.0,0.0,0.0,0.0,0.0,0.0,0.0,0.0,0.0,0.0,0.0,0.0,0.0,0.0,0.0,0.0,0.0,0.0,0.0,0.0,0.0,0.0,0.0,0.0,0.0,0.0,0.0,0.0,0.0,0.0,0.0,0.0,1.4102,0.0,0.0,0.0,0.0,0.0,0.0,0.0,0.0,0.0,0.0,0.0,0.0,0.0,0.0,0.0,0.0,0.0,0.0,0.0,0.0,0.0,0.0,0.0,0.0,0.0,0.0,0.0,0.0,0.0,0.0,0.0,0.0,0.0,0.0,0.0,0.0,0.0,0.0,0.0,0.0,0.0,0.0,0.0,0.0,0.0,0.0,0.0,0.0,0.0,0.0,0.0,0.0,0.0,0.0,0.0,0.0,0.0,0.0,0.0,0.0,0.0,0.0,0.0,0.0,0.0,0.0,0.0,0.0,0.0,0.0,0.0,0.0,0.0,0.0,0.0,0.0,0.0,0.0,0.0,0.0,0.0,0.0,0.0,0.0,0.0,0.0,0.0,0.0,0.0,0.0,0.0,0.0,0.0,0.0,0.0,0.0,0.0,0.0,0.0,0.0,0.0,0.0,0.0,0.0,0.0,0.0,0.0,0.0,0.0,0.0,1.5206,1.5382,1.505,1.4605,1.4075,0.0,0.0,0.0,0.0,0.0,0.0,0.0,0.0,0.0,0.0,0.0,0.0,0.0,0.0,0.0,0.0,0.0,0.0,0.0,0.0,0.0,0.0,0.0,0.0,0.0,0.0,0.0,0.0,0.0,0.0,0.0,0.0,0.0,0.0,0.0,0.0,0.0,0.0,0.0,0.0,0.0,0.0,0.0,0.0,0.0,0.0,0.0,0.0,0.0,0.0,0.0,0.0,0.0,0.0,0.0,0.0,0.0,0.0,0.0,0.0,0.0,0.0,0.0,0.0,0.0,0.0,0.0,0.0,0.0,0.0,0.0,0.0,0.0,0.0,0.0,0.0,0.0,0.0,0.0,0.0,0.0,0.0,0.0,0.0,0.0,0.0,0.0,0.0,0.0,0.0,0.0,0.0,0.0,0.0,0.0,0.0,0.0,0.0,0.0,0.0,0.0,0.0,0.0,0.0,0.0,0.0,0.0,0.0,0.0,0.0,0.0,0.0,1.5575,1.5147,1.44,0.0,0.0,0.0,0.0,0.0,0.0,0.0,0.0,0.0,0.0,0.0,0.0,0.0,0.0,0.0,0.0,0.0,0.0,0.0,0.0,0.0,0.0,0.0,0.0,0.0,0.0,0.0,0.0,0.0,0.0,0.0,0.0,0.0,0.0,0.0,0.0,0.0,0.0,0.0,0.0,0.0,0.0,0.0,0.0,0.0,0.0,0.0,0.0,0.0,0.0,0.0,0.0,0.0,0.0,0.0,0.0,0.0,0.0,0.0,0.0,0.0,0.0,0.0,0.0,0.0,0.0,0.0,0.0,0.0,0.0,0.0,0.0,0.0,0.0,0.0,0.0,0.0,0.0,0.0,0.0,0.0,0.0,0.0,0.0,0.0,0.0,0.0,0.0,0.0,0.0,0.0,0.0,0.0,0.0,0.0,0.0,0.0,0.0,0.0,0.0,0.0,0.0,0.0,0.0,0.0,0.0,0.0,0.0,0.0,0.0,1.549,1.6727,1.6733,0.0,1.5855,0.0,0.0,0.0,0.0,0.0,0.0,0.0,0.0,0.0,0.0,0.0,0.0,0.0,0.0,0.0,0.0,0.0,0.0,0.0,0.0,0.0,0.0,0.0,0.0,0.0,0.0,0.0,0.0,0.0,0.0,0.0,0.0,0.0,0.0,0.0,0.0,0.0,0.0,0.0,0.0,0.0,0.0,0.0,0.0,0.0,0.0,0.0,0.0,0.0,0.0,0.0,0.0,0.0,0.0,0.0,0.0,0.0,0.0,0.0,0.0,0.0,0.0,0.0,0.0,0.0,0.0,0.0,0.0,0.0,0.0,0.0,0.0,0.0,0.0,0.0,0.0,0.0,0.0,0.0,0.0,0.0,0.0,0.0,0.0,0.0,0.0,0.0,0.0,0.0,0.0,0.0,0.0,0.0,0.0,0.0,0.0,0.0,0.0,0.0,0.0,0.0,0.0,0.0,0.0,0.0,0.0,0.0,0.0,0.0,0.0,1.5826,1.6595,1.619,1.5855,0.0,0.0,0.0,0.0,0.0,0.0,0.0,0.0,0.0,0.0,0.0,0.0,0.0,0.0,0.0,0.0,0.0,0.0,0.0,0.0,0.0,0.0,0.0,0.0,0.0,0.0,0.0,0.0,0.0,0.0,0.0,0.0,0.0,0.0,0.0,0.0,0.0,0.0,0.0,0.0,0.0,0.0,0.0,0.0,0.0,0.0,0.0,0.0,0.0,0.0,0.0,0.0,0.0,0.0,0.0,0.0,0.0,0.0,0.0,0.0,0.0,0.0,0.0,0.0,0.0,0.0,0.0,0.0,0.0,0.0,0.0,0.0,0.0,0.0,0.0,0.0,0.0,0.0,0.0,0.0,0.0,0.0,0.0,0.0,0.0,0.0,0.0,0.0,0.0,0.0,0.0,0.0,0.0,0.0,0.0,0.0,0.0,0.0,0.0,0.0,0.0,0.0,0.0,0.0,0.0,0.0,0.0,0.0,0.0,0.0,1.5687,1.6184,1.6726,1.6259,1.5724,1.5149,0.0,0.0,0.0,0.0,0.0,0.0,0.0,0.0,0.0,0.0,0.0,0.0,0.0,0.0,0.0,0.0,0.0,0.0,0.0,0.0,0.0,0.0,0.0,0.0,0.0,0.0,0.0,0.0,0.0,0.0,0.0,0.0,0.0,0.0,0.0,0.0,0.0,0.0,0.0,0.0,0.0,0.0,0.0,0.0,0.0,0.0,0.0,0.0,0.0,0.0,0.0,0.0,0.0,0.0,0.0,0.0,0.0,0.0,0.0,0.0,0.0,0.0,0.0,0.0,0.0,0.0,0.0,0.0,0.0,0.0,0.0,0.0,0.0,0.0,0.0,0.0,0.0,0.0,0.0,0.0,0.0,0.0,0.0,0.0,0.0,0.0,0.0,0.0,0.0,0.0,0.0,0.0,0.0,0.0,0.0,0.0,0.0,0.0,0.0,0.0,0.0,0.0,0.0,0.0,0.0,0.0,0.0,0.0,1.6995,1.6308,1.6506,1.7691,1.7711,1.6758,0.0,0.0,0.0,0.0,0.0,0.0,0.0,0.0,0.0,0.0,0.0,0.0,0.0,0.0,0.0,0.0,0.0,0.0,0.0,0.0,0.0,0.0,0.0,0.0,0.0,0.0,0.0,0.0,0.0,0.0,0.0,0.0,0.0,0.0,0.0,0.0,0.0,0.0,0.0,0.0,0.0,0.0,0.0,0.0,0.0,0.0,0.0,0.0,0.0,0.0,0.0,0.0,0.0,0.0,0.0,0.0,0.0,0.0,0.0,0.0,0.0,0.0,0.0,0.0,0.0,0.0,0.0,0.0,0.0,0.0,0.0,0.0,0.0,0.0,0.0,0.0,0.0,0.0,0.0,0.0,0.0,0.0,0.0,0.0,0.0,0.0,0.0,0.0,0.0,0.0,0.0,0.0,0.0,0.0,0.0,0.0,0.0,0.0,0.0,0.0,0.0,0.0,0.0,0.0,0.0,0.0,0.0,0.0,0.0,1.4832,1.5315,1.6484,1.8267,1.6615,1.5547,0.0,0.0,0.0,0.0,0.0,0.0,0.0,0.0,0.0,0.0,0.0,0.0,0.0,0.0,0.0,0.0,0.0,0.0,0.0,0.0,0.0,0.0,0.0,0.0,0.0,0.0,0.0,0.0,0.0,0.0,0.0,0.0,0.0,0.0,0.0,0.0,0.0,0.0,0.0,0.0,0.0,0.0,0.0,0.0,0.0,0.0,0.0,0.0,0.0,0.0,0.0,0.0,0.0,0.0,0.0,0.0,0.0,0.0,0.0,0.0,0.0,0.0,0.0,0.0,0.0,0.0,0.0,0.0,0.0,0.0,0.0,0.0,0.0,0.0,0.0,0.0,0.0,0.0,0.0,0.0,0.0,0.0,0.0,0.0,0.0,0.0,0.0,0.0,0.0,0.0,0.0,0.0,0.0,0.0,0.0,0.0,0.0,0.0,0.0,0.0,0.0,0.0,0.0,0.0,0.0,0.0,0.0,0.0,0.0,1.4448,0.0,1.6922,1.8052,1.6187,1.5,0.0,0.0,0.0,0.0,0.0,0.0,0.0,0.0,0.0,0.0,0.0,0.0,0.0,0.0,0.0,0.0,0.0,0.0,0.0,0.0,0.0,0.0,0.0,0.0,0.0,0.0,0.0,0.0,0.0,0.0,0.0,0.0,0.0,0.0,0.0,0.0,0.0,0.0,0.0,0.0,0.0,0.0,0.0,0.0,0.0,0.0,0.0,0.0,0.0,0.0,0.0,0.0,0.0,0.0,0.0,0.0,0.0,0.0,0.0,0.0,0.0,0.0,0.0,0.0,0.0,0.0,0.0,0.0,0.0,0.0,0.0,0.0,0.0,0.0,0.0,0.0,0.0,0.0,0.0,0.0,0.0,0.0,0.0,0.0,0.0,0.0,0.0,0.0,0.0,0.0,0.0,0.0,0.0,0.0,0.0,0.0,0.0,0.0,0.0,0.0,0.0,0.0,0.0,0.0,0.0,0.0,0.0,0.0,1.4102,1.6265,1.7507,1.7755,1.6953,1.6632,1.529,0.0,0.0,0.0,0.0,0.0,0.0,0.0,0.0,0.0,0.0,0.0,0.0,0.0,0.0,0.0,0.0,0.0,0.0,0.0,0.0,0.0,0.0,0.0,0.0,0.0,0.0,0.0,0.0,0.0,0.0,0.0,0.0,0.0,0.0,0.0,0.0,0.0,0.0,0.0,0.0,0.0,0.0,0.0,0.0,0.0,0.0,0.0,0.0,0.0,0.0,0.0,0.0,0.0,0.0,0.0,0.0,0.0,0.0,0.0,0.0,0.0,0.0,0.0,0.0,0.0,0.0,0.0,0.0,0.0,0.0,0.0,0.0,0.0,0.0,0.0,0.0,0.0,0.0,0.0,0.0,0.0,0.0,0.0,0.0,0.0,0.0,0.0,0.0,0.0,0.0,0.0,0.0,0.0,0.0,0.0,0.0,0.0,0.0,0.0,0.0,0.0,0.0,0.0,0.0,0.0,0.0,0.0,0.0,0.0,1.5159,1.6355,1.7268,1.7773,1.5838,1.4746,0.0,0.0,0.0,0.0,0.0,0.0,0.0,0.0,0.0,0.0,0.0,0.0,0.0,0.0,0.0,0.0,0.0,0.0,0.0,0.0,0.0,0.0,0.0,0.0,0.0,0.0,0.0,0.0,0.0,0.0,0.0,0.0,0.0,0.0,0.0,0.0,0.0,0.0,0.0,0.0,0.0,0.0,0.0,0.0,0.0,0.0,0.0,0.0,0.0,0.0,0.0,0.0,0.0,0.0,0.0,0.0,0.0,0.0,0.0,0.0,0.0,0.0,0.0,0.0,0.0,0.0,0.0,0.0,0.0,0.0,0.0,0.0,0.0,0.0,0.0,0.0,0.0,0.0,0.0,0.0,0.0,0.0,0.0,0.0,0.0,0.0,0.0,0.0,0.0,0.0,0.0,0.0,0.0,0.0,0.0,0.0,0.0,0.0,0.0,0.0,0.0,0.0,0.0,0.0,0.0,0.0,0.0,0.0,0.0,1.5793,1.7016,1.7823,1.8167,1.6068,1.504,1.5234,0.0,0.0,0.0,0.0,0.0,0.0,0.0,0.0,0.0,0.0,0.0,0.0,0.0,0.0,0.0,0.0,0.0,0.0,0.0,0.0,0.0,0.0,0.0,0.0,0.0,0.0,0.0,0.0,0.0,0.0,0.0,0.0,0.0,0.0,0.0,0.0,0.0,0.0,0.0,0.0,0.0,0.0,0.0,0.0,0.0,0.0,0.0,0.0,0.0,0.0,0.0,0.0,0.0,0.0,0.0,0.0,0.0,0.0,0.0,0.0,0.0,0.0,0.0,0.0,0.0,0.0,0.0,0.0,0.0,0.0,0.0,0.0,0.0,0.0,0.0,0.0,0.0,0.0,0.0,0.0,0.0,0.0,0.0,0.0,0.0,0.0,0.0,0.0,0.0,0.0,0.0,0.0,0.0,0.0,0.0,0.0,0.0,0.0,0.0,0.0,0.0,0.0,0.0,0.0,0.0,0.0,0.0,0.0,1.7647,1.9071,1.9278,1.8137,1.7186,1.606,0.0,0.0,0.0,0.0,0.0,0.0,0.0,0.0,0.0,0.0,0.0,0.0,0.0,0.0,0.0,0.0,0.0,0.0,0.0,0.0,0.0,0.0,0.0,0.0,0.0,0.0,0.0,0.0,0.0,0.0,0.0,0.0,0.0,0.0,0.0,0.0,0.0,0.0,0.0,0.0,0.0,0.0,0.0,0.0,0.0,0.0,0.0,0.0,0.0,0.0,0.0,0.0,0.0,0.0,0.0,0.0,0.0,0.0,0.0,0.0,0.0,0.0,0.0,0.0,0.0,0.0,0.0,0.0,0.0,0.0,0.0,0.0,0.0,0.0,0.0,0.0,0.0,0.0,0.0,0.0,0.0,0.0,0.0,0.0,0.0,0.0,0.0,0.0,0.0,0.0,0.0,0.0,0.0,0.0,0.0,0.0,0.0,0.0,0.0,0.0,0.0,0.0,0.0,0.0,0.0,0.0,0.0,0.0,0.0,1.8279,1.9697,2.0289,1.9935,1.8076,1.6866,0.0,0.0,0.0,0.0,0.0,0.0,0.0,0.0,0.0,0.0,0.0,0.0,0.0,0.0,0.0,0.0,0.0,0.0,0.0,0.0,0.0,0.0,0.0,0.0,0.0,0.0,0.0,0.0,0.0,0.0,0.0,0.0,0.0,0.0,0.0,0.0,0.0,0.0,0.0,0.0,0.0,0.0,0.0,0.0,0.0,0.0,0.0,0.0,0.0,0.0,0.0,0.0,0.0,0.0,0.0,0.0,0.0,0.0,0.0,0.0,0.0,0.0,0.0,0.0,0.0,0.0,0.0,0.0,0.0,0.0,0.0,0.0,0.0,0.0,0.0,0.0,0.0,0.0,0.0,0.0,0.0,0.0,0.0,0.0,0.0,0.0,0.0,0.0,0.0,0.0,0.0,0.0,0.0,0.0,0.0,0.0,0.0,0.0,0.0,0.0,0.0,0.0,0.0,0.0,0.0,0.0,0.0,0.0,1.7836,1.9025,2.0227,2.0868,2.0879,1.9085,1.7782,0.0,0.0,0.0,0.0,0.0,0.0,0.0,0.0,0.0,0.0,0.0,0.0,0.0,0.0,0.0,0.0,0.0,0.0,0.0,0.0,0.0,0.0,0.0,0.0,0.0,0.0,0.0,0.0,0.0,0.0,0.0,0.0,0.0,0.0,0.0,0.0,0.0,0.0,0.0,0.0,0.0,0.0,0.0,0.0,0.0,0.0,0.0,0.0,0.0,0.0,0.0,0.0,0.0,0.0,0.0,0.0,0.0,0.0,0.0,0.0,0.0,0.0,0.0,0.0,0.0,0.0,0.0,0.0,0.0,0.0,0.0,0.0,0.0,0.0,0.0,0.0,0.0,0.0,0.0,0.0,0.0,0.0,0.0,0.0,0.0,0.0,0.0,0.0,0.0,0.0,0.0,0.0,0.0,0.0,0.0,0.0,0.0,0.0,0.0,0.0,0.0,0.0,0.0,0.0,0.0,0.0,0.0,0.0,1.8624,1.9773,2.0655,2.1109,2.1069,2.0017,1.8612,0.0,0.0,0.0,0.0,0.0,0.0,0.0,0.0,0.0,0.0,0.0,0.0,0.0,0.0,0.0,0.0,0.0,0.0,0.0,0.0,0.0,0.0,0.0,0.0,0.0,0.0,0.0,0.0,0.0,0.0,0.0,0.0,0.0,0.0,0.0,0.0,0.0,0.0,0.0,0.0,0.0,0.0,0.0,0.0,0.0,0.0,0.0,0.0,0.0,0.0,0.0,0.0,0.0,0.0,0.0,0.0,0.0,0.0,0.0,0.0,0.0,0.0,0.0,0.0,0.0,0.0,0.0,0.0,0.0,0.0,0.0,0.0,0.0,0.0,0.0,0.0,0.0,0.0,0.0,0.0,0.0,0.0,0.0,0.0,0.0,0.0,0.0,0.0,0.0,0.0,0.0,0.0,0.0,0.0,0.0,0.0,0.0,0.0,0.0,0.0,0.0,0.0,0.0,0.0,0.0,0.0,0.0,0.0,1.8851,1.9786,2.0655,2.1109,2.1109,2.0003,1.8851,0.0,0.0,0.0,0.0,0.0,0.0,0.0,0.0,0.0,0.0,0.0,0.0,0.0,0.0,0.0,0.0,0.0,0.0,0.0,0.0,0.0,0.0,0.0,0.0,0.0,0.0,0.0,0.0,0.0,0.0,0.0,0.0,0.0,0.0,0.0,0.0,0.0,0.0,0.0,0.0,0.0,0.0,0.0,0.0,0.0,0.0,0.0,0.0,1.4758,0.0,0.0,0.0,0.0,0.0,0.0,0.0,0.0,0.0,0.0,0.0,0.0,0.0,0.0,0.0,0.0,0.0,0.0,0.0,0.0,0.0,0.0,0.0,0.0,0.0,0.0,0.0,0.0,0.0,0.0,0.0,0.0,0.0,0.0,0.0,0.0,0.0,0.0,0.0,0.0,0.0,0.0,0.0,0.0,0.0,0.0,0.0,0.0,0.0,0.0,0.0,0.0,0.0,0.0,0.0,0.0,0.0,0.0,0.0,1.9361,2.0187,2.0802,2.1109,2.1051,2.0374,1.9372,0.0,0.0,0.0,0.0,0.0,0.0,0.0,0.0,0.0,0.0,0.0,0.0,0.0,0.0,0.0,0.0,0.0,0.0,0.0,0.0,0.0,0.0,0.0,0.0,0.0,0.0,0.0,0.0,0.0,0.0,0.0,0.0,0.0,0.0,0.0,0.0,0.0,0.0,0.0,0.0,0.0,0.0,0.0,0.0,0.0,0.0,0.0,0.0,0.0,0.0,0.0,0.0,0.0,0.0,0.0,0.0,0.0,0.0,0.0,0.0,0.0,0.0,0.0,0.0,0.0,0.0,0.0,0.0,0.0,0.0,0.0,0.0,0.0,0.0,0.0,0.0,0.0,0.0,0.0,0.0,0.0,0.0,0.0,0.0,0.0,0.0,0.0,0.0,0.0,0.0,0.0,0.0,0.0,0.0,0.0,0.0,0.0,0.0,0.0,0.0,0.0,0.0,0.0,0.0,0.0,0.0,0.0,1.8558,1.9803,2.0739,2.1029,2.1162,2.1109,2.0828,1.984,1.809,0.0,0.0,0.0,0.0,0.0,0.0,0.0,0.0,0.0,0.0,0.0,0.0,0.0,0.0,0.0,0.0,0.0,0.0,0.0,0.0,0.0,0.0,0.0,0.0,0.0,0.0,0.0,0.0,0.0,0.0,0.0,0.0,0.0,0.0,0.0,0.0,0.0,0.0,1.5267,1.6027,0.0,0.0,0.0,0.0,0.0,0.0,0.0,0.0,1.6179,0.0,0.0,0.0,0.0,0.0,0.0,0.0,0.0,0.0,0.0,0.0,0.0,0.0,0.0,0.0,0.0,0.0,0.0,0.0,0.0,0.0,0.0,0.0,0.0,0.0,0.0,0.0,0.0,0.0,0.0,0.0,0.0,0.0,0.0,0.0,0.0,0.0,0.0,0.0,0.0,0.0,0.0,0.0,0.0,0.0,0.0,0.0,0.0,0.0,0.0,0.0,0.0,0.0,0.0,0.0,0.0,1.8489,1.8851,1.9623,2.1002,2.1355,2.1395,2.1122,2.0828,1.984,1.8076,0.0,0.0,0.0,0.0,0.0,0.0,0.0,0.0,0.0,0.0,0.0,0.0,0.0,0.0,0.0,0.0,0.0,0.0,0.0,0.0,0.0,0.0,0.0,0.0,0.0,0.0,0.0,0.0,0.0,0.0,0.0,0.0,0.0,0.0,0.0,0.0,0.0,0.0,0.0,1.7153,1.7382,0.0,0.0,0.0,0.0,0.0,0.0,0.0,0.0,1.6248,0.0,0.0,0.0,0.0,0.0,0.0,0.0,0.0,0.0,0.0,0.0,0.0,0.0,0.0,0.0,0.0,0.0,0.0,0.0,0.0,0.0,0.0,0.0,0.0,0.0,0.0,0.0,0.0,0.0,0.0,0.0,0.0,0.0,0.0,0.0,0.0,0.0,0.0,0.0,0.0,0.0,0.0,0.0,0.0,0.0,0.0,0.0,0.0,0.0,0.0,0.0,0.0,0.0,0.0,0.0,1.8156,1.9279,2.0241,2.1082,2.1435,2.1448,2.1109,2.0388,1.9334,0.0,0.0,0.0,0.0,0.0,0.0,0.0,0.0,0.0,0.0,0.0,0.0,0.0,0.0,0.0,0.0,0.0,0.0,0.0,0.0,0.0,0.0,0.0,0.0,0.0,0.0,0.0,0.0,0.0,0.0,0.0,0.0,0.0,0.0,0.0,0.0,0.0,0.0,0.0,0.0,1.7421,1.7715,1.8036,0.0,0.0,0.0,0.0,0.0,0.0,1.6819,1.6672,0.0,0.0,0.0,0.0,0.0,0.0,0.0,0.0,0.0,0.0,0.0,0.0,0.0,0.0,0.0,0.0,0.0,0.0,0.0,0.0,0.0,0.0,0.0,0.0,0.0,0.0,0.0,0.0,0.0,0.0,0.0,0.0,0.0,0.0,0.0,0.0,0.0,0.0,0.0,0.0,0.0,0.0,0.0,0.0,0.0,0.0,0.0,0.0,0.0,0.0,0.0,0.0,0.0,0.0,0.0,1.7622,1.9573,2.0762,2.1109,2.1489,2.1502,2.1109,2.0124,1.896,0.0,0.0,0.0,0.0,0.0,0.0,0.0,0.0,0.0,0.0,0.0,0.0,0.0,0.0,0.0,0.0,0.0,0.0,0.0,0.0,0.0,0.0,0.0,0.0,0.0,0.0,0.0,0.0,0.0,0.0,0.0,0.0,0.0,0.0,0.0,0.0,0.0,0.0,0.0,0.0,0.0,1.8009,1.8424,1.7956,0.0,0.0,0.0,0.0,1.7648,1.7702,0.0,0.0,0.0,0.0,0.0,0.0,0.0,0.0,0.0,0.0,0.0,0.0,0.0,0.0,0.0,0.0,0.0,0.0,0.0,0.0,0.0,0.0,0.0,0.0,0.0,0.0,0.0,0.0,0.0,0.0,0.0,0.0,0.0,0.0,0.0,0.0,0.0,0.0,0.0,0.0,0.0,0.0,0.0,0.0,0.0,0.0,0.0,0.0,0.0,0.0,0.0,0.0,0.0,0.0,0.0,0.0,1.7595,1.9359,2.0517,2.1096,2.1643,2.167,2.1122,2.0437,1.9332,0.0,0.0,0.0,0.0,0.0,0.0,0.0,0.0,0.0,0.0,0.0,0.0,0.0,0.0,0.0,0.0,0.0,0.0,0.0,0.0,0.0,0.0,0.0,0.0,0.0,0.0,0.0,0.0,0.0,0.0,0.0,0.0,0.0,0.0,0.0,0.0,0.0,0.0,0.0,0.0,0.0,1.8704,1.8517,1.8624,1.8689,0.0,0.0,1.8865,1.9412,1.9492,0.0,0.0,0.0,0.0,0.0,0.0,0.0,0.0,0.0,0.0,0.0,0.0,0.0,0.0,0.0,0.0,0.0,0.0,0.0,0.0,0.0,0.0,0.0,0.0,0.0,0.0,0.0,0.0,0.0,0.0,0.0,0.0,0.0,0.0,0.0,0.0,0.0,0.0,0.0,0.0,0.0,0.0,0.0,0.0,0.0,0.0,0.0,0.0,0.0,0.0,0.0,0.0,0.0,0.0,0.0,1.6567,1.7849,2.0067,2.1269,2.1408,2.181,2.171,2.1122,2.0227,1.9013,0.0,0.0,0.0,0.0,0.0,0.0,0.0,0.0,0.0,0.0,0.0,0.0,0.0,0.0,0.0,0.0,0.0,0.0,0.0,0.0,0.0,0.0,0.0,0.0,0.0,0.0,0.0,0.0,0.0,0.0,0.0,0.0,0.0,0.0,0.0,0.0,0.0,0.0,0.0,0.0,0.0,0.0,1.9397,1.9557,0.0,0.0,0.0,2.0104,2.0024,0.0,0.0,0.0,0.0,0.0,0.0,0.0,0.0,0.0,0.0,0.0,0.0,0.0,0.0,0.0,0.0,0.0,0.0,0.0,0.0,0.0,0.0,0.0,0.0,0.0,0.0,0.0,0.0,0.0,0.0,0.0,0.0,0.0,0.0,0.0,0.0,0.0,0.0,0.0,0.0,0.0,0.0,0.0,0.0,0.0,0.0,0.0,0.0,0.0,0.0,0.0,0.0,0.0,0.0,0.0,0.0,0.0,1.8022,2.0708,2.1984,2.1748,2.1903,2.1737,2.1216,2.0258,0.0,0.0,0.0,0.0,0.0,0.0,0.0,0.0,0.0,0.0,0.0,0.0,0.0,0.0,0.0,0.0,0.0,0.0,0.0,0.0,0.0,0.0,0.0,0.0,0.0,0.0,0.0,1.2069,0.0,0.0,0.0,0.0,0.0,0.0,0.0,0.0,0.0,0.0,0.0,0.0,0.0,0.0,1.9437,2.0304,2.0544,2.0744,0.0,0.0,2.1203,2.0811,2.1117,2.0677,0.0,0.0,0.0,0.0,0.0,0.0,0.0,0.0,0.0,0.0,0.0,0.0,0.0,0.0,0.0,0.0,0.0,0.0,0.0,0.0,0.0,0.0,0.0,0.0,0.0,0.0,0.0,0.0,0.0,0.0,0.0,0.0,0.0,0.0,0.0,0.0,0.0,0.0,0.0,0.0,0.0,0.0,0.0,0.0,0.0,0.0,0.0,0.0,0.0,0.0,0.0,0.0,0.0,0.0,1.7448,1.8089,2.0877,2.2245,2.1997,2.1977,2.1877,2.1555,2.0953,1.9655,0.0,0.0,0.0,0.0,0.0,0.0,0.0,0.0,0.0,0.0,0.0,0.0,0.0,0.0,0.0,0.0,0.0,0.0,0.0,0.0,0.0,0.0,0.0,0.0,0.0,0.0,0.0,0.0,0.0,0.0,0.0,0.0,0.0,0.0,0.0,0.0,0.0,0.0,0.0,0.0,0.0,2.0067,2.0935,2.1523,2.2271,0.0,2.2653,2.2004,2.2231,2.2265,2.1504,1.921,0.0,0.0,0.0,0.0,0.0,0.0,0.0,0.0,0.0,0.0,0.0,0.0,0.0,0.0,0.0,0.0,0.0,0.0,0.0,0.0,0.0,0.0,0.0,0.0,0.0,0.0,0.0,0.0,0.0,0.0,0.0,0.0,0.0,0.0,0.0,0.0,0.0,0.0,0.0,0.0,0.0,0.0,0.0,0.0,0.0,0.0,0.0,0.0,0.0,0.0,0.0,0.0,0.0,1.7648,1.8569,2.1077,2.2365,2.2258,2.2071,2.1877,2.1628,2.1181,1.9893,0.0,0.0,0.0,0.0,0.0,0.0,0.0,0.0,0.0,0.0,0.0,0.0,0.0,0.0,0.0,0.0,0.0,0.0,0.0,0.0,0.0,0.0,0.0,0.0,0.0,0.0,0.0,0.0,1.4539,1.4691,1.4776,0.0,0.0,0.0,0.0,0.0,0.0,0.0,0.0,0.0,0.0,2.1301,2.2325,2.2979,0.0,0.0,2.3434,2.3394,2.2779,2.2686,2.2017,2.001,1.9426,0.0,0.0,0.0,0.0,0.0,0.0,0.0,0.0,0.0,0.0,0.0,0.0,0.0,0.0,0.0,0.0,0.0,0.0,0.0,0.0,0.0,0.0,0.0,0.0,0.0,0.0,0.0,0.0,0.0,0.0,0.0,0.0,0.0,0.0,0.0,0.0,0.0,0.0,0.0,0.0,0.0,0.0,0.0,0.0,0.0,0.0,0.0,0.0,0.0,0.0,0.0,0.0,1.7822,1.889,2.1229,2.2458,2.2552,2.2178,2.1917,2.1716,2.1341,2.012,0.0,0.0,0.0,0.0,0.0,0.0,0.0,0.0,0.0,0.0,0.0,0.0,0.0,0.0,0.0,0.0,0.0,0.0,0.0,0.0,0.0,0.0,0.0,0.0,0.0,0.0,0.0,0.0,1.512,1.5053,1.4879,0.0,0.0,0.0,0.0,0.0,0.0,0.0,0.0,0.0,0.0,2.2345,2.3313,2.3808,2.3981,2.3688,2.3821,2.3781,2.3255,2.3014,2.2331,2.0641,0.0,0.0,0.0,0.0,0.0,0.0,0.0,0.0,0.0,0.0,0.0,0.0,0.0,0.0,0.0,0.0,0.0,0.0,0.0,0.0,0.0,0.0,0.0,0.0,0.0,0.0,0.0,1.4164,0.0,0.0,1.198,0.0,0.0,0.0,0.0,0.0,0.0,0.0,0.0,0.0,0.0,0.0,0.0,0.0,0.0,0.0,0.0,0.0,0.0,0.0,0.0,0.0,0.0,1.8009,1.8916,2.1197,2.2552,2.2853,2.2318,2.201,2.1951,2.1416,2.0414,1.889,0.0,0.0,0.0,0.0,0.0,0.0,0.0,0.0,0.0,0.0,0.0,0.0,0.0,0.0,0.0,0.0,0.0,0.0,0.0,0.0,0.0,0.0,0.0,0.0,0.0,0.0,1.5374,1.5414,1.5164,0.0,0.0,0.0,0.0,0.0,0.0,0.0,0.0,0.0,2.0565,2.1957,2.3094,2.371,2.3794,2.4149,2.5186,2.371,2.2737,2.355,2.3212,2.2398,0.0,0.0,0.0,0.0,0.0,0.0,0.0,0.0,0.0,0.0,0.0,0.0,0.0,0.0,0.0,0.0,0.0,0.0,0.0,0.0,0.0,0.0,0.0,0.0,0.0,0.0,0.0,1.6204,1.4979,0.0,0.0,0.0,0.0,0.0,0.0,0.0,0.0,0.0,0.0,0.0,1.7996,1.8677,0.0,0.0,0.0,0.0,0.0,0.0,0.0,0.0,0.0,0.0,0.0,0.0,1.805,1.9506,2.1229,2.2271,2.2539,2.2191,2.1897,2.1729,2.1309,2.0428,1.8943,0.0,0.0,0.0,0.0,0.0,0.0,0.0,0.0,0.0,0.0,0.0,0.0,0.0,0.0,0.0,0.0,0.0,0.0,0.0,0.0,0.0,0.0,0.0,0.0,0.0,1.5297,0.0,0.0,0.0,0.0,0.0,0.0,0.0,0.0,0.0,0.0,1.9789,2.1109,2.2285,2.3367,2.4115,2.4279,2.3945,2.3527,0.0,0.0,0.0,0.0,0.0,0.0,0.0,0.0,0.0,0.0,0.0,0.0,0.0,0.0,2.1466,2.1149,2.0708,2.0414,2.0508,0.0,0.0,0.0,0.0,0.0,0.0,0.0,0.0,0.0,0.0,0.0,0.0,0.0,0.0,1.7295,1.642,1.5851,0.0,0.0,0.0,0.0,0.0,0.0,0.0,0.0,1.8703,1.9706,1.9983,2.0141,1.9763,0.0,1.8718,1.7222,0.0,0.0,0.0,0.0,0.0,0.0,0.0,0.0,1.8465,2.008,2.1443,2.2285,2.2539,2.2191,2.193,2.1743,2.1248,2.0414,1.9236,1.8196,1.7327,0.0,0.0,0.0,0.0,0.0,0.0,0.0,0.0,0.0,0.0,0.0,0.0,0.0,0.0,0.0,0.0,0.0,0.0,0.0,0.0,0.0,0.0,0.0,1.5641,0.0,0.0,0.0,0.0,0.0,0.0,0.0,0.0,0.0,2.0079,2.1622,2.2738,2.3078,2.3593,2.3754,2.3228,0.0,0.0,0.0,0.0,0.0,0.0,0.0,1.9874,1.908,1.969,2.0007,1.9269,2.0127,2.0795,2.0472,0.0,0.0,2.1414,2.099,2.094,2.1692,2.111,2.0849,2.203,2.1893,2.1641,0.0,0.0,0.0,0.0,0.0,0.0,0.0,0.0,1.8932,1.8755,0.0,1.7856,0.0,0.0,0.0,0.0,1.5316,1.7729,0.0,0.0,2.1136,2.2171,2.1767,2.0674,1.9999,1.9759,1.9711,1.8233,1.5459,1.4766,0.0,0.0,0.0,0.0,0.0,0.0,1.9123,2.0469,2.1588,2.237,2.2608,2.2171,2.1944,2.1924,2.1167,2.0428,1.9867,1.9546,1.8759,1.7353,1.638,0.0,0.0,0.0,0.0,0.0,0.0,0.0,0.0,0.0,0.0,0.0,0.0,0.0,0.0,0.0,0.0,0.0,0.0,0.0,0.0,1.5939,0.0,0.0,0.0,0.0,0.0,0.0,0.0,0.0,0.0,1.8981,2.124,2.3153,2.4055,2.287,0.0,0.0,0.0,0.0,1.9891,2.067,1.9912,1.9434,2.0087,2.0239,2.0093,1.9523,0.0,0.0,2.0035,2.0863,2.1253,2.048,2.0929,2.1662,2.1577,2.079,2.0771,2.2608,2.2242,2.2032,2.26,2.2678,2.2434,2.3022,0.0,0.0,0.0,0.0,2.1416,2.1856,2.2673,2.2454,2.166,2.0503,2.0005,0.0,0.0,0.0,0.0,0.0,0.0,1.9387,1.911,2.0203,2.0273,1.9494,1.9344,1.912,1.89,1.8889,1.8313,1.721,1.5804,1.4874,1.4387,0.0,0.0,0.0,0.0,1.6873,1.7885,1.8762,1.9175,1.9218,1.9984,2.0729,2.1344,2.1122,2.0909,2.0735,2.0485,1.9936,1.9065,1.7996,0.0,0.0,0.0,0.0,0.0,0.0,0.0,0.0,0.0,0.0,0.0,0.0,0.0,0.0,0.0,0.0,0.0,0.0,0.0,1.5976,1.551,1.5344,0.0,0.0,0.0,0.0,0.0,0.0,0.0,0.0,0.0,2.0942,2.1601,2.1789,0.0,0.0,2.1348,2.0387,1.9655,1.9192,1.9215,1.816,0.0,1.7275,1.7904,1.8187,1.7557,1.7926,1.8232,1.798,1.8347,1.8575,1.8312,1.847,1.8672,1.8768,2.0177,2.1372,2.1968,2.1084,2.0693,2.1956,2.163,2.1125,2.5144,2.3126,2.2678,2.2868,2.3418,2.3343,2.3666,2.425,2.4039,2.3477,2.262,2.215,2.1204,1.9924,1.8622,0.0,0.0,0.0,1.8992,1.888,1.9495,1.9422,1.8881,1.8399,1.8096,1.7927,1.7846,1.7375,1.6556,1.6056,1.5271,1.4282,0.0,1.4181,1.5244,1.5694,1.6361,1.7202,1.7793,1.8031,1.8004,1.8631,1.9177,1.9539,1.9525,1.9718,2.0227,2.0105,2.0058,2.013,1.9252,1.8116,0.0,0.0,0.0,0.0,0.0,0.0,0.0,0.0,0.0,0.0,0.0,1.3976,1.3163,0.0,0.0,0.0,1.4038,1.529,1.6635,1.594,0.0,0.0,0.0,0.0,0.0,0.0,0.0,1.8071,1.8463,1.8856,1.9151,1.9314,1.9622,2.0219,2.0333,2.0004,1.9096,0.0,1.792,1.792,1.7222,1.6633,1.6487,1.6985,1.7252,1.6886,1.6958,1.7136,1.7218,1.7315,1.7413,1.7469,1.7486,1.7486,1.7486,1.8954,2.0363,2.0898,2.0353,2.0144,2.1181,2.0641,2.0128,2.672,2.6398,2.5405,2.4798,2.4497,2.4734,2.4661,2.4342,2.4342,2.4462,2.4586,2.4151,2.3323,2.2195,1.9821,0.0,1.909,1.8428,1.8251,1.8437,1.899,1.9155,1.8969,1.7591,1.6917,1.6917,1.6693,1.5835,1.4576,1.5667,1.5734,1.4702,1.4197,1.4652,1.597,1.6228,1.6749,1.7533,1.7844,1.8065,1.8173,1.7735,1.7427,1.7236,1.7076,1.7592,1.878,1.8844,1.934,2.0322,1.9845,1.8869,1.7476,0.0,0.0,0.0,0.0,0.0,0.0,0.0,0.0,0.0,0.0,0.0,0.0,0.0,0.0,1.3003,1.3688,0.0,1.7207,1.6753,0.0,0.0,0.0,1.7187,1.7394,1.7227,1.7232,1.749,0.0,0.0,1.6598,1.6866,1.7666,1.9351,1.9128,1.8346,1.7233,1.6751,1.6544,1.7094,1.6966,1.689,1.7015,1.7075,1.711,1.7071,1.7112,1.7177,1.7339,1.7404,1.7469,1.7587,1.7619,1.7619,1.7619,1.7759,1.8021,1.9471,1.9764,1.986,1.985,1.9806,1.9337,2.7321,2.7068,2.6813,2.6408,2.5926,2.5955,2.5822,2.5583,2.5569,2.5331,2.497,2.4874,2.3723,2.1846,1.9946,1.9184,1.9332,1.9232,1.8645,1.7706,1.7803,1.7208,1.6078,1.5658,1.5506,1.5506,1.5426,1.5219,1.4868,1.5035,1.4972,1.4685,1.4411,1.4388,1.457,1.4419,1.4397,1.464,1.4859,1.5415,1.6297,1.5972,1.6228,1.717,1.7066,1.7141,1.7464,1.7496,1.7591,1.7844,1.7408,1.6767,1.5958,1.5305,0.0,0.0,0.0,0.0,0.0,0.0,0.0,0.0,0.0,1.5056,1.2354,0.0,1.5664,0.0,1.3128,1.4107,1.6417,1.6077,0.0,0.0,1.7877,1.8101,1.6964,1.767,1.7899,1.7078,1.6698,1.6498,1.6459,1.6522,1.6577,1.6701,1.7208,1.7351,1.6925,1.6933,1.6958,1.7036,1.7028,1.702,1.7104,1.7112,1.7112,1.7112,1.7112,1.7177,1.7356,1.7494,1.7595,1.7765,1.7851,1.7851,1.7805,1.7692,1.7669,1.8066,1.8172,1.8197,1.8206,1.8197,1.8062,2.6092,2.519,2.519,2.4958,2.4556,2.5183,2.5313,2.5133,2.4242,2.3632,2.3202,2.3042,2.2279,2.1038,1.9399,1.8625,1.862,1.7931,1.7176,1.6339,1.6339,1.5842,1.5006,1.5006,1.5006,1.5006,1.5006,1.5006,1.4998,1.4871,1.4789,1.4708,1.4565,1.4413,1.4147,1.3957,1.3839,1.3731,1.3855,1.4238,1.4868,1.4584,1.4715,1.5348,1.5213,1.5368,1.582,1.5902,1.6138,1.66,1.6402,1.6026,1.551,1.5038,1.4537,0.0,0.0,0.0,0.0,0.0,0.0,0.0,0.0,0.0,0.0,0.0,1.5742,1.5097,1.4206,1.461,1.6944,1.6252,1.5935,1.6561,1.7182,1.7221,1.6282,1.6916,1.7145,1.6552,1.6289,1.6164,1.6164,1.6139,1.6013,1.5749,1.6145,1.6422,1.6387,1.6574,1.6797,1.6797,1.6797,1.6892,1.7068,1.7112,1.7112,1.712,1.7185,1.7246,1.72,1.7331,1.7407,1.7389,1.7382,1.7382,1.7335,1.7311,1.7187,1.7187,1.7187,1.7347,1.7641,1.7716,1.7716,2.4092,2.2622,2.2622,2.246,2.233,2.3225,2.3692,2.3743,2.2011,2.1096,2.0819,2.0269,2.0046,1.9938,1.8365,1.7553,1.732,1.592,1.5212,1.508,1.5041,1.5025,1.5039,1.5,1.5031,1.5006,1.5006,1.5006,1.5006,1.5006,1.4895,1.4749,1.4741,1.4578,1.4298,1.4282,1.4131,1.3904,1.3904,1.3904,1.3896,1.3555,1.3329,1.3166,1.2921,1.3229,1.4135,1.4274,1.4768,1.5666,1.5758,1.5612,1.523,1.4782,1.4435,0.0,1.3676,0.0,0.0,0.0,0.0,0.0,0.0,0.0,0.0,1.4208,1.522,1.7008,1.5687,1.5573,1.7542,1.6566,1.591,1.6037,1.5834,1.5712,1.5734,1.5824,1.5965,1.6054,1.5905,1.5816,1.5772,1.5661,1.5616,1.5484,1.566,1.5697,1.5572,1.5961,1.6313,1.6313,1.6313,1.6401,1.6761,1.6892,1.6857,1.6941,1.7,1.714,1.6878,1.6979,1.7042,1.6769,1.6759,1.672,1.6673,1.672,1.6713,1.6744,1.6744,1.694,1.7481,1.7672,1.7764,2.2923,2.2622,2.2622,2.2557,2.245,2.1035,2.1055,2.1987,2.1616,2.1343,2.1015,1.9434,1.8746,1.8626,1.6954,1.6107,1.59,1.577,1.5577,1.5415,1.5415,1.5333,1.5148,1.5148,1.5106,1.5015,1.5006,1.5006,1.5006,1.5006,1.499,1.4958,1.4958,1.4814,1.4619,0.0,0.0,0.0,1.3904,1.3904,1.3888,1.3555,1.3352,1.3345,1.2898,0.0,1.2932,1.2958,1.3069,1.3265,1.3395,0.0,0.0,0.0,0.0,0.0,0.0,0.0,0.0,0.0,0.0,0.0,1.4701,1.4122,1.3577,1.4366,1.5055,1.529,1.5171,1.5287,1.5701,1.5587,1.556,1.5725,1.5734,1.5757,1.5846,1.5898,1.5921,1.595,1.5569,1.5273,1.521,1.5146,1.5006,1.4704,1.5227,1.5352,1.4659,1.5315,1.5793,1.5837,1.5837,1.5881,1.5969,1.602,1.6118,1.6091,1.6151,1.6258,1.646,1.6505,1.6587,1.6597,1.6673,1.6673,1.6673,1.6673,1.6627,1.6673,1.6673,1.6759,1.6924,1.6916,1.7056,2.0732,1.9907,1.9864,1.9873,0.0,1.8773,1.8696,1.9175,1.9104,1.8985,1.8695,1.7683,1.7196,1.7156,1.631,1.5813,1.565,1.5731,1.5683,1.548,1.5273,1.5225,1.5335,1.4853,1.4805,1.5059,1.4585,1.4584,1.4968,1.4776,1.4814,1.4968,1.4814,1.4619,1.4406,1.4131,1.3993,1.4042,1.3945,1.3904,1.3888,1.3644,1.3417,1.323,1.3003,0.0,0.0,0.0,0.0,0.0,0.0,0.0,0.0,0.0,0.0,1.3118,1.3552,1.4041,1.4501,1.4507,1.4585,1.4893,1.4853,1.4579,1.3927,1.4557,1.4999,1.5082,1.523,1.5369,1.5451,1.5308,1.5257,1.5337,1.5175,1.5091,1.526,1.531,1.5338,1.5416,1.5241,1.5042,1.4889,1.4875,1.4744,1.4466,1.4808,1.4935,1.4572,1.496,1.5352,1.5396,1.5572,1.5734,1.5772,1.5787,1.5839,1.5987,1.6099,1.6119,1.609,1.6139,1.6126,1.6011,1.5978,1.5978,1.5978,1.5978,1.5978,1.5978,1.5931,1.5978,1.5978,1.6353,1.6774,1.8488,1.7112,1.7112,1.7112,1.7112,1.7112,1.6987,1.6841,1.6674,0.0,0.0,1.617,1.6056,1.6047,1.6015,1.5926,1.5821,1.578,1.5618,1.5449,1.5,1.4985,1.5273,1.4504,1.442,1.4963,1.4205,1.416,1.4785,1.4508,1.4492,1.4707,1.4469,1.4207,1.3991,1.3529,1.3527,1.405,1.3874,1.3762,1.373,1.3527,1.3287,1.2994,1.2922,1.269,1.2283,1.2127,1.1955,1.1793,1.161,1.1663,1.2032,1.2072,1.2439,1.3119,1.3237,1.346,1.381,1.3909,1.3974,1.4099,1.468,1.4911,1.4601,1.4796,1.5034,1.53,1.5278,1.525,1.5425,1.5131,1.4866,1.4866,1.4513,1.4407,1.4606,1.4654,1.4772,1.4869,1.4935,1.4869,1.4706,1.4706,1.4633,1.455,1.4547,1.4516,1.454,1.4726,1.493,1.501,1.5225,1.5505,1.5637,1.5636,1.5792,1.5847,1.6024,1.6027,1.5753,1.5706,1.5596,1.5368,1.5181,1.5228,1.5228,1.5275,1.5181,1.5181,1.5181,1.5181,1.5275,1.5838,1.64,1.7367,1.7112,1.7112,1.7112,1.7112,1.7112,1.7096,1.7047,1.673,1.6568,1.6527,1.6349,1.6267,1.6259,1.6072,1.5991,1.5925,1.5638,1.5416,1.5393,1.4934,1.4702,1.4655,1.4503,1.4421,1.4318,1.4209,1.4127,1.414,1.4206,1.4138,1.3944,1.4003,1.3949,1.3784,1.3581,1.3521,1.3567,1.3379,1.3258,1.3115,1.2913,1.274,1.2587,1.2316,1.2101,1.2033,1.2108,1.2149,1.2134,1.2459,1.2666,1.2607,1.2859,1.3059,1.3222,1.3475,1.3839,1.426,1.4119,1.4027,1.4093,1.429,1.4674,1.5217,1.5097,1.5001,1.5044,1.4692,1.4448,1.4476,1.4476,1.4431,1.4431,1.4343,1.4367,1.4536,1.4557,1.457,1.4597,1.4692,1.4726,1.4597,1.4626,1.4647,1.4557,1.4529,1.4523,1.4536,1.454,1.4626,1.4715,1.4698,1.4737,1.4944,1.4888,1.5041,1.5147,1.5234,1.5343,1.5333,1.5341,1.5321,1.5228,1.5181,1.5181,1.5181,1.5181,1.5181,1.5181,1.5181,1.5181,1.5181,1.5415,1.561,1.7112,1.7112,1.7112,1.7112,1.7112,1.7112,1.698,1.6701,1.6542,1.6596,1.6663,1.6185,1.5973,1.5915,1.55,1.5298,1.5298,1.5133,1.5051,1.501,1.4555,1.4477,1.4568,1.4071,1.3991,1.4323,1.3792,1.3713,1.4052,1.3952,1.3872,1.3847,1.3637,1.3353,1.3042,1.301,1.2974,1.2967,1.3116,1.3141,1.3006,1.2977,1.2866,1.2613,1.2511,1.2444,1.2363,1.2219,1.2229,1.2395,1.2466,1.2517,1.2707,1.2848,1.3035,1.3205,1.3424,1.3646,1.3942,1.4013,1.4107,1.417,1.4258,1.4448,1.4768,1.4699,1.4601,1.4601,1.4431,1.4299,1.4299,1.4299,1.4299,1.4299,1.4299,1.436,1.4496,1.4545,1.4559,1.4557,1.4794,1.4855,1.455,1.4719,1.4767,1.457,1.457,1.4613,1.474,1.4753,1.4746,1.4694,1.464,1.4706,1.4828,1.4862,1.4896,1.4964,1.5038,1.5072,1.5139,1.5166,1.5174,1.5181,1.5181,1.5181,1.5181,1.5181,1.5181,1.5181,1.5181,1.5181,1.5181,1.5181,1.5368,1.7112,1.7112,1.6972,1.6892,1.6805,1.6761,1.6577,1.6269,1.6269,1.6375,1.6443,1.5887,1.5613,1.5516,1.4972,1.475,1.4679,1.4589,1.4597,1.4514,1.4149,1.4101,1.4293,1.3603,1.3595,1.4119,1.3436,1.3407,1.3887,1.3675,1.3636,1.3695,1.3255,1.2845,1.2501,1.2501,1.2501,1.2526,1.2885,1.2984,1.2831,1.2947,1.2867,1.2612,1.2656,1.267,1.2561,1.2293,1.2295,1.2555,1.2385,1.2386,1.2752,1.2813,1.2949,1.32,1.337,1.3532,1.3722,1.3973,1.4177,1.4285,1.4299,1.4299,1.4299,1.4299,1.4299,1.4299,1.4299,1.4299,1.4299,1.4299,1.4299,1.4299,1.4299,1.436,1.4496,1.4545,1.4572,1.4563,1.4821,1.4875,1.4658,1.4746,1.4794,1.459,1.4572,1.4746,1.4882,1.4916,1.4869,1.4821,1.4721,1.4794,1.4936,1.493,1.4909,1.4923,1.4997,1.5018,1.4997,1.5072,1.5147,1.5167,1.5181,1.5181,1.5181,1.5181,1.5181,1.5181,1.5181,1.5181,1.5181,1.5181,1.5275,1.7068,1.7024,1.6621,1.6225,1.5881,1.5837,1.5837,1.5749,1.5749,1.5793,1.574,1.5532,1.5324,1.5225,1.4977,1.4779,1.4653,1.4315,1.4156,1.4115,1.3694,1.3486,1.3562,1.3424,1.3424,1.3542,1.339,1.335,1.337,1.3398,1.3288,1.3076,1.2865,1.2676,1.2522,1.2501,1.2501,1.2501,1.2551,1.2508,1.2371,1.2378,1.234,1.2138,1.2182,1.2182,1.2219,1.2231,1.2374,1.2492,1.2589,1.2752,1.2929,1.3105,1.3207,1.337,1.3526,1.3729,1.4,1.4183,1.4278,1.4299,1.4299,1.4299,1.4299,1.4299,1.4299,1.4299,1.4299,1.4299,1.4299,1.4299,1.4299,1.4299,1.4299,1.436,1.4462,1.4407,1.438,1.4502,1.4584,1.455,1.4536,1.4638,1.4679,1.4543,1.4536,1.4618,1.4753,1.4787,1.4821,1.4875,1.4835,1.4808,1.4903,1.4848,1.4787,1.4774,1.4735,1.4848,1.493,1.4984,1.5031,1.5167,1.5181,1.5181,1.5181,1.5181,1.5181,1.5181,1.5181,1.5181,1.5181,1.5181,1.5275,1.6277,1.6277,1.6049,1.5881,1.5704,1.5704,1.5528,1.5308,1.53,1.5131,1.4866,1.4759,1.4821,1.4923,1.4465,1.4224,1.4161,1.3999,1.3866,1.3797,1.3581,1.345,1.3403,1.3397,1.3397,1.3397,1.3397,1.337,1.3308,1.3322,1.3241,1.3111,1.2847,1.2659,1.263,1.2549,1.2501,1.2501,1.2501,1.2474,1.2427,1.242,1.2345,1.2261,1.2277,1.2366,1.2447,1.2522,1.2657,1.2881,1.2963,1.3064,1.3214,1.3275,1.3376,1.3532,1.3763,1.3987,1.419,1.4265,1.4299,1.4299,1.4299,1.4299,1.4299,1.4299,1.4299,1.4299,1.4299,1.4299,1.4299,1.4299,1.4299,1.4299,1.4299,1.4326,1.4373,1.4407,1.4428,1.4407,1.4543,1.4518,1.4441,1.4441,1.4489,1.4496,1.4509,1.4563,1.466,1.4694,1.4721,1.4794,1.4706,1.4679,1.4787,1.4741,1.466,1.4658,1.4767,1.4903,1.4848,1.5011,1.512,1.5174,1.5181,1.5181,1.5181,1.5181,1.5181,1.5181,1.5181,1.5181,1.5181,1.5181,1.5181,1.5704,1.566,1.5572,1.544,1.5315,1.5315,1.5131,1.4822,1.4822,1.4608,1.4343,1.4299,1.4421,1.4566,1.4103,1.3842,1.3802,1.3795,1.372,1.3641,1.3627,1.3504,1.341,1.3397,1.3397,1.3397,1.3397,1.3397,1.339,1.3295,1.3254,1.3186,1.2956,1.2834,1.2786,1.2678,1.263,1.263,1.263,1.263,1.263,1.263,1.2562,1.2433,1.2508,1.2637,1.2786,1.2793,1.2908,1.3193,1.3214,1.3241,1.339,1.3437,1.3546,1.3743,1.3994,1.4177,1.4292,1.4299,1.4299,1.4299,1.4299,1.4299,1.4299,1.4299,1.4299,1.4299,1.4299,1.4299,1.4299,1.4299,1.4299,1.4299,1.4299,1.4312,1.4367,1.4428,1.4421,1.4387,1.4496,1.4505,1.4353,1.4312,1.4353,1.4428,1.4448,1.4509,1.4579,1.4593,1.4572,1.4613,1.455,1.4529,1.4593,1.4572,1.4525,1.4552,1.4706,1.478,1.4753,1.4977,1.512,1.5086,1.514,1.5181,1.5181,1.5181,1.5181,1.5181,1.5181,1.5181,1.5181,1.5181,1.5181,1.5704,1.5616,1.5219,1.4778,1.4387,1.4387,1.4387,1.4387,1.4343,1.4343,1.4299,1.4299,1.4336,1.4316,1.4166,1.3987,1.3822,1.3822,1.3747,1.3619,1.3599,1.3553,1.3403,1.3397,1.3397,1.3397,1.3397,1.3397,1.3397,1.339,1.3356,1.322,1.3186,1.3078,1.3009,1.2962,1.2975,1.2948,1.2948,1.2962,1.2969,1.2969,1.2854,1.2725,1.2679,1.2793,1.2969,1.2989,1.3064,1.3173,1.3227,1.3288,1.3397,1.3546,1.3756,1.4057,1.419,1.4285,1.4292,1.4299,1.4299,1.4299,1.4299,1.4299,1.4299,1.4299,1.4299,1.4299,1.4299,1.4299,1.4299,1.4299,1.4299,1.4299,1.4299,1.4353,1.4475,1.4387,1.4387,1.4434,1.4407,1.4353,1.4306,1.4299,1.4306,1.4319,1.4319,1.4367,1.4468,1.4421,1.4414,1.4468,1.4428,1.436,1.4475,1.4502,1.4455,1.4516,1.4572,1.4631,1.4746,1.4862,1.4943,1.5025,1.5166,1.5221,1.5181,1.5181,1.5181,1.5181,1.5181,1.5181,1.5181,1.5181,1.5181,1.4829,1.4785,1.4608,1.4476,1.4299,1.4299,1.4299,1.4299,1.4299,1.4299,1.4299,1.4299,1.4299,1.4299,1.4245,1.419,1.4136,1.4136,1.4055,1.3912,1.381,1.3646,1.3546,1.3451,1.3397,1.3397,1.3397,1.3397,1.3397,1.3397,1.3376,1.3308,1.3261,1.3186,1.3132,1.3043,1.3003,1.3003,1.3003,1.3003,1.3009,1.3003,1.3009,1.3003,1.2922,1.2989,1.3132,1.3139,1.3207,1.3308,1.3315,1.339,1.3546,1.3783,1.3953,1.4112,1.4211,1.4299,1.4299,1.4299,1.4299,1.4299,1.4299,1.4299,1.4299,1.4299,1.4299,1.4299,1.4299,1.4299,1.4299,1.4299,1.4299,1.4299,1.4299,1.4319,1.4373,1.4407,1.4428,1.438,1.4326,1.4299,1.4299,1.4299,1.4299,1.4299,1.4299,1.4326,1.4353,1.4326,1.4326,1.4353,1.434,1.4353,1.4489,1.4482,1.4482,1.4552,1.4647,1.476,1.4862,1.4916,1.5044,1.5112,1.5187,1.5221,1.5181,1.5181,1.5181,1.5181,1.5181,1.5181,1.5181,1.5181,1.5181,1.4299,1.4299,1.4299,1.4299,1.4299,1.4299,1.4299,1.4299,1.4299,1.4299,1.4299,1.4299,1.4299,1.4299,1.4299,1.4299,1.4299,1.4292,1.4217,1.4075,1.396,1.3795,1.3653,1.3546,1.3471,1.3464,1.3417,1.3397,1.3397,1.3397,1.3397,1.339,1.3336,1.3247,1.3227,1.3146,1.3105,1.3105,1.3146,1.3105,1.3146,1.3146,1.3186,1.3214,1.3152,1.3186,1.3241,1.3247,1.3288,1.339,1.3444,1.3566,1.377,1.396,1.4095,1.415,1.4238,1.4299,1.4299,1.4299,1.4299,1.4299,1.4299,1.4299,1.4299,1.4299,1.4299,1.4299,1.4299,1.4299,1.4299,1.4299,1.4299,1.4299,1.4299,1.4299,1.4306,1.4387,1.4387,1.4326,1.4306,1.4299,1.4299,1.4299,1.4299,1.4299,1.4299,1.4299,1.4299,1.4299,1.4299,1.4299,1.4306,1.4401,1.4536,1.459,1.4638,1.4746,1.4794,1.4875,1.4936,1.5037,1.5078,1.5146,1.5194,1.5167,1.5181,1.5181,1.5181,1.5181,1.5181,1.5181,1.5181,1.5181,1.5181,1.4299,1.4299,1.4299,1.4299,1.4299,1.4299,1.4299,1.4299,1.4299,1.4299,1.4299,1.4299,1.4299,1.4299,1.4299,1.4299,1.4299,1.4299,1.4231,1.4102,1.4068,1.398,1.3795,1.3653,1.3585,1.362,1.3478,1.341,1.3424,1.341,1.3397,1.3397,1.339,1.337,1.3397,1.3363,1.337,1.3363,1.3356,1.337,1.3397,1.3363,1.337,1.3397,1.339,1.3397,1.341,1.341,1.341,1.3431,1.3553,1.3763,1.3994,1.4075,1.4143,1.4258,1.4299,1.4299,1.4299,1.4299,1.4299,1.4299,1.4299,1.4299,1.4299,1.4299,1.4299,1.4299,1.4299,1.4299,1.4299,1.4299,1.4299,1.4299,1.4299,1.4299,1.4299,1.4299,1.4306,1.4312,1.4312,1.4299,1.4299,1.4299,1.4299,1.4299,1.4299,1.4299,1.4299,1.4299,1.4299,1.4299,1.4306,1.4387,1.457,1.474,1.4821,1.4903,1.4962,1.5003,1.5044,1.5091,1.5098,1.5153,1.52,1.5174,1.5181,1.5181,1.5181,1.5181,1.5181,1.5181,1.5181,1.5181,1.5181,1.4299,1.4299,1.4299,1.4299,1.4299,1.4299,1.4299,1.4299,1.4299,1.4299,1.4299,1.4299,1.4299,1.4299,1.4299,1.4299,1.4299,1.4299,1.4272,1.4217,1.4122,1.4098,1.398,1.3844,1.3734,1.3707,1.3585,1.3559,1.3497,1.3451,1.3397,1.3397,1.3397,1.3397,1.3403,1.3397,1.3397,1.3397,1.3397,1.3397,1.3397,1.3403,1.3451,1.3504,1.3518,1.36,1.3653,1.3572,1.3559,1.3518,1.3653,1.3865,1.4091,1.417,1.4251,1.4292,1.4299,1.4299,1.4299,1.4299,1.4299,1.4299,1.4299,1.4299,1.4299,1.4299,1.4299,1.4299,1.4299,1.4299,1.4299,1.4299,1.4299,1.4299,1.4299,1.4299,1.4299,1.4299,1.4346,1.4414,1.436,1.4306,1.4299,1.4299,1.4299,1.4299,1.4299,1.4299,1.4299,1.4299,1.4299,1.4299,1.4326,1.436,1.4529,1.4599,1.4713,1.4841,1.4916,1.503,1.5078,1.5126,1.5132,1.5153,1.52,1.5221,1.5181,1.5181,1.5181,1.5181,1.5181,1.5181,1.5181,1.5181,1.5181,1.4299,1.4299,1.4299,1.4299,1.4299,1.4299,1.4299,1.4299,1.4299,1.4299,1.4299,1.4299,1.4299,1.4299,1.4299,1.4299,1.4299,1.4299,1.4299,1.4285,1.4211,1.4156,1.4136,1.4,1.3885,1.3774,1.3653,1.3634,1.3578,1.3478,1.3397,1.3397,1.3397,1.3431,1.3478,1.3485,1.3485,1.3485,1.3492,1.3485,1.3485,1.3485,1.3518,1.3639,1.3666,1.3714,1.3788,1.3804,1.377,1.3707,1.3808,1.3994,1.4187,1.4245,1.4299,1.4299,1.4299,1.4299,1.4299,1.4299,1.4299,1.4299,1.4299,1.4299,1.4299,1.4299,1.4299,1.4299,1.4299,1.4299,1.4299,1.4299,1.4299,1.4299,1.4299,1.4299,1.4299,1.4299,1.4326,1.438,1.4346,1.4306,1.4299,1.4299,1.4299,1.4299,1.4299,1.4299,1.4299,1.4299,1.4299,1.4299,1.4306,1.4373,1.4482,1.455,1.4545,1.4733,1.4882,1.4957,1.5078,1.5086,1.5113,1.514,1.5174,1.5174,1.5181,1.5181,1.5181,1.5181,1.5181,1.5181,1.5181,1.5181,1.5181,1.4299,1.4299,1.4299,1.4299,1.4299,1.4299,1.4299,1.4299,1.4299,1.4299,1.4299,1.4299,1.4299,1.4299,1.4299,1.4299,1.4299,1.4299,1.4299,1.4299,1.4278,1.4278,1.4251,1.4143,1.4027,1.3856,1.3756,1.3626,1.3619,1.3512,1.341,1.3431,1.3444,1.3498,1.3572,1.3599,1.3592,1.3641,1.3599,1.3599,1.3599,1.3599,1.3666,1.3802,1.3851,1.3871,1.3876,1.4007,1.4007,1.3869,1.4014,1.4143,1.4265,1.4299,1.4299,1.4299,1.4299,1.4299,1.4299,1.4299,1.4299,1.4299,1.4299,1.4299,1.4299,1.4299,1.4299,1.4299,1.4299,1.4299,1.4299,1.4299,1.4299,1.4299,1.4299,1.4306,1.4312,1.4312,1.4326,1.4333,1.4312,1.4306,1.4319,1.4319,1.4306,1.4326,1.4319,1.4299,1.4299,1.4299,1.4299,1.4299,1.4299,1.434,1.4428,1.4441,1.4475,1.455,1.4733,1.4869,1.5004,1.5086,1.5147,1.5167,1.5181,1.5181,1.5181,1.5181,1.5181,1.5181,1.5181,1.5181,1.5181,1.5181,1.5181,1.4299,1.4299,1.4299,1.4299,1.4299,1.4299,1.4299,1.4299,1.4299,1.4299,1.4299,1.4299,1.4299,1.4299,1.4299,1.4299,1.4299,1.4299,1.4299,1.4299,1.4299,1.4299,1.4299,1.4265,1.4211,1.4143,1.4,1.3892,1.3734,1.3592,1.3531,1.3573,1.3531,1.3641,1.372,1.3741,1.3741,1.3741,1.3741,1.3741,1.3741,1.3741,1.3858,1.3994,1.4007,1.4068,1.4163,1.4217,1.4231,1.419,1.4211,1.4258,1.4292,1.4299,1.4299,1.4299,1.4299,1.4299,1.4299,1.4299,1.4299,1.4299,1.4299,1.4299,1.4299,1.4299,1.4299,1.4299,1.4299,1.4299,1.4299,1.4299,1.4299,1.4299,1.4299,1.434,1.4407,1.4367,1.4333,1.4421,1.4367,1.4367,1.4414,1.4387,1.436,1.4407,1.4373,1.4299,1.4306,1.4299,1.4299,1.4299,1.4299,1.4312,1.434,1.4346,1.4367,1.4387,1.4536,1.474,1.4909,1.5086,1.514,1.5181,1.5181,1.5181,1.5181,1.5181,1.5181,1.5181,1.5181,1.5181,1.5181,1.5181,1.5181,1.4299,1.4299,1.4299,1.4299,1.4299,1.4299,1.4299,1.4299,1.4299,1.4299,1.4299,1.4299,1.4299,1.4299,1.4299,1.4299,1.4299,1.4299,1.4299,1.4299,1.4299,1.4299,1.4299,1.4299,1.4299,1.4278,1.415,1.4027,1.3926,1.3747,1.368,1.3673,1.3673,1.3754,1.3926,1.3939,1.3939,1.3939,1.3939,1.3939,1.3939,1.3939,1.4021,1.4136,1.417,1.4217,1.4292,1.4299,1.4299,1.4299,1.4299,1.4299,1.4299,1.4299,1.4299,1.4299,1.4299,1.4299,1.4299,1.4299,1.4299,1.4299,1.4299,1.4299,1.4299,1.4299,1.4299,1.4299,1.4299,1.4299,1.4299,1.4299,1.4299,1.4299,1.4299,1.436,1.4496,1.4441,1.4468,1.4523,1.4496,1.4448,1.4584,1.4523,1.4502,1.4496,1.4448,1.4373,1.4319,1.4306,1.4299,1.4299,1.4299,1.4306,1.4312,1.4319,1.4326,1.434,1.4516,1.4685,1.4855,1.5065,1.5133,1.5174,1.5181,1.5181,1.5181,1.5181,1.5181,1.5181,1.5181,1.5181,1.5181,1.5181,1.5181,1.4299,1.4299,1.4299,1.4299,1.4299,1.4299,1.4299,1.4299,1.4299,1.4299,1.4299,1.4299,1.4299,1.4299,1.4299,1.4299,1.4299,1.4299,1.4299,1.4299,1.4299,1.4299,1.4299,1.4299,1.4299,1.4285,1.4156,1.4139,1.4027,1.3919,1.3829,1.3822,1.3865,1.3953,1.4068,1.4095,1.4139,1.4139,1.4095,1.4095,1.4095,1.4095,1.4156,1.4245,1.4272,1.4278,1.4299,1.4299,1.4299,1.4299,1.4299,1.4299,1.4299,1.4299,1.4299,1.4299,1.4299,1.4299,1.4299,1.4299,1.4299,1.4299,1.4299,1.4299,1.4299,1.4299,1.4299,1.4299,1.4299,1.4312,1.4333,1.4319,1.4319,1.434,1.4346,1.4414,1.4475,1.4516,1.4577,1.4681,1.4624,1.4579,1.466,1.4694,1.4654,1.4665,1.457,1.4441,1.4367,1.4333,1.4312,1.4299,1.4299,1.4299,1.4299,1.4299,1.4306,1.4326,1.4563,1.4746,1.4855,1.5011,1.5113,1.516,1.5153,1.516,1.5181,1.5181,1.5181,1.5181,1.5181,1.5181,1.5181,1.5181,1.5181,1.4299,1.4299,1.4299,1.4299,1.4299,1.4299,1.4299,1.4299,1.4299,1.4299,1.4299,1.4299,1.4299,1.4299,1.4299,1.4299,1.4299,1.4299,1.4299,1.4299,1.4299,1.4299,1.4299,1.4299,1.4299,1.4285,1.4272,1.4234,1.4089,1.4055,1.4021,1.4021,1.4034,1.4095,1.4217,1.4231,1.4251,1.4251,1.4245,1.4238,1.4275,1.4238,1.4251,1.4299,1.4299,1.4299,1.4299,1.4299,1.4299,1.4299,1.4299,1.4299,1.4299,1.4299,1.4299,1.4299,1.4299,1.4299,1.4299,1.4299,1.4299,1.4299,1.4299,1.4299,1.4299,1.4299,1.4299,1.4299,1.4299,1.4346,1.4407,1.4353,1.4353,1.4421,1.4484,1.4539,1.4536,1.4523,1.4658,1.4801,1.4787,1.4746,1.4889,1.4769,1.4794,1.4814,1.4699,1.4529,1.4441,1.4367,1.4333,1.4312,1.434,1.434,1.4299,1.4306,1.4319,1.4373,1.459,1.4694,1.4848,1.5004,1.512,1.514,1.512,1.514,1.5181,1.5181,1.5181,1.5181,1.5181,1.5181,1.5181,1.5181,1.5181,1.4299,1.4299,1.4299,1.4299,1.4299,1.4299,1.4299,1.4299,1.4299,1.4299,1.4299,1.4299,1.4299,1.4299,1.4299,1.4299,1.4299,1.4299,1.4299,1.4299,1.4299,1.4299,1.4299,1.4299,1.4299,1.4299,1.4299,1.4245,1.4197,1.4177,1.4177,1.4177,1.4177,1.4211,1.4285,1.4299,1.4292,1.4292,1.4299,1.4299,1.4299,1.4299,1.4299,1.4299,1.4299,1.4299,1.4299,1.4299,1.4299,1.4299,1.4299,1.4299,1.4299,1.4299,1.4299,1.4299,1.4299,1.4299,1.4299,1.4299,1.4299,1.4299,1.4299,1.4299,1.4299,1.4299,1.4299,1.4299,1.4306,1.4333,1.4401,1.436,1.436,1.4407,1.455,1.4618,1.4586,1.4679,1.4774,1.4923,1.4896,1.4936,1.4964,1.4909,1.4896,1.4962,1.4787,1.4624,1.4502,1.4434,1.4367,1.4353,1.4387,1.438,1.4319,1.4312,1.4346,1.4441,1.4604,1.466,1.4735,1.4964,1.5153,1.514,1.512,1.5153,1.5181,1.5181,1.5181,1.5181,1.5181,1.5181,1.5181,1.5181,1.5181,1.4299,1.4299,1.4299,1.4299,1.4299,1.4299,1.4299,1.4299,1.4299,1.4299,1.4299,1.4299,1.4299,1.4299,1.4299,1.4299,1.4299,1.4299,1.4299,1.4299,1.4299,1.4299,1.4299,1.4299,1.4299,1.4299,1.4299,1.4285,1.4285,1.4299,1.4272,1.4292,1.4292,1.4285,1.4292,1.4299,1.4299,1.4299,1.4299,1.4299,1.4299,1.4299,1.4299,1.4299,1.4299,1.4299,1.4299,1.4299,1.4299,1.4299,1.4299,1.4299,1.4299,1.4299,1.4299,1.4299,1.4299,1.4299,1.4299,1.4299,1.4299,1.4299,1.4299,1.4299,1.4299,1.4299,1.4299,1.4312,1.4326,1.4373,1.4367,1.4407,1.4414,1.4455,1.4536,1.4624,1.4687,1.4889,1.4991,1.5044,1.5017,1.4984,1.5045,1.5038,1.5025,1.503,1.4855,1.4694,1.4624,1.4509,1.4441,1.4373,1.4394,1.4373,1.4312,1.4312,1.4346,1.4428,1.459,1.4606,1.466,1.4841,1.4997,1.5113,1.5133,1.5153,1.5174,1.5181,1.5181,1.5181,1.5181,1.5181,1.5181,1.5181,1.5181,1.4299,1.4299,1.4299,1.4299,1.4299,1.4299,1.4299,1.4299,1.4299,1.4299,1.4299,1.4299,1.4299,1.4299,1.4299,1.4299,1.4299,1.4299,1.4299,1.4299,1.4299,1.4299,1.4299,1.4299,1.4299,1.4299,1.4299,1.4299,1.4299,1.4299,1.4299,1.4299,1.4299,1.4299,1.4299,1.4299,1.4299,1.421,1.4122,1.3989,1.3989,1.3805,1.3717,1.3717,1.3628,1.3717,1.4033,1.4166,1.4299,1.4299,1.4299,1.4299,1.4299,1.4299,1.4299,1.4299,1.4299,1.4299,1.4299,1.4299,1.4299,1.4299,1.4299,1.4299,1.4299,1.4306,1.4326,1.4346,1.4414,1.4509,1.4613,1.4618,1.4713,1.4801,1.4828,1.4828,1.4775,1.4957,1.5166,1.516,1.5091,1.5044,1.5059,1.5099,1.5065,1.5071,1.4943,1.4882,1.4828,1.4672,1.4529,1.4455,1.438,1.4346,1.4299,1.4312,1.434,1.438,1.4496,1.457,1.4631,1.4706,1.4821,1.4957,1.5065,1.5113,1.514,1.5147,1.5147,1.512,1.5147,1.5174,1.5181,1.5181,1.5181,1.4299,1.4299,1.4299,1.4299,1.4299,1.4299,1.4299,1.4299,1.4299,1.4299,1.4299,1.4299,1.4299,1.4299,1.4299,1.4299,1.421,1.4299,1.4299,1.4299,1.4299,1.4299,1.4255,1.4255,1.4299,1.4299,1.4299,1.4299,1.4299,1.4299,1.4299,1.4299,1.4299,1.4299,1.4299,1.4299,1.4299,1.4166,1.3451,1.2869,1.2692,1.2065,1.1438,1.1394,1.1438,1.1349,1.1533,1.2514,1.2736,1.2958,1.3761,1.421,1.4255,1.4299,1.4299,1.4255,1.4299,1.4299,1.4299,1.4299,1.4299,1.4299,1.4299,1.4299,1.4319,1.436,1.4387,1.4421,1.4441,1.4536,1.4597,1.4654,1.4728,1.4841,1.4923,1.4936,1.493,1.5072,1.514,1.5181,1.5133,1.5092,1.5099,1.5113,1.5092,1.5052,1.5004,1.5037,1.503,1.4821,1.4631,1.4482,1.4401,1.4353,1.4319,1.4333,1.434,1.4373,1.4407,1.4489,1.457,1.4645,1.4726,1.4828,1.493,1.4964,1.5011,1.4991,1.5025,1.5059,1.5052,1.5065,1.5147,1.5181,1.5167,1.4299,1.4299,1.4299,1.4299,1.4299,1.4299,1.4299,1.4299,1.4299,1.4033,1.3717,1.3628,1.3363,1.3179,1.3046,1.3046,1.3135,1.3002,1.3091,1.3401,1.2958,1.3091,1.3628,1.3717,1.354,1.3401,1.421,1.4299,1.4299,1.4299,1.4299,1.4299,1.4299,1.4299,1.4299,1.4299,1.4299,1.3805,1.2913,1.1976,1.1083,0.9655,0.8587,0.8587,0.8587,0.881,0.921,1.0145,1.0772,1.1349,1.2376,1.3407,1.3318,1.3901,1.4078,1.385,1.4033,1.4255,1.4299,1.4299,1.4299,1.4299,1.4299,1.4299,1.4312,1.4373,1.4441,1.4475,1.455,1.4525,1.4579,1.4694,1.4782,1.4875,1.4964,1.5064,1.5038,1.5106,1.516,1.5181,1.5181,1.5147,1.5106,1.5004,1.4957,1.5078,1.4991,1.5045,1.5064,1.4903,1.4726,1.4523,1.4414,1.4373,1.4353,1.436,1.436,1.4367,1.4387,1.4428,1.4509,1.4552,1.4652,1.4672,1.4631,1.4672,1.4753,1.4848,1.4882,1.4903,1.4916,1.501,1.5052,1.5153,1.516,1.4299,1.4299,1.4299,1.4299,1.421,1.4166,1.421,1.4078,1.3989,1.3268,1.1754,1.166,1.0905,0.9967,0.9611,0.9477,0.9522,0.9878,1.0639,1.1438,1.055,1.0639,1.1571,1.1705,1.1754,1.1932,1.3224,1.421,1.385,1.3805,1.4166,1.4078,1.3761,1.421,1.3894,1.385,1.4299,1.421,1.3901,1.2781,1.095,0.9121,0.8364,0.8275,0.823,0.8097,0.7963,0.8542,0.8899,0.9166,1.0728,1.0816,1.0145,1.2642,1.2913,1.2825,1.3135,1.4299,1.4299,1.4299,1.4299,1.4299,1.4299,1.4299,1.436,1.4373,1.4401,1.4333,1.4505,1.4654,1.4714,1.4957,1.5079,1.5099,1.5099,1.5133,1.5153,1.5126,1.5174,1.5181,1.5181,1.5113,1.5052,1.4923,1.4775,1.4916,1.5044,1.5098,1.5059,1.4943,1.4841,1.4652,1.4557,1.4516,1.4468,1.4462,1.4414,1.4401,1.4367,1.4373,1.4421,1.4475,1.4475,1.4475,1.4434,1.4468,1.4604,1.4699,1.4687,1.4708,1.4767,1.4855,1.501,1.5051,1.5105,1.3312,1.4299,1.4299,1.3628,1.2736,1.2648,1.2021,1.1216,1.1039,1.0594,0.9922,0.9789,0.9299,0.8498,0.8587,0.8631,0.8587,0.8453,0.8943,0.9566,0.8943,0.8988,0.9611,0.9833,0.9833,1.0061,1.055,1.0722,1.1305,1.2198,1.2692,1.2514,1.1749,1.1571,1.2509,1.2692,1.3363,1.3318,1.2154,0.9522,0.7208,0.5912,0.5423,0.5467,0.5512,0.5554,0.5733,0.6538,0.6892,0.7294,0.8765,0.9477,0.9077,1.0105,1.055,1.0234,1.1571,1.3046,1.4078,1.421,1.4306,1.4299,1.4312,1.4373,1.4489,1.4536,1.4584,1.4685,1.4787,1.4855,1.4889,1.5065,1.514,1.5181,1.5181,1.5181,1.5181,1.5181,1.5181,1.5181,1.5174,1.512,1.5079,1.5031,1.4977,1.5025,1.5119,1.5139,1.5086,1.5011,1.4909,1.4801,1.474,1.4713,1.4652,1.4572,1.4523,1.4468,1.434,1.434,1.4319,1.434,1.436,1.4367,1.4353,1.4414,1.4502,1.4516,1.4484,1.4525,1.4611,1.4713,1.4814,1.501,1.5064,1.1976,1.2869,1.2869,1.2021,1.0728,1.0683,0.9972,0.8765,0.8765,0.8409,0.7784,0.7386,0.7118,0.716,0.694,0.6761,0.7029,0.7163,0.7517,0.7651,0.7472,0.7338,0.7695,0.7874,0.7874,0.7918,0.8854,0.9032,0.9166,0.9477,1.0011,1.0594,0.9744,0.9611,1.0323,1.0772,1.1305,1.1976,0.9522,0.6847,0.4574,0.35,0.3188,0.3053,0.2919,0.2919,0.3143,0.4126,0.4975,0.5378,0.685,0.7561,0.7029,0.8141,0.8542,0.8542,0.9655,1.1127,1.2482,1.3344,1.4104,1.4312,1.4306,1.4373,1.4536,1.4606,1.466,1.476,1.4909,1.4983,1.5044,1.5099,1.516,1.5181,1.5181,1.5181,1.5181,1.5181,1.5181,1.5181,1.5181,1.5181,1.5153,1.5167,1.516,1.5167,1.5167,1.5194,1.5099,1.5038,1.4943,1.4841,1.4801,1.4753,1.4665,1.4586,1.4584,1.4516,1.438,1.4312,1.4299,1.4299,1.4319,1.4306,1.4299,1.4326,1.4401,1.436,1.4333,1.4407,1.4482,1.4505,1.4658,1.4828,1.5017,1.0461,0.8988,0.8988,0.8943,0.8765,0.881,0.8676,0.8097,0.8319,0.7338,0.5778,0.4395,0.3814,0.3635,0.3949,0.3859,0.35,0.3321,0.4572,0.4975,0.444,0.4796,0.5423,0.5912,0.5957,0.618,0.694,0.7829,0.8052,0.6624,0.7517,0.8364,0.774,0.8364,0.8899,0.9121,0.9032,0.921,0.7249,0.6135,0.4709,0.3769,0.2919,0.2919,0.2919,0.2919,0.2919,0.3278,0.3456,0.3545,0.4975,0.5333,0.4975,0.6448,0.6892,0.6624,0.7695,0.8899,0.9709,1.19,1.3955,1.4251,1.4142,1.4087,1.4437,1.4516,1.455,1.4665,1.4889,1.503,1.5031,1.5086,1.5167,1.5181,1.5181,1.5181,1.5181,1.5181,1.5181,1.5181,1.5181,1.5181,1.5181,1.5181,1.5181,1.5181,1.514,1.512,1.5139,1.5031,1.4943,1.4862,1.4808,1.4726,1.459,1.4557,1.457,1.4496,1.4367,1.4319,1.4299,1.4299,1.4299,1.4299,1.4299,1.4299,1.4299,1.4306,1.4312,1.4306,1.4353,1.4448,1.4584,1.476,1.4889,0.7472,0.6713,0.5599,0.5781,0.6803,0.6806,0.6135,0.5199,0.5065,0.4753,0.3947,0.3233,0.2919,0.2874,0.2919,0.2919,0.2919,0.2919,0.3456,0.3545,0.3411,0.3411,0.3949,0.4037,0.3992,0.4171,0.4886,0.5109,0.4796,0.444,0.4395,0.4975,0.5423,0.5957,0.6538,0.7651,0.7695,0.685,0.6001,0.5288,0.3902,0.35,0.2919,0.2919,0.2919,0.2919,0.2919,0.2919,0.2919,0.3098,0.368,0.3456,0.3098,0.4753,0.4841,0.444,0.5957,0.6535,0.6936,0.925,1.1236,1.26,1.2768,1.3093,1.3912,1.4595,1.4774,1.4875,1.495,1.5059,1.5113,1.5147,1.5181,1.5181,1.5181,1.5181,1.5181,1.5181,1.5181,1.5181,1.5181,1.5181,1.5181,1.5181,1.5181,1.5174,1.5133,1.5092,1.5065,1.5112,1.4997,1.4964,1.493,1.4835,1.4699,1.4645,1.4545,1.4462,1.4346,1.4319,1.4299,1.4299,1.4299,1.4299,1.4299,1.4299,1.4299,1.4299,1.4299,1.4299,1.4326,1.4373,1.4523,1.4685,1.4801,0.5152,0.4527,0.3052,0.3366,0.4751,0.4706,0.3947,0.2829,0.2604,0.247,0.247,0.2425,0.247,0.247,0.2425,0.2425,0.2335,0.238,0.2425,0.2425,0.2425,0.247,0.2425,0.247,0.2558,0.247,0.2649,0.2874,0.3052,0.2739,0.3053,0.3143,0.2829,0.3812,0.4796,0.5957,0.618,0.5199,0.4753,0.4395,0.3008,0.2919,0.2919,0.2919,0.2919,0.2919,0.2919,0.2919,0.2919,0.2919,0.3008,0.2964,0.2919,0.2919,0.2919,0.3367,0.3949,0.4706,0.5109,0.6873,0.9052,1.0545,1.0785,1.1493,1.2567,1.3553,1.3644,1.3942,1.4447,1.5086,1.506,1.5181,1.5181,1.5181,1.5181,1.5181,1.5181,1.5181,1.5181,1.5181,1.5181,1.5181,1.5147,1.5133,1.5086,1.5113,1.5147,1.5099,1.5098,1.5119,1.5153,1.5086,1.5086,1.497,1.4855,1.474,1.4566,1.4421,1.4326,1.4312,1.4299,1.4299,1.4299,1.4299,1.4299,1.4299,1.4299,1.4299,1.4299,1.4299,1.4319,1.434,1.4401,1.455,1.4706,0.3943,0.2289,0.1706,0.2066,0.2964,0.247,0.229,0.2156,0.1751,0.1571,0.1571,0.1571,0.1571,0.1571,0.1662,0.1707,0.1662,0.1616,0.1616,0.1662,0.1751,0.1571,0.1571,0.1616,0.1751,0.1616,0.1886,0.22,0.22,0.2335,0.2515,0.2649,0.2604,0.2739,0.3008,0.3053,0.3053,0.3053,0.3143,0.3053,0.2964,0.2919,0.2919,0.2919,0.2919,0.2919,0.2919,0.2919,0.2919,0.2919,0.2919,0.2919,0.2919,0.2919,0.2919,0.3008,0.3053,0.3143,0.3234,0.6146,0.7662,0.8525,0.8701,0.9135,0.9451,1.0495,1.1835,1.2026,1.3176,1.4287,1.4785,1.4993,1.4798,1.4845,1.4751,1.5181,1.5181,1.5181,1.5181,1.5181,1.5181,1.5174,1.5126,1.5079,1.5051,1.5064,1.516,1.5146,1.5057,1.5085,1.5119,1.5052,1.5038,1.4916,1.478,1.4746,1.4624,1.4428,1.4312,1.4299,1.4299,1.4299,1.4299,1.4299,1.4299,1.4299,1.4299,1.4299,1.4299,1.4299,1.4299,1.4319,1.4353,1.4455,1.4645,0.2243,0.1662,0.1481,0.1616,0.1886,0.1751,0.1662,0.1662,0.1481,0.1392,0.1392,0.1392,0.1392,0.1392,0.1347,0.1347,0.1347,0.1392,0.1392,0.1392,0.1347,0.1392,0.1392,0.1302,0.1347,0.1436,0.1616,0.1662,0.1662,0.1886,0.22,0.238,0.247,0.2739,0.2874,0.2919,0.2919,0.2919,0.2919,0.2919,0.2919,0.2919,0.2919,0.2919,0.2919,0.2919,0.2919,0.2919,0.2919,0.2919,0.2919,0.2919,0.2919,0.2919,0.2919,0.2919,0.2919,0.2919,0.2881,0.4071,0.4773,0.5852,0.6645,0.7218,0.853,0.9185,0.973,0.9972,1.089,1.1501,1.1035,1.2488,1.294,1.3422,1.3758,1.4845,1.5181,1.5181,1.5181,1.5181,1.5181,1.5181,1.5153,1.4984,1.4889,1.4848,1.4916,1.4903,1.4828,1.4916,1.4984,1.4923,1.4875,1.4774,1.4685,1.4645,1.4563,1.438,1.4306,1.4299,1.4299,1.4299,1.4299,1.4299,1.4299,1.4299,1.4299,1.4299,1.4299,1.4299,1.4299,1.4299,1.4326,1.4468,1.4685,0.1167,0.1122,0.0988,0.0898,0.0943,0.1077,0.1077,0.0943,0.0943,0.0943,0.0898,0.0898,0.0898,0.0898,0.0898,0.0898,0.0943,0.0898,0.0898,0.0898,0.0898,0.0853,0.0853,0.0,0.0808,0.0943,0.1077,0.1167,0.1167,0.1481,0.1616,0.1751,0.2156,0.2335,0.256,0.2739,0.2919,0.2919,0.2919,0.2919,0.2919,0.2919,0.2919,0.2919,0.2919,0.2919,0.2919,0.2919,0.2919,0.2919,0.2919,0.2919,0.2919,0.2919,0.2919,0.2919,0.2919,0.2829,0.2656,0.2751,0.3529,0.4069,0.4508,0.5324,0.6687,0.7176,0.7631,0.7962,0.8416,0.8865,0.9254,1.0785,1.1333,1.1815,1.2952,1.3993,1.504,1.504,1.5174,1.5174,1.5167,1.5174,1.5126,1.4923,1.4753,1.4726,1.466,1.4633,1.4633,1.4794,1.4848,1.4774,1.474,1.4665,1.459,1.4536,1.4441,1.4319,1.4299,1.4299,1.4299,1.4299,1.4299,1.4299,1.4299,1.4299,1.4299,1.4299,1.4299,1.4299,1.4299,1.4299,1.4306,1.4448,1.4593,0.0673,0.0628,0.018,0.0,0.0,0.0494,0.0449,0.0,0.0,0.0,0.0,0.0,0.0,0.0,0.0,0.0,0.0,0.0,0.0,0.0,0.0,0.0,0.0,0.0,0.0,0.0,0.0404,0.0673,0.0673,0.0943,0.0943,0.1032,0.1571,0.1976,0.2335,0.2649,0.2874,0.2919,0.2919,0.2919,0.2919,0.2919,0.2919,0.2919,0.2919,0.2919,0.2919,0.2919,0.2919,0.2919,0.2919,0.2919,0.2919,0.2919,0.2919,0.2919,0.2919,0.2694,0.2516,0.2699,0.2654,0.3018,0.3031,0.3028,0.3695,0.5036,0.5559,0.6204,0.6773,0.7699,0.8582,0.9132,0.9638,1.0677,1.1909,1.314,1.4463,1.4892,1.512,1.516,1.5194,1.512,1.5025,1.4848,1.4645,1.4624,1.4545,1.4478,1.4512,1.466,1.4719,1.4577,1.4557,1.4563,1.4502,1.4441,1.4401,1.4306,1.4299,1.4299,1.4299,1.4299,1.4299,1.4299,1.4299,1.4299,1.4299,1.4299,1.4299,1.4299,1.4299,1.4299,1.4299,1.4353,1.4457,0.018,0.018,0.0045,0.0,0.0,0.0,0.0135,0.0,0.0,0.0,0.0,0.0,0.0,0.0,0.0,0.0,0.0,0.0,0.0,0.0,0.0,0.0,0.0,0.0,0.0,0.0,0.0,0.0,0.0314,0.0494,0.0898,0.1257,0.1436,0.1886,0.22,0.2649,0.2784,0.2919,0.2919,0.2919,0.2919,0.2919,0.2919,0.2919,0.2919,0.2919,0.2919,0.2919,0.2919,0.2919,0.2919,0.2919,0.2919,0.2919,0.2919,0.2919,0.2874,0.2829,0.2739,0.2829,0.2829,0.2694,0.2838,0.2837,0.31,0.3459,0.3964,0.4592,0.4919,0.5631,0.6157,0.6707,0.7447,0.8597,1.0016,1.1626,1.2893,1.3649,1.3924,1.4559,1.4593,1.4739,1.4645,1.4713,1.4536,1.4523,1.4489,1.4428,1.4421,1.4525,1.4559,1.4462,1.4441,1.4468,1.4414,1.4346,1.4333,1.4306,1.4306,1.4299,1.4299,1.4299,1.4299,1.4299,1.4299,1.4299,1.4299,1.4299,1.4299,1.4299,1.4299,1.4299,1.4306,1.4353,1.4414,0.0,0.0,0.0,0.0,0.0,0.0,0.0,0.0,0.0,0.0,0.0,0.0,0.0,0.0,0.0,0.0,0.0,0.0,0.0,0.0,0.0,0.0,0.0,0.0,0.0,0.0,0.0,0.0,0.0,0.0,0.0584,0.0763,0.1257,0.1571,0.1841,0.2111,0.2515,0.2739,0.2919,0.2919,0.2919,0.2919,0.2919,0.2919,0.2919,0.2919,0.2919,0.2919,0.2919,0.2919,0.2919,0.2919,0.2919,0.2919,0.2919,0.2919,0.2874,0.2874,0.2874,0.2874,0.2919,0.2919,0.2919,0.292,0.292,0.31,0.3155,0.331,0.3213,0.3249,0.3648,0.4147,0.5162,0.6138,0.8032,0.9874,1.0964,1.1896,1.2708,1.3521,1.3875,1.4068,1.4218,1.4343,1.4455,1.4496,1.4482,1.4421,1.438,1.4421,1.4448,1.4367,1.4373,1.4394,1.4333,1.4299,1.4299,1.4306,1.4299,1.4299,1.4299,1.4299,1.4299,1.4299,1.4299,1.4299,1.4299,1.4299,1.4299,1.4299,1.4299,1.4299,1.4306,1.4326,1.4394,0.0,0.0,0.0,0.0,0.0,0.0,0.0,0.0,0.0,0.0,0.0,0.0,0.0,0.0,0.0,0.0,0.0,0.0,0.0,0.0,0.0,0.0,0.0,0.0,0.0,0.0,0.0,0.0,0.0,0.0,0.0,0.0,0.0359,0.0852,0.1476,0.1884,0.2332,0.2772,0.287,0.2919,0.2919,0.2919,0.2919,0.2919,0.2919,0.2919,0.2919,0.2919,0.2919,0.2919,0.2919,0.2919,0.2919,0.2919,0.2919,0.2919,0.2919,0.2919,0.2919,0.2919,0.2919,0.2919,0.2919,0.2919,0.2919,0.2919,0.2883,0.2896,0.2927,0.2947,0.3294,0.3474,0.4162,0.5124,0.6547,0.7927,0.8818,1.0198,1.1865,1.2696,1.3464,1.3706,1.4248,1.4428,1.438,1.4448,1.4448,1.4387,1.4367,1.4346,1.4333,1.4306,1.4326,1.4346,1.4326,1.4299,1.4299,1.4299,1.4299,1.4299,1.4299,1.4299,1.4299,1.4299,1.4299,1.4299,1.4299,1.4299,1.4299,1.4299,1.4299,1.4299,1.4306,1.4319,1.4346,0.0,0.0,0.0,0.0,0.0,0.0,0.0,0.0,0.0,0.0,0.0,0.0,0.0,0.0,0.0,0.0,0.0,0.0,0.0,0.0,0.0,0.0,0.0,0.0,0.0,0.0,0.0,0.0,0.0,0.0,0.0,0.0,0.0448,0.1028,0.1421,0.1872,0.2456,0.2842,0.2855,0.2863,0.2864,0.2916,0.2919,0.2919,0.2919,0.2919,0.2919,0.2919,0.2919,0.2919,0.2919,0.2919,0.2919,0.2919,0.2919,0.2919,0.2919,0.2919,0.2919,0.2919,0.2919,0.2919,0.2919,0.2919,0.2919,0.2919,0.2881,0.2893,0.2908,0.2927,0.295,0.3082,0.3304,0.4208,0.5015,0.5924,0.674,0.8571,1.0625,1.167,1.2654,1.324,1.3745,1.4209,1.4346,1.4333,1.434,1.4319,1.4326,1.4312,1.4319,1.4299,1.4299,1.4306,1.4299,1.4299,1.4299,1.4299,1.4299,1.4299,1.4299,1.4299,1.4299,1.4299,1.4299,1.4299,1.4299,1.4299,1.4299,1.4299,1.4299,1.4299,1.4299,1.4306,1.4312,0.0,0.0,0.0,0.0,0.0,0.0,0.0,0.0,0.0,0.0,0.0,0.0,0.0,0.0,0.0,0.0,0.0,0.0,0.0,0.0,0.0,0.0,0.0,0.0,0.0,0.0,0.0,0.0,0.0,0.0,0.0,0.0,0.0624,0.102,0.1363,0.1986,0.2475,0.2767,0.2829,0.2836,0.2844,0.2901,0.2916,0.2919,0.2919,0.2919,0.2919,0.2919,0.2919,0.2919,0.2919,0.2919,0.2919,0.2919,0.2919,0.2919,0.2919,0.2919,0.2919,0.2919,0.2919,0.2919,0.2919,0.2919,0.2919,0.2919,0.2919,0.2887,0.2906,0.2926,0.2934,0.301,0.3042,0.3621,0.3887,0.4392,0.475,0.5536,0.7163,0.8365,0.9173,0.98,1.0674,1.2372,1.2565,1.3103,1.3274,1.4255,1.4299,1.4299,1.4299,1.4299,1.4299,1.4299,1.4299,1.4299,1.4299,1.4299,1.4299,1.4299,1.4299,1.4299,1.4299,1.4299,1.4299,1.4299,1.4299,1.4299,1.4299,1.4299,1.4299,1.4299,1.4299,1.4299,1.4306,0.0,0.0,0.0,0.0,0.0,0.0,0.0,0.0,0.0,0.0,0.0,0.0,0.0,0.0,0.0,0.0,0.0,0.0,0.0,0.0,0.0,0.0,0.0,0.0,0.0,0.0,0.0,0.0,0.0,0.0,0.0,0.0,0.022,0.0526,0.1132,0.1609,0.2002,0.2565,0.2788,0.2833,0.2852,0.288,0.2856,0.2867,0.2917,0.2919,0.2919,0.2919,0.2919,0.2919,0.2919,0.2919,0.2919,0.2919,0.2919,0.2919,0.2919,0.2919,0.2919,0.2919,0.2919,0.2919,0.2919,0.2919,0.2919,0.2919,0.2919,0.2883,0.2902,0.2912,0.292,0.2936,0.2965,0.2984,0.3105,0.3183,0.321,0.3466,0.4704,0.5965,0.6627,0.7256,0.8502,1.0239,1.1172,1.166,1.2553,1.3584,1.4299,1.4299,1.4299,1.4299,1.4299,1.4299,1.4299,1.4299,1.4299,1.4299,1.4299,1.4299,1.4299,1.4299,1.4299,1.4299,1.4299,1.4299,1.4299,1.4299,1.4299,1.4299,1.4299,1.4299,1.4299,1.4299,1.4299,0.0,0.0,0.0,0.0,0.0,0.0,0.0,0.0,0.0,0.0,0.0,0.0,0.0,0.0,0.0,0.0,0.0,0.0,0.0,0.0,0.0,0.0,0.0,0.0,0.0,0.0,0.0,0.0,0.0,0.0,0.0,0.0,0.0,0.0781,0.1206,0.1637,0.2074,0.2542,0.2765,0.2773,0.2785,0.281,0.283,0.2845,0.2861,0.287,0.2919,0.2919,0.2919,0.2919,0.2919,0.2919,0.2919,0.2919,0.2919,0.2919,0.2919,0.2919,0.2919,0.2919,0.2919,0.2919,0.2919,0.2919,0.2919,0.2919,0.2919,0.2919,0.2886,0.2886,0.2896,0.2911,0.2935,0.2943,0.3028,0.3023,0.3058,0.3956,0.511,0.5976,0.6627,0.7118,0.7699,0.921,1.05,1.1261,1.2553,1.3496,1.3805,1.4027,1.4255,1.4299,1.4299,1.4299,1.4299,1.4299,1.4299,1.4299,1.4299,1.4299,1.4299,1.4299,1.4299,1.4299,1.4299,1.4299,1.4299,1.4299,1.4299,1.4299,1.4299,1.4299,1.4299,1.4299,1.4299]},{"header":{"parameterUnit":"m.s-1","parameterCategory":1,"la1":31.0,"la2":29.5877,"lo1":-88.7671,"lo2":-86.6584,"dy":0.0162,"dx":0.0185,"nx":115,"ny":88,"refTime":"2024-09-05T00:00:00:Z","depth":0,"parameterNumber":3,"parameterNumberName":"V-component_of_WINDS"},"data":[0.0,0.0,0.0,0.0,0.0,0.0,0.0,0.0,0.0,0.0,0.0,0.0,0.0,0.0,0.0,0.0,0.0,0.0,0.0,0.0,0.0,0.0,0.0,0.0,0.0,0.0,0.0,0.0,0.0,0.0,0.0,0.0,0.0,0.0,0.0,0.0,0.0,0.0,0.0,0.0,0.0,0.0,0.0,0.0,0.0,0.0,0.0,0.0,0.0,0.0,0.0,0.0,0.0,0.0,0.0,0.0,0.0,0.0,0.0,0.0,0.0,0.0,0.0,0.0,0.0,0.0,0.0,0.0,0.0,0.0,0.0,0.0,0.0,0.0,0.0,0.0,0.0,0.0,0.0,0.0,0.0,0.0,0.0,0.0,0.0,0.0,0.0,0.0,0.0,0.0,0.0,0.0,0.0,0.0,0.0,0.0,0.0,0.0,0.0,0.0,0.0,0.0,0.0,0.0,0.0,0.0,0.0,0.0,0.0,0.0,0.0,0.0,0.0,0.0,0.0,0.0,0.0,0.0,0.0,0.0,0.0,0.0,0.0,0.0,0.0,0.0,0.0,0.0,0.0,0.0,0.0,0.0,0.0,0.0,0.0,0.0,0.0,0.0,0.0,0.0,0.0,0.0,0.0,0.0,0.0,0.0,0.0,0.0,0.0,0.0,0.0,0.0,0.0,0.0,0.0,0.0,0.0,0.0,0.0,0.0,0.0,0.0,0.0,0.0,0.0,0.0,0.0,0.0,0.0,0.0,0.0,0.0,0.0,0.0,0.0,0.0,0.0,0.0,0.0,0.0,0.0,0.0,0.0,0.0,0.0,0.0,0.0,0.0,0.0,0.0,0.0,0.0,0.0,0.0,0.0,0.0,0.0,0.0,0.0,0.0,0.0,0.0,0.0,0.0,0.0,0.0,0.0,0.0,0.0,0.0,0.0,0.0,0.0,0.0,0.0,0.0,0.0,0.0,0.0,0.0,0.0,0.0,0.0,0.0,0.0,0.0,0.0,0.0,0.0,0.0,0.0,0.0,0.0,0.0,0.0,0.0,0.0,0.0,0.0,0.0,0.0,0.0,0.0,0.0,0.0,0.0,0.0,0.0,0.0,0.0,0.0,0.0,0.0,0.0,0.0,0.0,0.0,0.0,0.0,0.0,0.0,0.0,0.0,0.0,0.0,0.0,0.0,0.0,0.0,0.0,0.0,0.0,0.0,0.0,0.0,0.0,0.0,0.0,0.0,0.0,0.0,0.0,0.0,0.0,0.0,0.0,0.0,0.0,0.0,0.0,0.0,0.0,0.0,0.0,0.0,0.0,0.0,0.0,0.0,0.0,0.0,0.0,0.0,0.0,0.0,0.0,0.0,0.0,0.0,0.0,0.0,0.0,0.0,0.0,0.0,0.0,0.0,0.0,0.0,0.0,0.0,0.0,0.0,0.0,0.0,0.0,0.0,0.0,0.0,0.0,0.0,0.0,0.0,0.0,0.0,0.0,0.0,0.0,0.0,0.0,0.0,0.0,0.0,0.0,0.0,0.0,0.0,0.0,0.0,0.0,0.0,0.0,0.0,0.0,0.0,0.0,0.0,0.0,0.0,0.0,0.0,0.0,0.0,0.0,0.0,0.0,0.0,0.0,0.0,0.0,0.0,0.0,0.0,0.0,0.0,0.0,0.0,0.0,0.0,0.0,0.0,0.0,0.0,0.0,0.0,0.0,0.0,0.0,0.0,0.0,0.0,0.0,0.0,0.0,0.0,0.0,0.0,0.0,0.0,0.0,0.0,0.0,0.0,0.0,0.0,0.0,0.0,0.0,0.0,0.0,0.0,0.0,0.0,0.0,0.0,0.0,0.0,0.0,0.0,0.0,0.0,0.0,0.0,0.0,0.0,0.0,0.0,0.0,0.0,0.0,0.0,0.0,0.0,0.0,0.0,0.0,0.0,0.0,0.0,0.0,0.0,0.0,0.0,0.0,0.0,0.0,0.0,0.0,0.0,0.0,0.0,0.0,0.0,0.0,0.0,0.0,0.0,0.0,0.0,0.0,0.0,0.0,0.0,0.0,0.0,0.0,0.0,0.0,0.0,0.0,0.0,0.0,0.0,0.0,0.0,0.0,0.0,0.0,0.0,0.0,0.0,0.0,0.0,0.0,0.0,0.0,0.0,0.0,0.0,0.0,0.0,0.0,0.0,0.0,0.0,0.0,0.0,0.0,0.0,0.0,0.0,0.0,0.0,0.0,0.0,0.0,0.0,0.0,0.0,0.0,0.0,0.0,0.0,0.0,0.0,0.0,0.0,0.0,0.0,0.0,0.0,0.0,0.0,0.0,0.0,0.0,0.0,0.0,0.0,0.0,0.0,0.0,0.0,0.0,0.0,0.0,0.0,0.0,0.0,0.0,0.0,0.0,0.0,0.0,0.0,0.0,0.0,0.0,0.0,0.0,0.0,0.0,0.0,0.0,0.0,0.0,0.0,0.0,0.0,0.0,0.0,0.0,0.0,0.0,0.0,0.0,0.0,0.0,0.0,0.0,0.0,0.0,0.0,0.0,0.0,0.0,0.0,0.0,0.0,0.0,0.0,0.0,0.0,0.0,0.0,0.0,0.0,0.0,0.0,0.0,0.0,0.0,0.0,0.0,0.0,0.0,0.0,0.0,0.0,0.0,0.0,0.0,0.0,0.0,0.0,0.0,0.0,0.0,0.0,0.0,0.0,0.0,0.0,0.0,0.0,0.0,0.0,0.0,0.0,0.0,0.0,0.0,0.0,0.0,0.0,0.0,0.0,0.0,0.0,0.0,0.0,0.0,0.0,0.0,0.0,0.0,0.0,0.0,0.0,0.0,0.0,0.0,0.0,0.0,0.0,0.0,0.0,0.0,0.0,0.0,0.0,0.0,0.0,0.0,0.0,0.0,0.0,0.0,0.0,0.0,0.0,0.0,0.0,0.0,0.0,0.0,0.0,0.0,0.0,0.0,0.0,0.0,0.0,0.0,0.0,0.0,0.0,0.0,0.0,0.0,0.0,0.0,0.0,0.0,0.0,0.0,0.0,0.0,0.0,0.0,0.0,0.0,0.0,0.0,0.0,0.0,0.0,0.0,0.0,0.0,0.0,0.0,0.0,0.0,0.0,0.0,0.0,0.0,0.0,0.0,0.0,0.0,0.0,0.0,0.0,0.0,0.0,0.0,0.0,0.0,0.0,0.0,0.0,0.0,0.0,0.0,0.0,0.0,0.0,0.0,0.0,0.0,0.0,0.0,0.0,0.0,0.0,0.0,0.0,0.0,0.0,0.0,0.0,0.0,0.0,0.0,0.0,0.0,0.0,0.0,0.0,0.0,0.0,0.0,0.0,0.0,0.0,0.0,0.0,0.0,0.0,0.0,0.0,0.0,0.0,0.0,0.0,0.0,0.0,0.0,0.0,0.0,0.0,0.0,0.0,0.0,0.0,0.0,0.0,0.0,0.0,0.0,0.0,0.0,0.0,0.0,0.0,0.0,0.0,0.0,0.0,0.0,0.0,0.0,0.0,0.0,0.0,0.0,0.0,0.0,0.0,0.0,0.0,0.0,0.0,0.0,0.0,0.0,0.0,0.0,0.0,0.0,0.0,0.0,0.0,0.0,0.0,0.0,0.0,0.0,0.0,0.0,0.0,0.0,0.0,0.0,0.0,0.0,0.0,0.0,0.0,0.0,0.0,0.0,0.0,0.0,0.0,0.0,0.0,0.0,0.0,0.0,0.0,0.0,0.0,0.0,0.0,0.0,0.0,0.0,0.0,0.0,0.0,0.0,0.0,0.0,0.0,0.0,0.0,0.0,0.0,0.0,0.0,0.0,0.0,0.0,0.0,0.0,0.0,0.0,0.0,0.0,0.0,0.0,0.0,0.0,0.0,0.0,0.0,0.0,0.0,0.0,0.0,0.0,0.0,0.0,0.0,0.0,0.0,0.0,0.0,0.0,0.0,0.0,0.0,0.0,0.0,0.0,0.0,0.0,0.0,0.0,0.0,0.0,0.0,0.0,0.0,0.0,0.0,0.0,0.0,0.0,0.0,0.0,0.0,0.0,0.0,0.0,0.0,0.0,0.0,0.0,0.0,0.0,0.0,0.0,0.0,0.0,0.0,0.0,0.0,0.0,0.0,0.0,0.0,0.0,0.0,0.0,0.0,0.0,0.0,0.0,0.0,0.0,0.0,0.0,0.0,0.0,0.0,0.0,0.0,0.0,0.0,0.0,0.0,0.0,0.0,0.0,0.0,0.0,0.0,0.0,0.0,0.0,0.0,0.0,3.5799,0.0,0.0,0.0,0.0,0.0,0.0,0.0,0.0,0.0,0.0,0.0,0.0,0.0,0.0,0.0,0.0,0.0,0.0,0.0,0.0,0.0,0.0,0.0,0.0,0.0,0.0,0.0,0.0,0.0,0.0,0.0,0.0,0.0,0.0,0.0,0.0,0.0,0.0,0.0,0.0,0.0,0.0,0.0,0.0,0.0,0.0,0.0,0.0,0.0,0.0,0.0,0.0,0.0,0.0,0.0,0.0,0.0,0.0,0.0,0.0,0.0,0.0,0.0,0.0,0.0,0.0,0.0,0.0,0.0,0.0,0.0,0.0,0.0,0.0,0.0,0.0,0.0,0.0,0.0,0.0,0.0,0.0,0.0,0.0,0.0,0.0,0.0,0.0,0.0,0.0,0.0,0.0,0.0,0.0,0.0,0.0,0.0,0.0,0.0,0.0,0.0,0.0,0.0,0.0,0.0,0.0,0.0,0.0,0.0,0.0,3.7756,3.8191,3.7903,3.7196,3.6019,0.0,0.0,0.0,0.0,0.0,0.0,0.0,0.0,0.0,0.0,0.0,0.0,0.0,0.0,0.0,0.0,0.0,0.0,0.0,0.0,0.0,0.0,0.0,0.0,0.0,0.0,0.0,0.0,0.0,0.0,0.0,0.0,0.0,0.0,0.0,0.0,0.0,0.0,0.0,0.0,0.0,0.0,0.0,0.0,0.0,0.0,0.0,0.0,0.0,0.0,0.0,0.0,0.0,0.0,0.0,0.0,0.0,0.0,0.0,0.0,0.0,0.0,0.0,0.0,0.0,0.0,0.0,0.0,0.0,0.0,0.0,0.0,0.0,0.0,0.0,0.0,0.0,0.0,0.0,0.0,0.0,0.0,0.0,0.0,0.0,0.0,0.0,0.0,0.0,0.0,0.0,0.0,0.0,0.0,0.0,0.0,0.0,0.0,0.0,0.0,0.0,0.0,0.0,0.0,0.0,0.0,0.0,0.0,0.0,0.0,0.0,0.0,3.9039,3.8452,3.715,0.0,0.0,0.0,0.0,0.0,0.0,0.0,0.0,0.0,0.0,0.0,0.0,0.0,0.0,0.0,0.0,0.0,0.0,0.0,0.0,0.0,0.0,0.0,0.0,0.0,0.0,0.0,0.0,0.0,0.0,0.0,0.0,0.0,0.0,0.0,0.0,0.0,0.0,0.0,0.0,0.0,0.0,0.0,0.0,0.0,0.0,0.0,0.0,0.0,0.0,0.0,0.0,0.0,0.0,0.0,0.0,0.0,0.0,0.0,0.0,0.0,0.0,0.0,0.0,0.0,0.0,0.0,0.0,0.0,0.0,0.0,0.0,0.0,0.0,0.0,0.0,0.0,0.0,0.0,0.0,0.0,0.0,0.0,0.0,0.0,0.0,0.0,0.0,0.0,0.0,0.0,0.0,0.0,0.0,0.0,0.0,0.0,0.0,0.0,0.0,0.0,0.0,0.0,0.0,0.0,0.0,0.0,0.0,0.0,0.0,3.84,4.127,4.1352,0.0,4.0315,0.0,0.0,0.0,0.0,0.0,0.0,0.0,0.0,0.0,0.0,0.0,0.0,0.0,0.0,0.0,0.0,0.0,0.0,0.0,0.0,0.0,0.0,0.0,0.0,0.0,0.0,0.0,0.0,0.0,0.0,0.0,0.0,0.0,0.0,0.0,0.0,0.0,0.0,0.0,0.0,0.0,0.0,0.0,0.0,0.0,0.0,0.0,0.0,0.0,0.0,0.0,0.0,0.0,0.0,0.0,0.0,0.0,0.0,0.0,0.0,0.0,0.0,0.0,0.0,0.0,0.0,0.0,0.0,0.0,0.0,0.0,0.0,0.0,0.0,0.0,0.0,0.0,0.0,0.0,0.0,0.0,0.0,0.0,0.0,0.0,0.0,0.0,0.0,0.0,0.0,0.0,0.0,0.0,0.0,0.0,0.0,0.0,0.0,0.0,0.0,0.0,0.0,0.0,0.0,0.0,0.0,0.0,0.0,0.0,0.0,3.9233,4.0945,4.0644,4.0315,0.0,0.0,0.0,0.0,0.0,0.0,0.0,0.0,0.0,0.0,0.0,0.0,0.0,0.0,0.0,0.0,0.0,0.0,0.0,0.0,0.0,0.0,0.0,0.0,0.0,0.0,0.0,0.0,0.0,0.0,0.0,0.0,0.0,0.0,0.0,0.0,0.0,0.0,0.0,0.0,0.0,0.0,0.0,0.0,0.0,0.0,0.0,0.0,0.0,0.0,0.0,0.0,0.0,0.0,0.0,0.0,0.0,0.0,0.0,0.0,0.0,0.0,0.0,0.0,0.0,0.0,0.0,0.0,0.0,0.0,0.0,0.0,0.0,0.0,0.0,0.0,0.0,0.0,0.0,0.0,0.0,0.0,0.0,0.0,0.0,0.0,0.0,0.0,0.0,0.0,0.0,0.0,0.0,0.0,0.0,0.0,0.0,0.0,0.0,0.0,0.0,0.0,0.0,0.0,0.0,0.0,0.0,0.0,0.0,0.0,3.8826,4.0057,4.1397,4.1079,4.024,3.8955,0.0,0.0,0.0,0.0,0.0,0.0,0.0,0.0,0.0,0.0,0.0,0.0,0.0,0.0,0.0,0.0,0.0,0.0,0.0,0.0,0.0,0.0,0.0,0.0,0.0,0.0,0.0,0.0,0.0,0.0,0.0,0.0,0.0,0.0,0.0,0.0,0.0,0.0,0.0,0.0,0.0,0.0,0.0,0.0,0.0,0.0,0.0,0.0,0.0,0.0,0.0,0.0,0.0,0.0,0.0,0.0,0.0,0.0,0.0,0.0,0.0,0.0,0.0,0.0,0.0,0.0,0.0,0.0,0.0,0.0,0.0,0.0,0.0,0.0,0.0,0.0,0.0,0.0,0.0,0.0,0.0,0.0,0.0,0.0,0.0,0.0,0.0,0.0,0.0,0.0,0.0,0.0,0.0,0.0,0.0,0.0,0.0,0.0,0.0,0.0,0.0,0.0,0.0,0.0,0.0,0.0,0.0,0.0,4.2131,4.0428,4.0854,4.3788,4.3906,4.1805,0.0,0.0,0.0,0.0,0.0,0.0,0.0,0.0,0.0,0.0,0.0,0.0,0.0,0.0,0.0,0.0,0.0,0.0,0.0,0.0,0.0,0.0,0.0,0.0,0.0,0.0,0.0,0.0,0.0,0.0,0.0,0.0,0.0,0.0,0.0,0.0,0.0,0.0,0.0,0.0,0.0,0.0,0.0,0.0,0.0,0.0,0.0,0.0,0.0,0.0,0.0,0.0,0.0,0.0,0.0,0.0,0.0,0.0,0.0,0.0,0.0,0.0,0.0,0.0,0.0,0.0,0.0,0.0,0.0,0.0,0.0,0.0,0.0,0.0,0.0,0.0,0.0,0.0,0.0,0.0,0.0,0.0,0.0,0.0,0.0,0.0,0.0,0.0,0.0,0.0,0.0,0.0,0.0,0.0,0.0,0.0,0.0,0.0,0.0,0.0,0.0,0.0,0.0,0.0,0.0,0.0,0.0,0.0,0.0,3.6769,3.7965,4.0863,4.5283,4.1778,3.9596,0.0,0.0,0.0,0.0,0.0,0.0,0.0,0.0,0.0,0.0,0.0,0.0,0.0,0.0,0.0,0.0,0.0,0.0,0.0,0.0,0.0,0.0,0.0,0.0,0.0,0.0,0.0,0.0,0.0,0.0,0.0,0.0,0.0,0.0,0.0,0.0,0.0,0.0,0.0,0.0,0.0,0.0,0.0,0.0,0.0,0.0,0.0,0.0,0.0,0.0,0.0,0.0,0.0,0.0,0.0,0.0,0.0,0.0,0.0,0.0,0.0,0.0,0.0,0.0,0.0,0.0,0.0,0.0,0.0,0.0,0.0,0.0,0.0,0.0,0.0,0.0,0.0,0.0,0.0,0.0,0.0,0.0,0.0,0.0,0.0,0.0,0.0,0.0,0.0,0.0,0.0,0.0,0.0,0.0,0.0,0.0,0.0,0.0,0.0,0.0,0.0,0.0,0.0,0.0,0.0,0.0,0.0,0.0,0.0,3.5703,0.0,4.195,4.4611,4.0897,3.851,0.0,0.0,0.0,0.0,0.0,0.0,0.0,0.0,0.0,0.0,0.0,0.0,0.0,0.0,0.0,0.0,0.0,0.0,0.0,0.0,0.0,0.0,0.0,0.0,0.0,0.0,0.0,0.0,0.0,0.0,0.0,0.0,0.0,0.0,0.0,0.0,0.0,0.0,0.0,0.0,0.0,0.0,0.0,0.0,0.0,0.0,0.0,0.0,0.0,0.0,0.0,0.0,0.0,0.0,0.0,0.0,0.0,0.0,0.0,0.0,0.0,0.0,0.0,0.0,0.0,0.0,0.0,0.0,0.0,0.0,0.0,0.0,0.0,0.0,0.0,0.0,0.0,0.0,0.0,0.0,0.0,0.0,0.0,0.0,0.0,0.0,0.0,0.0,0.0,0.0,0.0,0.0,0.0,0.0,0.0,0.0,0.0,0.0,0.0,0.0,0.0,0.0,0.0,0.0,0.0,0.0,0.0,0.0,3.4958,4.0193,4.3399,4.4015,4.1895,4.1687,3.8816,0.0,0.0,0.0,0.0,0.0,0.0,0.0,0.0,0.0,0.0,0.0,0.0,0.0,0.0,0.0,0.0,0.0,0.0,0.0,0.0,0.0,0.0,0.0,0.0,0.0,0.0,0.0,0.0,0.0,0.0,0.0,0.0,0.0,0.0,0.0,0.0,0.0,0.0,0.0,0.0,0.0,0.0,0.0,0.0,0.0,0.0,0.0,0.0,0.0,0.0,0.0,0.0,0.0,0.0,0.0,0.0,0.0,0.0,0.0,0.0,0.0,0.0,0.0,0.0,0.0,0.0,0.0,0.0,0.0,0.0,0.0,0.0,0.0,0.0,0.0,0.0,0.0,0.0,0.0,0.0,0.0,0.0,0.0,0.0,0.0,0.0,0.0,0.0,0.0,0.0,0.0,0.0,0.0,0.0,0.0,0.0,0.0,0.0,0.0,0.0,0.0,0.0,0.0,0.0,0.0,0.0,0.0,0.0,0.0,3.8238,4.1922,4.4334,4.4975,4.0992,3.8858,0.0,0.0,0.0,0.0,0.0,0.0,0.0,0.0,0.0,0.0,0.0,0.0,0.0,0.0,0.0,0.0,0.0,0.0,0.0,0.0,0.0,0.0,0.0,0.0,0.0,0.0,0.0,0.0,0.0,0.0,0.0,0.0,0.0,0.0,0.0,0.0,0.0,0.0,0.0,0.0,0.0,0.0,0.0,0.0,0.0,0.0,0.0,0.0,0.0,0.0,0.0,0.0,0.0,0.0,0.0,0.0,0.0,0.0,0.0,0.0,0.0,0.0,0.0,0.0,0.0,0.0,0.0,0.0,0.0,0.0,0.0,0.0,0.0,0.0,0.0,0.0,0.0,0.0,0.0,0.0,0.0,0.0,0.0,0.0,0.0,0.0,0.0,0.0,0.0,0.0,0.0,0.0,0.0,0.0,0.0,0.0,0.0,0.0,0.0,0.0,0.0,0.0,0.0,0.0,0.0,0.0,0.0,0.0,0.0,4.1009,4.4473,4.6506,4.6792,4.241,4.0292,4.0678,0.0,0.0,0.0,0.0,0.0,0.0,0.0,0.0,0.0,0.0,0.0,0.0,0.0,0.0,0.0,0.0,0.0,0.0,0.0,0.0,0.0,0.0,0.0,0.0,0.0,0.0,0.0,0.0,0.0,0.0,0.0,0.0,0.0,0.0,0.0,0.0,0.0,0.0,0.0,0.0,0.0,0.0,0.0,0.0,0.0,0.0,0.0,0.0,0.0,0.0,0.0,0.0,0.0,0.0,0.0,0.0,0.0,0.0,0.0,0.0,0.0,0.0,0.0,0.0,0.0,0.0,0.0,0.0,0.0,0.0,0.0,0.0,0.0,0.0,0.0,0.0,0.0,0.0,0.0,0.0,0.0,0.0,0.0,0.0,0.0,0.0,0.0,0.0,0.0,0.0,0.0,0.0,0.0,0.0,0.0,0.0,0.0,0.0,0.0,0.0,0.0,0.0,0.0,0.0,0.0,0.0,0.0,0.0,4.7199,5.0253,5.0467,4.7557,4.5662,4.2955,0.0,0.0,0.0,0.0,0.0,0.0,0.0,0.0,0.0,0.0,0.0,0.0,0.0,0.0,0.0,0.0,0.0,0.0,0.0,0.0,0.0,0.0,0.0,0.0,0.0,0.0,0.0,0.0,0.0,0.0,0.0,0.0,0.0,0.0,0.0,0.0,0.0,0.0,0.0,0.0,0.0,0.0,0.0,0.0,0.0,0.0,0.0,0.0,0.0,0.0,0.0,0.0,0.0,0.0,0.0,0.0,0.0,0.0,0.0,0.0,0.0,0.0,0.0,0.0,0.0,0.0,0.0,0.0,0.0,0.0,0.0,0.0,0.0,0.0,0.0,0.0,0.0,0.0,0.0,0.0,0.0,0.0,0.0,0.0,0.0,0.0,0.0,0.0,0.0,0.0,0.0,0.0,0.0,0.0,0.0,0.0,0.0,0.0,0.0,0.0,0.0,0.0,0.0,0.0,0.0,0.0,0.0,0.0,0.0,4.9798,5.348,5.4719,5.3142,4.8832,4.5948,0.0,0.0,0.0,0.0,0.0,0.0,0.0,0.0,0.0,0.0,0.0,0.0,0.0,0.0,0.0,0.0,0.0,0.0,0.0,0.0,0.0,0.0,0.0,0.0,0.0,0.0,0.0,0.0,0.0,0.0,0.0,0.0,0.0,0.0,0.0,0.0,0.0,0.0,0.0,0.0,0.0,0.0,0.0,0.0,0.0,0.0,0.0,0.0,0.0,0.0,0.0,0.0,0.0,0.0,0.0,0.0,0.0,0.0,0.0,0.0,0.0,0.0,0.0,0.0,0.0,0.0,0.0,0.0,0.0,0.0,0.0,0.0,0.0,0.0,0.0,0.0,0.0,0.0,0.0,0.0,0.0,0.0,0.0,0.0,0.0,0.0,0.0,0.0,0.0,0.0,0.0,0.0,0.0,0.0,0.0,0.0,0.0,0.0,0.0,0.0,0.0,0.0,0.0,0.0,0.0,0.0,0.0,0.0,4.9003,5.227,5.5574,5.7045,5.65,5.2082,4.869,0.0,0.0,0.0,0.0,0.0,0.0,0.0,0.0,0.0,0.0,0.0,0.0,0.0,0.0,0.0,0.0,0.0,0.0,0.0,0.0,0.0,0.0,0.0,0.0,0.0,0.0,0.0,0.0,0.0,0.0,0.0,0.0,0.0,0.0,0.0,0.0,0.0,0.0,0.0,0.0,0.0,0.0,0.0,0.0,0.0,0.0,0.0,0.0,0.0,0.0,0.0,0.0,0.0,0.0,0.0,0.0,0.0,0.0,0.0,0.0,0.0,0.0,0.0,0.0,0.0,0.0,0.0,0.0,0.0,0.0,0.0,0.0,0.0,0.0,0.0,0.0,0.0,0.0,0.0,0.0,0.0,0.0,0.0,0.0,0.0,0.0,0.0,0.0,0.0,0.0,0.0,0.0,0.0,0.0,0.0,0.0,0.0,0.0,0.0,0.0,0.0,0.0,0.0,0.0,0.0,0.0,0.0,0.0,5.1169,5.4326,5.6748,5.7997,5.7886,5.4902,5.1049,0.0,0.0,0.0,0.0,0.0,0.0,0.0,0.0,0.0,0.0,0.0,0.0,0.0,0.0,0.0,0.0,0.0,0.0,0.0,0.0,0.0,0.0,0.0,0.0,0.0,0.0,0.0,0.0,0.0,0.0,0.0,0.0,0.0,0.0,0.0,0.0,0.0,0.0,0.0,0.0,0.0,0.0,0.0,0.0,0.0,0.0,0.0,0.0,0.0,0.0,0.0,0.0,0.0,0.0,0.0,0.0,0.0,0.0,0.0,0.0,0.0,0.0,0.0,0.0,0.0,0.0,0.0,0.0,0.0,0.0,0.0,0.0,0.0,0.0,0.0,0.0,0.0,0.0,0.0,0.0,0.0,0.0,0.0,0.0,0.0,0.0,0.0,0.0,0.0,0.0,0.0,0.0,0.0,0.0,0.0,0.0,0.0,0.0,0.0,0.0,0.0,0.0,0.0,0.0,0.0,0.0,0.0,0.0,5.1793,5.4363,5.6748,5.7997,5.7997,5.4866,5.1793,0.0,0.0,0.0,0.0,0.0,0.0,0.0,0.0,0.0,0.0,0.0,0.0,0.0,0.0,0.0,0.0,0.0,0.0,0.0,0.0,0.0,0.0,0.0,0.0,0.0,0.0,0.0,0.0,0.0,0.0,0.0,0.0,0.0,0.0,0.0,0.0,0.0,0.0,0.0,0.0,0.0,0.0,0.0,0.0,0.0,0.0,0.0,0.0,4.0479,0.0,0.0,0.0,0.0,0.0,0.0,0.0,0.0,0.0,0.0,0.0,0.0,0.0,0.0,0.0,0.0,0.0,0.0,0.0,0.0,0.0,0.0,0.0,0.0,0.0,0.0,0.0,0.0,0.0,0.0,0.0,0.0,0.0,0.0,0.0,0.0,0.0,0.0,0.0,0.0,0.0,0.0,0.0,0.0,0.0,0.0,0.0,0.0,0.0,0.0,0.0,0.0,0.0,0.0,0.0,0.0,0.0,0.0,0.0,5.3104,5.5464,5.7152,5.7997,5.7935,5.5978,5.3225,0.0,0.0,0.0,0.0,0.0,0.0,0.0,0.0,0.0,0.0,0.0,0.0,0.0,0.0,0.0,0.0,0.0,0.0,0.0,0.0,0.0,0.0,0.0,0.0,0.0,0.0,0.0,0.0,0.0,0.0,0.0,0.0,0.0,0.0,0.0,0.0,0.0,0.0,0.0,0.0,0.0,0.0,0.0,0.0,0.0,0.0,0.0,0.0,0.0,0.0,0.0,0.0,0.0,0.0,0.0,0.0,0.0,0.0,0.0,0.0,0.0,0.0,0.0,0.0,0.0,0.0,0.0,0.0,0.0,0.0,0.0,0.0,0.0,0.0,0.0,0.0,0.0,0.0,0.0,0.0,0.0,0.0,0.0,0.0,0.0,0.0,0.0,0.0,0.0,0.0,0.0,0.0,0.0,0.0,0.0,0.0,0.0,0.0,0.0,0.0,0.0,0.0,0.0,0.0,0.0,0.0,0.0,5.0902,5.4315,5.6884,5.7776,5.8143,5.7997,5.7226,5.4509,4.9701,0.0,0.0,0.0,0.0,0.0,0.0,0.0,0.0,0.0,0.0,0.0,0.0,0.0,0.0,0.0,0.0,0.0,0.0,0.0,0.0,0.0,0.0,0.0,0.0,0.0,0.0,0.0,0.0,0.0,0.0,0.0,0.0,0.0,0.0,0.0,0.0,0.0,0.0,4.1874,4.3884,0.0,0.0,0.0,0.0,0.0,0.0,0.0,0.0,4.4452,0.0,0.0,0.0,0.0,0.0,0.0,0.0,0.0,0.0,0.0,0.0,0.0,0.0,0.0,0.0,0.0,0.0,0.0,0.0,0.0,0.0,0.0,0.0,0.0,0.0,0.0,0.0,0.0,0.0,0.0,0.0,0.0,0.0,0.0,0.0,0.0,0.0,0.0,0.0,0.0,0.0,0.0,0.0,0.0,0.0,0.0,0.0,0.0,0.0,0.0,0.0,0.0,0.0,0.0,0.0,0.0,5.0886,5.1793,5.4006,5.7703,5.8572,5.8682,5.8033,5.7226,5.4509,4.9747,0.0,0.0,0.0,0.0,0.0,0.0,0.0,0.0,0.0,0.0,0.0,0.0,0.0,0.0,0.0,0.0,0.0,0.0,0.0,0.0,0.0,0.0,0.0,0.0,0.0,0.0,0.0,0.0,0.0,0.0,0.0,0.0,0.0,0.0,0.0,0.0,0.0,0.0,0.0,4.7049,4.7755,0.0,0.0,0.0,0.0,0.0,0.0,0.0,0.0,4.4718,0.0,0.0,0.0,0.0,0.0,0.0,0.0,0.0,0.0,0.0,0.0,0.0,0.0,0.0,0.0,0.0,0.0,0.0,0.0,0.0,0.0,0.0,0.0,0.0,0.0,0.0,0.0,0.0,0.0,0.0,0.0,0.0,0.0,0.0,0.0,0.0,0.0,0.0,0.0,0.0,0.0,0.0,0.0,0.0,0.0,0.0,0.0,0.0,0.0,0.0,0.0,0.0,0.0,0.0,0.0,4.9884,5.2968,5.5611,5.7923,5.8792,5.8829,5.7997,5.6014,5.3031,0.0,0.0,0.0,0.0,0.0,0.0,0.0,0.0,0.0,0.0,0.0,0.0,0.0,0.0,0.0,0.0,0.0,0.0,0.0,0.0,0.0,0.0,0.0,0.0,0.0,0.0,0.0,0.0,0.0,0.0,0.0,0.0,0.0,0.0,0.0,0.0,0.0,0.0,0.0,0.0,4.7783,4.859,4.9471,0.0,0.0,0.0,0.0,0.0,0.0,4.6131,4.5727,0.0,0.0,0.0,0.0,0.0,0.0,0.0,0.0,0.0,0.0,0.0,0.0,0.0,0.0,0.0,0.0,0.0,0.0,0.0,0.0,0.0,0.0,0.0,0.0,0.0,0.0,0.0,0.0,0.0,0.0,0.0,0.0,0.0,0.0,0.0,0.0,0.0,0.0,0.0,0.0,0.0,0.0,0.0,0.0,0.0,0.0,0.0,0.0,0.0,0.0,0.0,0.0,0.0,0.0,0.0,4.8333,5.3775,5.7042,5.7997,5.8939,5.8976,5.7997,5.5196,5.2003,0.0,0.0,0.0,0.0,0.0,0.0,0.0,0.0,0.0,0.0,0.0,0.0,0.0,0.0,0.0,0.0,0.0,0.0,0.0,0.0,0.0,0.0,0.0,0.0,0.0,0.0,0.0,0.0,0.0,0.0,0.0,0.0,0.0,0.0,0.0,0.0,0.0,0.0,0.0,0.0,0.0,4.9481,5.0618,4.9251,0.0,0.0,0.0,0.0,4.8406,4.8553,0.0,0.0,0.0,0.0,0.0,0.0,0.0,0.0,0.0,0.0,0.0,0.0,0.0,0.0,0.0,0.0,0.0,0.0,0.0,0.0,0.0,0.0,0.0,0.0,0.0,0.0,0.0,0.0,0.0,0.0,0.0,0.0,0.0,0.0,0.0,0.0,0.0,0.0,0.0,0.0,0.0,0.0,0.0,0.0,0.0,0.0,0.0,0.0,0.0,0.0,0.0,0.0,0.0,0.0,0.0,0.0,4.826,5.3188,5.6466,5.796,5.9465,5.9538,5.8033,5.6246,5.3115,0.0,0.0,0.0,0.0,0.0,0.0,0.0,0.0,0.0,0.0,0.0,0.0,0.0,0.0,0.0,0.0,0.0,0.0,0.0,0.0,0.0,0.0,0.0,0.0,0.0,0.0,0.0,0.0,0.0,0.0,0.0,0.0,0.0,0.0,0.0,0.0,0.0,0.0,0.0,0.0,0.0,5.1389,5.0875,5.1169,5.1436,0.0,0.0,5.183,5.3335,5.3555,0.0,0.0,0.0,0.0,0.0,0.0,0.0,0.0,0.0,0.0,0.0,0.0,0.0,0.0,0.0,0.0,0.0,0.0,0.0,0.0,0.0,0.0,0.0,0.0,0.0,0.0,0.0,0.0,0.0,0.0,0.0,0.0,0.0,0.0,0.0,0.0,0.0,0.0,0.0,0.0,0.0,0.0,0.0,0.0,0.0,0.0,0.0,0.0,0.0,0.0,0.0,0.0,0.0,0.0,0.0,4.5516,4.904,5.5133,5.8437,5.8719,5.982,5.9648,5.8033,5.5574,5.215,0.0,0.0,0.0,0.0,0.0,0.0,0.0,0.0,0.0,0.0,0.0,0.0,0.0,0.0,0.0,0.0,0.0,0.0,0.0,0.0,0.0,0.0,0.0,0.0,0.0,0.0,0.0,0.0,0.0,0.0,0.0,0.0,0.0,0.0,0.0,0.0,0.0,0.0,0.0,0.0,0.0,0.0,5.3382,5.3823,0.0,0.0,0.0,5.5328,5.5108,0.0,0.0,0.0,0.0,0.0,0.0,0.0,0.0,0.0,0.0,0.0,0.0,0.0,0.0,0.0,0.0,0.0,0.0,0.0,0.0,0.0,0.0,0.0,0.0,0.0,0.0,0.0,0.0,0.0,0.0,0.0,0.0,0.0,0.0,0.0,0.0,0.0,0.0,0.0,0.0,0.0,0.0,0.0,0.0,0.0,0.0,0.0,0.0,0.0,0.0,0.0,0.0,0.0,0.0,0.0,0.0,0.0,4.9601,5.6895,6.0297,5.9551,6.0077,5.9722,5.829,5.5563,0.0,0.0,0.0,0.0,0.0,0.0,0.0,0.0,0.0,0.0,0.0,0.0,0.0,0.0,0.0,0.0,0.0,0.0,0.0,0.0,0.0,0.0,0.0,0.0,0.0,0.0,0.0,3.3103,0.0,0.0,0.0,0.0,0.0,0.0,0.0,0.0,0.0,0.0,0.0,0.0,0.0,0.0,5.3492,5.5879,5.6539,5.709,0.0,0.0,5.8253,5.7274,5.8118,5.6907,0.0,0.0,0.0,0.0,0.0,0.0,0.0,0.0,0.0,0.0,0.0,0.0,0.0,0.0,0.0,0.0,0.0,0.0,0.0,0.0,0.0,0.0,0.0,0.0,0.0,0.0,0.0,0.0,0.0,0.0,0.0,0.0,0.0,0.0,0.0,0.0,0.0,0.0,0.0,0.0,0.0,0.0,0.0,0.0,0.0,0.0,0.0,0.0,0.0,0.0,0.0,0.0,0.0,0.0,4.7856,4.9784,5.7457,6.1117,6.0334,6.0382,6.0003,5.9123,5.7471,5.3911,0.0,0.0,0.0,0.0,0.0,0.0,0.0,0.0,0.0,0.0,0.0,0.0,0.0,0.0,0.0,0.0,0.0,0.0,0.0,0.0,0.0,0.0,0.0,0.0,0.0,0.0,0.0,0.0,0.0,0.0,0.0,0.0,0.0,0.0,0.0,0.0,0.0,0.0,0.0,0.0,0.0,5.5133,5.7519,5.9134,6.119,0.0,6.2132,6.0456,6.108,6.1276,5.9183,5.2868,0.0,0.0,0.0,0.0,0.0,0.0,0.0,0.0,0.0,0.0,0.0,0.0,0.0,0.0,0.0,0.0,0.0,0.0,0.0,0.0,0.0,0.0,0.0,0.0,0.0,0.0,0.0,0.0,0.0,0.0,0.0,0.0,0.0,0.0,0.0,0.0,0.0,0.0,0.0,0.0,0.0,0.0,0.0,0.0,0.0,0.0,0.0,0.0,0.0,0.0,0.0,0.0,0.0,4.8406,5.1106,5.8008,6.1447,6.1153,6.0639,6.0003,5.9221,5.8095,5.4656,0.0,0.0,0.0,0.0,0.0,0.0,0.0,0.0,0.0,0.0,0.0,0.0,0.0,0.0,0.0,0.0,0.0,0.0,0.0,0.0,0.0,0.0,0.0,0.0,0.0,0.0,0.0,0.0,3.9811,4.0296,4.0598,0.0,0.0,0.0,0.0,0.0,0.0,0.0,0.0,0.0,0.0,5.8425,6.1337,6.3135,0.0,0.0,6.4383,6.4273,6.2585,6.2328,6.0493,5.5071,5.3371,0.0,0.0,0.0,0.0,0.0,0.0,0.0,0.0,0.0,0.0,0.0,0.0,0.0,0.0,0.0,0.0,0.0,0.0,0.0,0.0,0.0,0.0,0.0,0.0,0.0,0.0,0.0,0.0,0.0,0.0,0.0,0.0,0.0,0.0,0.0,0.0,0.0,0.0,0.0,0.0,0.0,0.0,0.0,0.0,0.0,0.0,0.0,0.0,0.0,0.0,0.0,0.0,4.8967,5.1987,5.8327,6.1704,6.1961,6.0933,6.0114,5.9563,5.8535,5.528,0.0,0.0,0.0,0.0,0.0,0.0,0.0,0.0,0.0,0.0,0.0,0.0,0.0,0.0,0.0,0.0,0.0,0.0,0.0,0.0,0.0,0.0,0.0,0.0,0.0,0.0,0.0,0.0,4.147,4.1287,4.081,0.0,0.0,0.0,0.0,0.0,0.0,0.0,0.0,0.0,0.0,6.1288,6.4053,6.5411,6.5888,6.5081,6.5448,6.5338,6.3783,6.3123,6.1251,5.6712,0.0,0.0,0.0,0.0,0.0,0.0,0.0,0.0,0.0,0.0,0.0,0.0,0.0,0.0,0.0,0.0,0.0,0.0,0.0,0.0,0.0,0.0,0.0,0.0,0.0,0.0,0.0,3.0203,0.0,0.0,2.8439,0.0,0.0,0.0,0.0,0.0,0.0,0.0,0.0,0.0,0.0,0.0,0.0,0.0,0.0,0.0,0.0,0.0,0.0,0.0,0.0,0.0,0.0,4.9481,5.206,5.8338,6.1961,6.2683,6.1215,6.037,6.0309,5.8841,5.6088,5.1987,0.0,0.0,0.0,0.0,0.0,0.0,0.0,0.0,0.0,0.0,0.0,0.0,0.0,0.0,0.0,0.0,0.0,0.0,0.0,0.0,0.0,0.0,0.0,0.0,0.0,0.0,4.2168,4.2278,4.1662,0.0,0.0,0.0,0.0,0.0,0.0,0.0,0.0,0.0,5.6407,6.0224,6.3343,6.5031,6.5375,6.6576,6.9316,6.5364,6.2683,6.4923,6.3882,6.1435,0.0,0.0,0.0,0.0,0.0,0.0,0.0,0.0,0.0,0.0,0.0,0.0,0.0,0.0,0.0,0.0,0.0,0.0,0.0,0.0,0.0,0.0,0.0,0.0,0.0,0.0,0.0,3.912,3.6499,0.0,0.0,0.0,0.0,0.0,0.0,0.0,0.0,0.0,0.0,0.0,4.9194,5.1316,0.0,0.0,0.0,0.0,0.0,0.0,0.0,0.0,0.0,0.0,0.0,0.0,4.9507,5.3592,5.8327,6.119,6.1924,6.097,6.0162,5.96,5.8547,5.6124,5.2134,0.0,0.0,0.0,0.0,0.0,0.0,0.0,0.0,0.0,0.0,0.0,0.0,0.0,0.0,0.0,0.0,0.0,0.0,0.0,0.0,0.0,0.0,0.0,0.0,0.0,4.2029,0.0,0.0,0.0,0.0,0.0,0.0,0.0,0.0,0.0,0.0,5.4278,5.7997,6.1227,6.42,6.6256,6.6819,6.9052,7.0061,0.0,0.0,0.0,0.0,0.0,0.0,0.0,0.0,0.0,0.0,0.0,0.0,0.0,0.0,6.7694,5.9518,5.6895,5.6088,5.6345,0.0,0.0,0.0,0.0,0.0,0.0,0.0,0.0,0.0,0.0,0.0,0.0,0.0,0.0,4.491,4.2986,4.1907,0.0,0.0,0.0,0.0,0.0,0.0,0.0,0.0,5.1473,5.4142,5.4997,5.6974,5.6693,0.0,5.3789,5.0462,0.0,0.0,0.0,0.0,0.0,0.0,0.0,0.0,5.0645,5.517,5.8914,6.1227,6.1924,6.097,6.015,5.9636,5.8279,5.6088,5.2941,4.9994,4.7526,0.0,0.0,0.0,0.0,0.0,0.0,0.0,0.0,0.0,0.0,0.0,0.0,0.0,0.0,0.0,0.0,0.0,0.0,0.0,0.0,0.0,0.0,0.0,4.2902,0.0,0.0,0.0,0.0,0.0,0.0,0.0,0.0,0.0,5.5544,5.9306,6.3223,6.6086,6.7561,6.8622,6.942,0.0,0.0,0.0,0.0,0.0,0.0,0.0,6.6427,6.7796,6.7418,6.7406,6.9041,7.1965,7.3887,7.3045,0.0,0.0,6.5905,6.3537,6.2812,6.2887,6.3785,6.4405,6.4093,6.5789,6.7227,0.0,0.0,0.0,0.0,0.0,0.0,0.0,0.0,4.9888,4.983,0.0,4.7997,0.0,0.0,0.0,0.0,4.1939,4.871,0.0,0.0,5.8568,6.1226,6.0625,6.1789,6.2011,6.1267,6.1119,5.9291,5.5626,4.9158,0.0,0.0,0.0,0.0,0.0,0.0,5.2899,5.6816,6.0025,6.1985,6.2647,6.1226,6.0394,6.0236,5.8058,5.6124,5.4583,5.3702,5.1453,4.7516,4.5002,0.0,0.0,0.0,0.0,0.0,0.0,0.0,0.0,0.0,0.0,0.0,0.0,0.0,0.0,0.0,0.0,0.0,0.0,0.0,0.0,4.3791,0.0,0.0,0.0,0.0,0.0,0.0,0.0,0.0,0.0,6.4206,6.0397,6.4485,6.8641,7.0648,0.0,0.0,0.0,0.0,7.053,7.3598,7.1498,7.0374,7.2584,7.2826,7.2299,7.0997,0.0,0.0,7.2396,7.4598,7.599,7.3691,7.531,7.6646,7.6507,7.3564,7.17,7.1839,7.0275,6.9481,7.0735,7.1653,7.267,5.949,0.0,0.0,0.0,0.0,5.5881,5.7594,6.0542,5.9957,5.8126,5.5389,5.4408,0.0,0.0,0.0,0.0,0.0,0.0,5.5128,5.774,6.0711,6.2743,6.4011,6.4913,6.4939,6.4189,6.4152,6.3343,6.1667,5.8852,5.3072,4.4694,0.0,0.0,0.0,0.0,5.5622,5.8499,6.1131,6.2353,6.2012,6.1277,6.0203,5.8742,5.8033,5.7446,5.6969,5.6187,5.4682,5.238,4.9444,0.0,0.0,0.0,0.0,0.0,0.0,0.0,0.0,0.0,0.0,0.0,0.0,0.0,0.0,0.0,0.0,0.0,0.0,0.0,4.3819,4.4648,4.6108,0.0,0.0,0.0,0.0,0.0,0.0,0.0,0.0,0.0,6.9858,7.121,7.2255,0.0,0.0,7.3241,7.2135,7.3673,7.4884,7.4636,7.5101,0.0,7.4828,7.3515,7.3285,7.5485,7.7645,7.8777,7.8073,7.9272,8.0061,7.932,7.9804,8.0279,8.0096,7.7494,7.5307,7.5217,7.5388,7.5577,7.579,7.6695,7.7484,6.725,6.1957,5.9956,6.026,6.2015,6.1918,6.3298,6.5623,6.516,6.3744,6.1728,6.0652,5.7962,5.4188,5.2954,0.0,0.0,0.0,5.9667,6.2116,6.3766,6.5175,6.6391,6.7053,6.7095,6.6614,6.6312,6.5993,6.5639,6.4396,5.9719,5.1939,0.0,5.2129,5.1258,5.5073,5.8254,6.0614,6.2436,6.314,6.266,6.1783,6.0592,5.9038,5.8672,5.8402,5.8227,5.7774,5.6838,5.5401,5.2894,4.9858,0.0,0.0,0.0,0.0,0.0,0.0,0.0,0.0,0.0,0.0,0.0,4.088,3.864,0.0,0.0,0.0,4.4437,4.6454,4.9094,5.0554,0.0,0.0,0.0,0.0,0.0,0.0,0.0,6.8637,7.2369,7.4929,7.558,7.6224,7.6387,7.5625,7.5554,7.548,7.5191,0.0,7.7045,7.7045,7.7884,7.8252,7.7564,7.6416,7.6436,7.8597,7.978,8.0621,8.1003,8.1461,8.192,8.2187,8.2264,8.2264,8.2264,8.0494,7.8737,7.7991,7.87,7.9318,7.9047,7.9634,8.0168,7.3413,7.2283,6.7611,6.5669,6.574,6.6486,6.6846,6.688,6.688,6.721,6.7664,6.6242,6.4299,6.1924,6.022,0.0,6.0661,6.3351,6.4986,6.5785,6.7334,6.8059,6.8111,6.848,6.8649,6.8649,6.79,6.7744,6.8026,6.6861,6.4757,6.1831,5.9421,5.8224,5.82,5.9142,6.0781,6.2956,6.3802,6.4186,6.4034,6.2493,6.1281,6.0482,5.9675,5.9036,5.8669,5.8648,5.8116,5.6993,5.5463,5.2825,4.8926,0.0,0.0,0.0,0.0,0.0,0.0,0.0,0.0,0.0,0.0,0.0,0.0,0.0,0.0,4.7591,5.0644,0.0,5.65,5.9279,0.0,0.0,0.0,6.4143,6.5342,6.9096,7.1949,7.2852,0.0,0.0,7.8299,7.956,8.0306,7.9836,7.78,7.7346,8.0001,7.8386,7.7831,7.9991,7.9818,7.9675,8.0047,8.0115,8.0067,8.0315,8.0506,8.0812,8.1576,8.1881,8.2187,8.2961,8.3114,8.3114,8.3114,8.2884,8.2348,8.033,8.058,8.116,8.1122,8.1133,8.1326,7.5065,7.4243,7.3047,7.1822,7.0751,7.0948,7.0706,7.0169,7.0132,6.9596,6.8605,6.8224,6.7226,6.5887,6.5752,6.5816,6.6057,6.7347,6.8241,6.8773,6.9151,6.9503,6.9813,6.9908,6.9942,6.9942,6.976,6.9726,6.9761,6.8886,6.806,6.7283,6.6024,6.3107,5.8848,6.1536,6.3305,6.3891,6.4682,6.4673,6.373,6.2039,6.0963,6.0501,5.9637,5.9169,5.9074,5.9065,5.8914,5.8593,5.7051,5.5164,5.2919,4.8174,0.0,0.0,0.0,0.0,0.0,0.0,0.0,0.0,0.0,4.8866,4.3352,0.0,5.2355,0.0,5.6302,5.876,5.9576,6.1609,0.0,0.0,6.8204,6.9679,7.4219,7.4857,7.5645,7.7436,7.9196,8.0195,8.0004,8.031,8.0578,8.0512,7.9886,7.9495,7.9627,7.9665,7.978,8.0362,8.0324,8.0286,8.0468,8.0506,8.0506,8.0506,8.0506,8.0812,8.1652,8.2302,8.2999,8.3802,8.3983,8.3983,8.3993,8.3458,8.2903,8.2338,8.2395,8.2509,8.2547,8.2509,8.2539,7.6864,7.6671,7.6671,7.5966,7.4741,7.379,7.3125,7.2733,7.2582,7.1797,7.0622,7.0263,6.973,6.9217,6.9654,6.9662,6.934,6.9965,7.0194,7.0073,7.0073,7.0187,7.0411,7.0411,7.0411,7.0411,7.0411,7.0411,7.0372,6.996,6.9578,6.9196,6.8707,6.6383,6.2521,6.4283,6.5108,6.4771,6.5184,6.5062,6.44,6.2701,6.1587,6.0989,6.0177,5.9291,5.8403,5.8705,5.8438,5.7536,5.6617,5.5547,5.4313,5.087,4.8493,0.0,0.0,0.0,0.0,0.0,0.0,0.0,0.0,0.0,0.0,0.0,5.725,5.9038,6.2307,6.5059,6.6871,6.885,7.1327,7.451,7.4609,7.5723,7.8924,7.895,7.938,8.0902,8.1195,8.1259,8.1259,8.0906,8.0732,8.0784,8.0705,8.049,8.0098,8.0339,8.0532,8.0532,8.0532,8.0552,8.0515,8.0506,8.0506,8.0544,8.085,8.1356,8.2244,8.3095,8.3917,8.4758,8.4959,8.4959,8.4968,8.4614,8.4241,8.4241,8.4241,8.4089,8.3668,8.3572,8.3572,7.8495,7.8891,7.8891,7.849,7.7715,7.5819,7.4856,7.4594,7.4308,7.3721,7.2906,7.2169,7.1825,7.1896,7.2314,7.2073,7.1285,7.1811,7.1565,7.0754,7.0763,7.0686,7.0563,7.0572,7.0525,7.0411,7.0411,7.0411,7.0411,7.0411,7.0075,6.9387,6.9349,6.8585,6.7087,6.701,6.6483,6.5413,6.5413,6.5413,6.5375,6.377,6.2541,6.1776,6.079,5.9364,5.7628,5.8197,5.7751,5.6014,5.5989,5.5705,5.4919,5.3301,5.2383,0.0,5.093,0.0,0.0,0.0,0.0,0.0,0.0,0.0,0.0,6.0783,6.2791,6.5322,6.846,7.1727,7.5047,7.7108,7.8641,7.9492,8.0289,8.0831,8.0946,8.1645,8.2373,8.3072,8.2544,8.2084,8.1854,8.1278,8.0809,8.0835,8.0801,8.0754,8.0818,8.0702,8.0632,8.0632,8.0632,8.0614,8.058,8.0552,8.06,8.0782,8.1288,8.2177,8.3188,8.3924,8.4709,8.552,8.5721,8.5768,8.5777,8.5768,8.573,8.5644,8.5644,8.5406,8.4739,8.45,8.448,7.8804,7.8891,7.8891,7.8828,7.8615,7.7994,7.6734,7.513,7.5075,7.4584,7.3744,7.3328,7.3144,7.3174,7.362,7.341,7.2655,7.3403,7.3284,7.252,7.252,7.2138,7.1459,7.1459,7.1068,7.0449,7.0411,7.0411,7.0411,7.0411,7.0334,7.0181,7.0181,6.9693,6.8776,0.0,0.0,0.0,6.5413,6.5413,6.5337,6.377,6.2815,6.2617,6.0516,0.0,5.879,5.8904,5.8799,5.8475,5.9046,0.0,0.0,0.0,0.0,0.0,0.0,0.0,0.0,0.0,0.0,0.0,6.4478,6.3047,6.2367,6.7951,7.1598,7.1548,7.4566,7.6854,7.7607,7.8586,7.9587,8.043,8.0707,8.1061,8.176,8.2028,8.2143,8.2296,8.225,8.1908,8.1324,8.0978,8.0965,8.106,8.0923,8.086,8.1068,8.0907,8.0775,8.0767,8.0767,8.0758,8.0741,8.077,8.103,8.1592,8.1899,8.2674,8.3948,8.4417,8.4839,8.5633,8.5777,8.5777,8.5777,8.5777,8.5786,8.5777,8.5777,8.5721,8.5569,8.5531,8.5503,7.9449,7.9659,7.967,7.9708,0.0,7.9533,7.8628,7.7265,7.68,7.6145,7.5332,7.4733,7.4486,7.4495,7.4725,7.4393,7.3628,7.401,7.3781,7.3025,7.3029,7.28,7.2338,7.1999,7.157,7.1038,7.0699,7.0499,7.0419,7.0459,7.0451,7.0419,7.0451,7.0093,6.926,6.8878,6.7829,6.6063,6.5605,6.5413,6.5337,6.4191,6.3121,6.2242,6.1012,0.0,0.0,0.0,0.0,0.0,0.0,0.0,0.0,0.0,0.0,6.1387,6.0973,6.1584,6.3602,6.4602,6.6825,7.0634,7.18,7.1258,6.8839,7.2976,7.5836,7.6257,7.79,7.9067,7.9489,7.9914,8.0361,8.0783,8.0893,8.1426,8.2586,8.2855,8.3009,8.3431,8.3503,8.3182,8.2336,8.2259,8.2045,8.1777,8.1636,8.1574,8.16,8.1212,8.086,8.0852,8.0818,8.0946,8.1376,8.1453,8.1721,8.2488,8.3063,8.3656,8.4497,8.5005,8.5445,8.5864,8.5949,8.5949,8.5949,8.5949,8.5949,8.5949,8.5958,8.5949,8.5949,8.5879,8.5797,8.0081,8.0506,8.0506,8.0506,8.0506,8.0506,8.0133,7.9445,7.8443,0.0,0.0,7.6074,7.5739,7.57,7.5548,7.5127,7.4431,7.4439,7.4074,7.3471,7.3524,7.3448,7.3229,7.2708,7.2287,7.1937,7.1413,7.0984,7.0697,7.0914,7.0837,7.0514,7.0722,7.0417,6.9544,6.8799,6.8004,6.7179,6.6338,6.5803,6.565,6.4854,6.3707,6.2132,6.1788,6.0679,5.8729,5.9439,5.9594,5.8949,5.9383,6.0527,6.2445,6.2835,6.4555,6.7885,6.8498,6.945,7.1252,7.2188,7.317,7.4259,7.7091,7.7842,7.5555,7.679,7.8256,7.9637,7.9761,8.0084,8.0767,8.0902,8.0951,8.0951,8.1015,8.1708,8.3101,8.337,8.3508,8.4324,8.4431,8.4324,8.3401,8.3401,8.3255,8.2516,8.2239,8.2324,8.22,8.1691,8.1297,8.148,8.1401,8.1427,8.2118,8.2357,8.2685,8.347,8.4152,8.4668,8.4998,8.5523,8.598,8.606,8.6094,8.6085,8.6085,8.6077,8.6094,8.6094,8.6094,8.6094,8.6077,8.5975,8.587,8.0411,8.0506,8.0506,8.0506,8.0506,8.0506,8.043,8.02,7.871,7.7946,7.7755,7.6914,7.6532,7.6494,7.5815,7.5433,7.5327,7.5387,7.5353,7.5238,7.5291,7.4978,7.4311,7.4181,7.376,7.3023,7.2886,7.2464,7.1904,7.2448,7.2103,7.0907,7.1413,7.1344,7.0501,6.9665,6.9159,6.8991,6.8232,6.742,6.6691,6.5855,6.4974,6.4008,6.2629,6.1715,6.137,6.2112,6.2502,6.2425,6.4471,6.5545,6.5238,6.6542,6.7578,6.8222,6.9526,7.1405,7.3791,7.4812,7.6379,7.8669,8.0023,8.0152,7.8977,7.9755,8.0449,8.0679,8.0744,8.0907,8.1061,8.1061,8.1069,8.1069,8.1085,8.1477,8.2439,8.2554,8.2631,8.2785,8.3324,8.3516,8.2785,8.3216,8.3332,8.2554,8.2401,8.2362,8.2439,8.22,8.2423,8.2923,8.2569,8.2522,8.316,8.3368,8.3698,8.4552,8.4775,8.5112,8.559,8.5906,8.6069,8.6085,8.6094,8.6094,8.6094,8.6094,8.6094,8.6094,8.6094,8.6094,8.6094,8.6052,8.6056,8.0506,8.0506,8.0506,8.0506,8.0506,8.0506,8.0534,8.0512,7.9748,7.9138,7.8605,7.7388,7.6794,7.6726,7.5974,7.5616,7.5616,7.5649,7.5666,7.5674,7.5763,7.5579,7.5164,7.4781,7.4359,7.3898,7.3522,7.31,7.2717,7.3054,7.2632,7.1444,7.1405,7.118,7.0801,7.041,7.0217,7.0179,6.8879,6.7801,6.6912,6.6957,6.6382,6.5078,6.474,6.4394,6.3973,6.4358,6.4992,6.5875,6.7054,6.8157,6.9194,6.9963,7.0762,7.1684,7.2875,7.4304,7.5918,7.7255,7.8746,8.0362,8.0862,8.0907,8.0413,8.0783,8.0999,8.0999,8.1069,8.1093,8.1093,8.1093,8.1093,8.1093,8.1093,8.1439,8.2208,8.2755,8.2832,8.2554,8.3901,8.4247,8.2516,8.3478,8.3747,8.2631,8.2631,8.3139,8.3593,8.367,8.3632,8.3601,8.3293,8.3401,8.4093,8.4286,8.4478,8.4863,8.5286,8.5478,8.5585,8.5739,8.6055,8.6094,8.6094,8.6094,8.6094,8.6094,8.6094,8.6094,8.6094,8.6094,8.6094,8.6094,8.606,8.0506,8.0506,8.0496,8.0552,8.0571,8.058,8.0578,8.0641,8.0641,8.0261,7.9489,7.8088,7.7386,7.7126,7.6358,7.5884,7.5739,7.5716,7.5755,7.5771,7.5879,7.5849,7.5733,7.5225,7.4949,7.4812,7.4303,7.3911,7.3584,7.3782,7.3352,7.2348,7.1516,7.1035,7.0898,7.0898,7.0898,7.0815,6.9519,6.8388,6.7582,6.8196,6.7774,6.643,6.6859,6.6936,6.636,6.653,6.7364,6.8785,6.9134,7.0244,7.2322,7.2668,7.3437,7.4861,7.5822,7.6746,7.7823,7.9246,8.04,8.1016,8.1093,8.1093,8.1093,8.1093,8.1093,8.1093,8.1093,8.1093,8.1093,8.1093,8.1093,8.1093,8.1093,8.1439,8.2208,8.2755,8.2909,8.2593,8.4055,8.4362,8.3131,8.3632,8.3901,8.2747,8.2909,8.3632,8.4401,8.4593,8.4324,8.4055,8.3755,8.3901,8.4709,8.467,8.4555,8.4632,8.5055,8.517,8.5055,8.5478,8.5901,8.6017,8.6094,8.6094,8.6094,8.6094,8.6094,8.6094,8.6094,8.6094,8.6094,8.6094,8.6077,8.0515,8.0525,8.0569,8.065,8.0758,8.0767,8.0767,8.0784,8.0784,8.0775,8.0507,7.9672,7.8837,7.81,7.7273,7.6476,7.5824,7.5848,7.5918,7.5926,7.5963,7.6,7.5947,7.5892,7.5892,7.5831,7.57,7.5231,7.4632,7.5262,7.4885,7.3454,7.25,7.1661,7.1014,7.0898,7.0898,7.0898,7.0731,7.0262,6.9493,6.9532,6.9102,6.8186,6.8218,6.8218,6.8211,6.8923,6.9731,7.0622,7.1398,7.2322,7.3322,7.4084,7.4899,7.5822,7.6707,7.7861,7.94,8.0439,8.0977,8.1093,8.1093,8.1093,8.1093,8.1093,8.1093,8.1093,8.1093,8.1093,8.1093,8.1093,8.1093,8.1093,8.1093,8.1439,8.2016,8.1708,8.1554,8.2247,8.2708,8.2516,8.2439,8.3016,8.3247,8.2477,8.2439,8.2901,8.367,8.3862,8.4055,8.4362,8.4132,8.3978,8.4516,8.4209,8.3862,8.3785,8.3832,8.4209,8.467,8.4978,8.5247,8.6017,8.6094,8.6094,8.6094,8.6094,8.6094,8.6094,8.6094,8.6094,8.6094,8.6094,8.6077,8.0679,8.0679,8.0685,8.0758,8.0792,8.0792,8.0826,8.0868,8.083,8.0902,8.0951,8.0613,7.9966,7.9073,7.8284,7.7693,7.7347,7.7416,7.7162,7.6778,7.6777,7.6522,7.6015,7.5976,7.5976,7.5976,7.5976,7.5822,7.5476,7.5315,7.4853,7.4123,7.286,7.2021,7.1629,7.1168,7.0898,7.0898,7.0898,7.0744,7.0475,7.0437,7.0014,6.9314,6.9629,7.0129,7.0591,7.1014,7.1783,7.3053,7.3514,7.4091,7.4938,7.5284,7.5861,7.6746,7.8054,7.9323,8.0477,8.09,8.1093,8.1093,8.1093,8.1093,8.1093,8.1093,8.1093,8.1093,8.1093,8.1093,8.1093,8.1093,8.1093,8.1093,8.1093,8.1246,8.1516,8.1708,8.1823,8.1708,8.2477,8.2601,8.19,8.19,8.217,8.2208,8.2285,8.2593,8.3409,8.3601,8.3755,8.3901,8.3401,8.3247,8.3862,8.387,8.3409,8.3131,8.3747,8.4516,8.4209,8.5132,8.5747,8.6055,8.6094,8.6094,8.6094,8.6094,8.6094,8.6094,8.6094,8.6094,8.6094,8.6094,8.6094,8.0792,8.0801,8.0818,8.0843,8.0907,8.0907,8.0902,8.0959,8.0959,8.1037,8.1085,8.1093,8.0754,8.0053,7.9223,7.8754,7.8523,7.8484,7.8061,7.7361,7.7284,7.683,7.6053,7.5976,7.5976,7.5976,7.5976,7.5976,7.5938,7.5399,7.493,7.4546,7.3476,7.2783,7.2514,7.1898,7.1629,7.1629,7.1629,7.1629,7.1629,7.1629,7.1245,7.0514,7.0937,7.1668,7.2514,7.2552,7.3206,7.4584,7.47,7.5091,7.5938,7.6207,7.6823,7.7938,7.9361,8.04,8.1054,8.1093,8.1093,8.1093,8.1093,8.1093,8.1093,8.1093,8.1093,8.1093,8.1093,8.1093,8.1093,8.1093,8.1093,8.1093,8.1093,8.117,8.1477,8.1823,8.1785,8.1593,8.2208,8.2524,8.14,8.117,8.14,8.1823,8.1939,8.2285,8.2947,8.3024,8.2909,8.3139,8.2516,8.2401,8.3024,8.2909,8.2639,8.2793,8.3401,8.3824,8.367,8.4939,8.5747,8.5555,8.5863,8.6094,8.6094,8.6094,8.6094,8.6094,8.6094,8.6094,8.6094,8.6094,8.6094,8.0792,8.0809,8.0885,8.0967,8.1077,8.1077,8.1077,8.1077,8.1085,8.1085,8.1093,8.1093,8.1046,8.0931,8.0085,7.9323,7.8638,7.8638,7.8215,7.7484,7.7369,7.6861,7.6015,7.5976,7.5976,7.5976,7.5976,7.5976,7.5976,7.5938,7.5507,7.4738,7.4546,7.4168,7.3546,7.3276,7.3353,7.3199,7.3199,7.3276,7.3315,7.3315,7.2899,7.2168,7.2136,7.2552,7.3315,7.343,7.3853,7.4707,7.4776,7.5123,7.5976,7.6823,7.8015,7.9469,8.0477,8.1016,8.1054,8.1093,8.1093,8.1093,8.1093,8.1093,8.1093,8.1093,8.1093,8.1093,8.1093,8.1093,8.1093,8.1093,8.1093,8.1093,8.1093,8.14,8.2093,8.1593,8.1593,8.1862,8.1708,8.14,8.1131,8.1093,8.1131,8.1208,8.1208,8.1477,8.2054,8.1785,8.1747,8.2054,8.1823,8.1439,8.2093,8.2247,8.1977,8.2324,8.2909,8.2978,8.3632,8.4286,8.4747,8.5209,8.5739,8.6047,8.6094,8.6094,8.6094,8.6094,8.6094,8.6094,8.6094,8.6094,8.6094,8.0997,8.1005,8.1037,8.1061,8.1093,8.1093,8.1093,8.1093,8.1093,8.1093,8.1093,8.1093,8.1093,8.1093,8.0785,8.0477,8.0169,8.0169,7.9708,7.89,7.8323,7.7638,7.6823,7.6284,7.5976,7.5976,7.5976,7.5976,7.5976,7.5976,7.5861,7.5476,7.4969,7.4546,7.4238,7.3738,7.3507,7.3507,7.3507,7.3507,7.3546,7.3507,7.3546,7.3745,7.3283,7.343,7.4238,7.4276,7.4661,7.5476,7.5515,7.5938,7.6823,7.8169,7.9131,7.9777,8.0592,8.1093,8.1093,8.1093,8.1093,8.1093,8.1093,8.1093,8.1093,8.1093,8.1093,8.1093,8.1093,8.1093,8.1093,8.1093,8.1093,8.1093,8.1093,8.1208,8.1516,8.1708,8.1823,8.1554,8.1246,8.1093,8.1093,8.1093,8.1093,8.1093,8.1093,8.1246,8.14,8.1246,8.1246,8.14,8.1323,8.14,8.217,8.2131,8.2131,8.2793,8.3332,8.3708,8.4286,8.4593,8.5047,8.5431,8.5854,8.6047,8.6094,8.6094,8.6094,8.6094,8.6094,8.6094,8.6094,8.6094,8.6094,8.1093,8.1093,8.1093,8.1093,8.1093,8.1093,8.1093,8.1093,8.1093,8.1093,8.1093,8.1093,8.1093,8.1093,8.1093,8.1093,8.1093,8.1054,8.0631,7.9823,7.9169,7.8484,7.7676,7.6823,7.6399,7.6361,7.6092,7.5976,7.5976,7.5976,7.5976,7.5938,7.5392,7.513,7.5014,7.4553,7.4322,7.4322,7.4315,7.4322,7.4315,7.4315,7.4546,7.4938,7.4591,7.4546,7.5091,7.513,7.5361,7.5938,7.6245,7.6938,7.8092,7.9169,7.9939,8.0246,8.0746,8.1093,8.1093,8.1093,8.1093,8.1093,8.1093,8.1093,8.1093,8.1093,8.1093,8.1093,8.1093,8.1093,8.1093,8.1093,8.1093,8.1093,8.1093,8.1093,8.1131,8.1593,8.1593,8.1246,8.1131,8.1093,8.1093,8.1093,8.1093,8.1093,8.1093,8.1093,8.1093,8.1093,8.1093,8.1093,8.1131,8.167,8.2439,8.2747,8.3016,8.3632,8.3901,8.4362,8.4709,8.5008,8.5239,8.5624,8.5893,8.6017,8.6094,8.6094,8.6094,8.6094,8.6094,8.6094,8.6094,8.6094,8.6094,8.1093,8.1093,8.1093,8.1093,8.1093,8.1093,8.1093,8.1093,8.1093,8.1093,8.1093,8.1093,8.1093,8.1093,8.1093,8.1093,8.1093,8.1093,8.0708,7.9977,7.9785,7.9285,7.8484,7.7676,7.7292,7.7246,7.6438,7.6053,7.613,7.6053,7.5976,7.5976,7.5938,7.5822,7.5976,7.5784,7.5822,7.5784,7.5745,7.5822,7.5976,7.5784,7.5822,7.5976,7.5938,7.5976,7.6053,7.6053,7.6053,7.6169,7.6861,7.8054,7.9361,7.9823,8.0208,8.0862,8.1093,8.1093,8.1093,8.1093,8.1093,8.1093,8.1093,8.1093,8.1093,8.1093,8.1093,8.1093,8.1093,8.1093,8.1093,8.1093,8.1093,8.1093,8.1093,8.1093,8.1093,8.1093,8.1131,8.117,8.117,8.1093,8.1093,8.1093,8.1093,8.1093,8.1093,8.1093,8.1093,8.1093,8.1093,8.1093,8.1131,8.1593,8.2631,8.3593,8.4055,8.4516,8.4585,8.4816,8.5047,8.5316,8.5354,8.5662,8.5931,8.6055,8.6094,8.6094,8.6094,8.6094,8.6094,8.6094,8.6094,8.6094,8.6094,8.1093,8.1093,8.1093,8.1093,8.1093,8.1093,8.1093,8.1093,8.1093,8.1093,8.1093,8.1093,8.1093,8.1093,8.1093,8.1093,8.1093,8.1093,8.0939,8.0631,8.0092,7.97,7.9285,7.8515,7.8138,7.7984,7.7292,7.6899,7.6791,7.6284,7.5976,7.5976,7.5976,7.5976,7.6015,7.5976,7.5976,7.5976,7.5976,7.5976,7.5976,7.6015,7.6284,7.683,7.6907,7.713,7.7676,7.7215,7.6899,7.6907,7.7676,7.8631,7.9662,8.0362,8.0823,8.1054,8.1093,8.1093,8.1093,8.1093,8.1093,8.1093,8.1093,8.1093,8.1093,8.1093,8.1093,8.1093,8.1093,8.1093,8.1093,8.1093,8.1093,8.1093,8.1093,8.1093,8.1093,8.1093,8.1362,8.1747,8.1439,8.1131,8.1093,8.1093,8.1093,8.1093,8.1093,8.1093,8.1093,8.1093,8.1093,8.1093,8.1246,8.1439,8.2401,8.3062,8.3439,8.417,8.4593,8.497,8.5239,8.5508,8.5547,8.5662,8.5931,8.6047,8.6094,8.6094,8.6094,8.6094,8.6094,8.6094,8.6094,8.6094,8.6094,8.1093,8.1093,8.1093,8.1093,8.1093,8.1093,8.1093,8.1093,8.1093,8.1093,8.1093,8.1093,8.1093,8.1093,8.1093,8.1093,8.1093,8.1093,8.1093,8.1016,8.0592,8.0285,8.0169,7.94,7.8746,7.8369,7.7676,7.7323,7.7253,7.6438,7.5976,7.5976,7.5976,7.6169,7.6438,7.6476,7.6476,7.6476,7.6515,7.6476,7.6476,7.6476,7.6907,7.7599,7.7753,7.8023,7.8446,7.8284,7.8092,7.7984,7.8561,7.9361,8.02,8.0785,8.1093,8.1093,8.1093,8.1093,8.1093,8.1093,8.1093,8.1093,8.1093,8.1093,8.1093,8.1093,8.1093,8.1093,8.1093,8.1093,8.1093,8.1093,8.1093,8.1093,8.1093,8.1093,8.1093,8.1093,8.1246,8.1554,8.1362,8.1131,8.1093,8.1093,8.1093,8.1093,8.1093,8.1093,8.1093,8.1093,8.1093,8.1093,8.1131,8.1516,8.2131,8.2516,8.2755,8.3555,8.4401,8.4824,8.5239,8.5555,8.5709,8.5863,8.6055,8.6055,8.6094,8.6094,8.6094,8.6094,8.6094,8.6094,8.6094,8.6094,8.6094,8.1093,8.1093,8.1093,8.1093,8.1093,8.1093,8.1093,8.1093,8.1093,8.1093,8.1093,8.1093,8.1093,8.1093,8.1093,8.1093,8.1093,8.1093,8.1093,8.1093,8.0977,8.0977,8.0823,8.0208,7.9554,7.883,7.8015,7.7522,7.7484,7.663,7.6053,7.6169,7.6245,7.6553,7.7215,7.7369,7.733,7.7361,7.7369,7.7369,7.7369,7.7369,7.7753,7.8523,7.8554,7.8669,7.8946,7.9438,7.9438,7.8907,7.9477,8.0208,8.09,8.1093,8.1093,8.1093,8.1093,8.1093,8.1093,8.1093,8.1093,8.1093,8.1093,8.1093,8.1093,8.1093,8.1093,8.1093,8.1093,8.1093,8.1093,8.1093,8.1093,8.1093,8.1093,8.1131,8.117,8.117,8.1246,8.1285,8.117,8.1131,8.1208,8.1208,8.1131,8.1246,8.1208,8.1093,8.1093,8.1093,8.1093,8.1093,8.1093,8.1323,8.1823,8.19,8.2093,8.2516,8.3555,8.4324,8.5093,8.5555,8.5901,8.6017,8.6094,8.6094,8.6094,8.6094,8.6094,8.6094,8.6094,8.6094,8.6094,8.6094,8.6094,8.1093,8.1093,8.1093,8.1093,8.1093,8.1093,8.1093,8.1093,8.1093,8.1093,8.1093,8.1093,8.1093,8.1093,8.1093,8.1093,8.1093,8.1093,8.1093,8.1093,8.1093,8.1093,8.1093,8.09,8.0592,8.0208,7.94,7.8784,7.8138,7.733,7.6984,7.6976,7.6984,7.7361,7.8061,7.8176,7.8176,7.8176,7.8176,7.8176,7.8176,7.8176,7.8592,7.9361,7.9438,7.9785,8.0323,8.0631,8.0708,8.0477,8.0592,8.0862,8.1054,8.1093,8.1093,8.1093,8.1093,8.1093,8.1093,8.1093,8.1093,8.1093,8.1093,8.1093,8.1093,8.1093,8.1093,8.1093,8.1093,8.1093,8.1093,8.1093,8.1093,8.1093,8.1093,8.1323,8.1708,8.1477,8.1285,8.1785,8.1477,8.1477,8.1747,8.1593,8.1439,8.1708,8.1516,8.1093,8.1131,8.1093,8.1093,8.1093,8.1093,8.117,8.1323,8.1362,8.1477,8.1593,8.2439,8.3593,8.4555,8.5555,8.5863,8.6094,8.6094,8.6094,8.6094,8.6094,8.6094,8.6094,8.6094,8.6094,8.6094,8.6094,8.6094,8.1093,8.1093,8.1093,8.1093,8.1093,8.1093,8.1093,8.1093,8.1093,8.1093,8.1093,8.1093,8.1093,8.1093,8.1093,8.1093,8.1093,8.1093,8.1093,8.1093,8.1093,8.1093,8.1093,8.1093,8.1093,8.0977,8.0246,7.9554,7.8977,7.8215,7.783,7.7792,7.7792,7.8253,7.8977,7.9054,7.9054,7.9054,7.9054,7.9054,7.9054,7.9054,7.9515,8.0169,8.0362,8.0631,8.1054,8.1093,8.1093,8.1093,8.1093,8.1093,8.1093,8.1093,8.1093,8.1093,8.1093,8.1093,8.1093,8.1093,8.1093,8.1093,8.1093,8.1093,8.1093,8.1093,8.1093,8.1093,8.1093,8.1093,8.1093,8.1093,8.1093,8.1093,8.1093,8.1439,8.2208,8.19,8.2054,8.2362,8.2208,8.1939,8.2708,8.2362,8.2247,8.2208,8.1939,8.1516,8.1208,8.1131,8.1093,8.1093,8.1093,8.1131,8.117,8.1208,8.1246,8.1323,8.2324,8.3285,8.4247,8.544,8.5824,8.6055,8.6094,8.6094,8.6094,8.6094,8.6094,8.6094,8.6094,8.6094,8.6094,8.6094,8.6094,8.1093,8.1093,8.1093,8.1093,8.1093,8.1093,8.1093,8.1093,8.1093,8.1093,8.1093,8.1093,8.1093,8.1093,8.1093,8.1093,8.1093,8.1093,8.1093,8.1093,8.1093,8.1093,8.1093,8.1093,8.1093,8.1016,8.0285,7.9931,7.9554,7.8938,7.8677,7.8638,7.8631,7.9131,7.9785,7.9939,7.9931,7.9931,7.9939,7.9939,7.9939,7.9939,8.0285,8.0785,8.0939,8.0977,8.1093,8.1093,8.1093,8.1093,8.1093,8.1093,8.1093,8.1093,8.1093,8.1093,8.1093,8.1093,8.1093,8.1093,8.1093,8.1093,8.1093,8.1093,8.1093,8.1093,8.1093,8.1093,8.1093,8.117,8.1285,8.1208,8.1208,8.1323,8.1362,8.1747,8.2093,8.2324,8.267,8.3524,8.2939,8.2947,8.3409,8.3601,8.337,8.317,8.2631,8.19,8.1477,8.1285,8.117,8.1093,8.1093,8.1093,8.1093,8.1093,8.1131,8.1246,8.2593,8.3632,8.4247,8.5132,8.5709,8.5978,8.594,8.5978,8.6094,8.6094,8.6094,8.6094,8.6094,8.6094,8.6094,8.6094,8.6094,8.1093,8.1093,8.1093,8.1093,8.1093,8.1093,8.1093,8.1093,8.1093,8.1093,8.1093,8.1093,8.1093,8.1093,8.1093,8.1093,8.1093,8.1093,8.1093,8.1093,8.1093,8.1093,8.1093,8.1093,8.1093,8.1016,8.0939,8.0469,7.99,7.9708,7.9515,7.9515,7.9592,7.9939,8.0631,8.0708,8.0823,8.0823,8.0785,8.0746,8.07,8.0746,8.0823,8.1093,8.1093,8.1093,8.1093,8.1093,8.1093,8.1093,8.1093,8.1093,8.1093,8.1093,8.1093,8.1093,8.1093,8.1093,8.1093,8.1093,8.1093,8.1093,8.1093,8.1093,8.1093,8.1093,8.1093,8.1093,8.1093,8.1362,8.1708,8.14,8.14,8.1785,8.2408,8.2716,8.2439,8.2362,8.3131,8.3939,8.3862,8.3632,8.4439,8.4024,8.3901,8.4016,8.3362,8.2401,8.19,8.1477,8.1285,8.117,8.1323,8.1323,8.1093,8.1131,8.1208,8.1516,8.2747,8.3601,8.4209,8.5093,8.5747,8.5863,8.5747,8.5863,8.6094,8.6094,8.6094,8.6094,8.6094,8.6094,8.6094,8.6094,8.6094,8.1093,8.1093,8.1093,8.1093,8.1093,8.1093,8.1093,8.1093,8.1093,8.1093,8.1093,8.1093,8.1093,8.1093,8.1093,8.1093,8.1093,8.1093,8.1093,8.1093,8.1093,8.1093,8.1093,8.1093,8.1093,8.1093,8.1093,8.0785,8.0516,8.04,8.04,8.04,8.04,8.0592,8.1016,8.1093,8.1054,8.1054,8.1093,8.1093,8.1093,8.1093,8.1093,8.1093,8.1093,8.1093,8.1093,8.1093,8.1093,8.1093,8.1093,8.1093,8.1093,8.1093,8.1093,8.1093,8.1093,8.1093,8.1093,8.1093,8.1093,8.1093,8.1093,8.1093,8.1093,8.1093,8.1093,8.1093,8.1131,8.1285,8.167,8.1439,8.1439,8.1708,8.2516,8.2901,8.2986,8.3247,8.3785,8.4632,8.4478,8.4709,8.4863,8.4555,8.4478,8.4585,8.3862,8.2939,8.2247,8.1862,8.1477,8.14,8.1593,8.1554,8.1208,8.117,8.1362,8.19,8.2824,8.3409,8.3832,8.4863,8.594,8.5863,8.5747,8.594,8.6094,8.6094,8.6094,8.6094,8.6094,8.6094,8.6094,8.6094,8.6094,8.1093,8.1093,8.1093,8.1093,8.1093,8.1093,8.1093,8.1093,8.1093,8.1093,8.1093,8.1093,8.1093,8.1093,8.1093,8.1093,8.1093,8.1093,8.1093,8.1093,8.1093,8.1093,8.1093,8.1093,8.1093,8.1093,8.1093,8.1016,8.1016,8.1093,8.0939,8.1054,8.1054,8.1016,8.1054,8.1093,8.1093,8.1093,8.1093,8.1093,8.1093,8.1093,8.1093,8.1093,8.1093,8.1093,8.1093,8.1093,8.1093,8.1093,8.1093,8.1093,8.1093,8.1093,8.1093,8.1093,8.1093,8.1093,8.1093,8.1093,8.1093,8.1093,8.1093,8.1093,8.1093,8.1093,8.1093,8.117,8.1246,8.1516,8.1477,8.1708,8.1747,8.1977,8.2439,8.2939,8.3563,8.4439,8.5016,8.5047,8.4893,8.4978,8.5324,8.5286,8.5209,8.497,8.4247,8.3601,8.2939,8.2285,8.19,8.1516,8.1631,8.1516,8.117,8.117,8.1362,8.1823,8.2747,8.3101,8.3409,8.417,8.5055,8.5709,8.5824,8.594,8.6055,8.6094,8.6094,8.6094,8.6094,8.6094,8.6094,8.6094,8.6094,8.1093,8.1093,8.1093,8.1093,8.1093,8.1093,8.1093,8.1093,8.1093,8.1093,8.1093,8.1093,8.1093,8.1093,8.1093,8.1093,8.1093,8.1093,8.1093,8.1093,8.1093,8.1093,8.1093,8.1093,8.1093,8.1093,8.1093,8.1093,8.1093,8.1093,8.1093,8.1093,8.1093,8.1093,8.1093,8.1093,8.1093,8.1108,8.1124,8.1147,8.1147,8.1138,8.1153,8.1153,8.1168,8.1153,8.1139,8.1116,8.1093,8.1093,8.1093,8.1093,8.1093,8.1093,8.1093,8.1093,8.1093,8.1093,8.1093,8.1093,8.1093,8.1093,8.1093,8.1093,8.1093,8.1131,8.1246,8.1362,8.1747,8.2285,8.3139,8.2901,8.3439,8.3939,8.4093,8.4093,8.4063,8.4824,8.5739,8.5701,8.5316,8.5047,8.5401,8.5632,8.544,8.5201,8.4747,8.4401,8.4093,8.3208,8.2401,8.1977,8.1554,8.1362,8.1093,8.117,8.1323,8.1554,8.2208,8.2631,8.2978,8.3401,8.4055,8.4824,8.544,8.5709,8.5863,8.5901,8.5901,8.5747,8.5901,8.6055,8.6094,8.6094,8.6094,8.1093,8.1093,8.1093,8.1093,8.1093,8.1093,8.1093,8.1093,8.1093,8.1093,8.1093,8.1093,8.1093,8.1093,8.1093,8.1093,8.1108,8.1093,8.1093,8.1093,8.1093,8.1093,8.11,8.11,8.1093,8.1093,8.1093,8.1093,8.1093,8.1093,8.1093,8.1093,8.1093,8.1093,8.1093,8.1093,8.1093,8.1116,8.1198,8.1253,8.128,8.1336,8.1387,8.1394,8.1387,8.14,8.1414,8.1308,8.1274,8.1239,8.1146,8.1108,8.11,8.1093,8.1093,8.11,8.1093,8.1093,8.1093,8.1093,8.1093,8.1093,8.1093,8.1093,8.1208,8.1439,8.1593,8.1785,8.19,8.2439,8.2785,8.337,8.3793,8.417,8.4632,8.4709,8.467,8.5478,8.5863,8.6094,8.5824,8.5593,8.5632,8.5709,8.5593,8.5363,8.5093,8.5008,8.497,8.4055,8.2978,8.2131,8.167,8.14,8.1208,8.1285,8.1323,8.1516,8.1708,8.217,8.2631,8.3054,8.3516,8.4093,8.467,8.4863,8.5132,8.5016,8.5209,8.5401,8.5363,8.544,8.5901,8.6094,8.6017,8.1093,8.1093,8.1093,8.1093,8.1093,8.1093,8.1093,8.1093,8.1093,8.1139,8.1153,8.1168,8.1212,8.1203,8.1224,8.1224,8.121,8.1231,8.1217,8.1167,8.1239,8.1217,8.1168,8.1153,8.1183,8.1167,8.1108,8.1093,8.1093,8.1093,8.1093,8.1093,8.1093,8.1093,8.1093,8.1093,8.1093,8.1138,8.1246,8.135,8.1437,8.1579,8.1698,8.1698,8.1698,8.1675,8.163,8.1519,8.1478,8.14,8.129,8.1205,8.122,8.1162,8.1131,8.1131,8.1139,8.11,8.1093,8.1093,8.1093,8.1093,8.1093,8.1093,8.117,8.1516,8.19,8.2093,8.2516,8.2639,8.2947,8.3601,8.4101,8.4362,8.4863,8.5162,8.5286,8.567,8.5978,8.6094,8.6094,8.5901,8.567,8.5093,8.4824,8.5239,8.5016,8.5324,8.5162,8.4516,8.3516,8.2362,8.1747,8.1516,8.14,8.1439,8.1439,8.1477,8.1593,8.1823,8.2285,8.2793,8.3093,8.3208,8.2978,8.3208,8.367,8.4209,8.4401,8.4516,8.4593,8.4854,8.5363,8.5662,8.5701,8.1093,8.1093,8.1093,8.1093,8.1108,8.1116,8.1108,8.1131,8.1147,8.1188,8.1382,8.1356,8.1461,8.1541,8.1584,8.16,8.1595,8.1552,8.1496,8.1387,8.1507,8.1496,8.1369,8.135,8.1382,8.1356,8.1196,8.1108,8.1131,8.1138,8.1116,8.1131,8.1146,8.1108,8.1123,8.1131,8.1093,8.1108,8.1162,8.1267,8.1455,8.164,8.1721,8.173,8.1735,8.1748,8.1761,8.1703,8.1665,8.1635,8.1484,8.1472,8.1519,8.1249,8.1246,8.126,8.121,8.1093,8.1093,8.1093,8.1093,8.1093,8.1093,8.1093,8.1439,8.1516,8.167,8.1285,8.2524,8.337,8.3717,8.4824,8.5517,8.5632,8.5632,8.5824,8.594,8.5786,8.6055,8.6094,8.6094,8.5709,8.5363,8.4632,8.4063,8.4593,8.5047,8.5354,8.5401,8.4747,8.417,8.3093,8.2554,8.2324,8.2054,8.2016,8.1747,8.167,8.1477,8.1516,8.1785,8.2093,8.2093,8.2093,8.1862,8.2054,8.2824,8.3362,8.3563,8.3678,8.3747,8.4247,8.4854,8.5085,8.5393,8.1181,8.1093,8.1093,8.1168,8.1274,8.1287,8.1343,8.1418,8.1443,8.1502,8.1547,8.1563,8.162,8.1708,8.1698,8.1694,8.1698,8.1712,8.166,8.1589,8.166,8.1655,8.1584,8.1558,8.1558,8.1569,8.1507,8.1445,8.1406,8.1317,8.128,8.1308,8.1343,8.1369,8.1269,8.128,8.1212,8.122,8.1323,8.1595,8.1871,8.1974,8.2047,8.2044,8.2041,8.1999,8.1987,8.1927,8.1859,8.1824,8.1679,8.16,8.1645,8.1564,8.1507,8.1508,8.1369,8.1224,8.1131,8.1108,8.1131,8.1093,8.117,8.1516,8.217,8.2439,8.2708,8.3285,8.3862,8.4247,8.4439,8.544,8.5863,8.6094,8.6094,8.6094,8.6094,8.6094,8.6094,8.6094,8.6055,8.5747,8.5517,8.5247,8.4939,8.5209,8.547,8.5585,8.5555,8.5132,8.4555,8.3939,8.3593,8.3439,8.3093,8.2909,8.2362,8.2054,8.1323,8.1323,8.1208,8.1323,8.1439,8.1477,8.14,8.1747,8.2247,8.2324,8.2408,8.2639,8.2862,8.3439,8.4016,8.4854,8.5162,8.135,8.1253,8.1253,8.1343,8.1484,8.149,8.158,8.1679,8.1679,8.1717,8.1779,8.1855,8.1878,8.1836,8.1894,8.1909,8.1886,8.1875,8.1804,8.1791,8.1808,8.182,8.1787,8.177,8.177,8.1766,8.167,8.165,8.1635,8.16,8.1536,8.1502,8.1568,8.1584,8.1497,8.1478,8.1406,8.135,8.1595,8.1862,8.2138,8.223,8.2282,8.2287,8.2292,8.2292,8.2284,8.2162,8.2076,8.205,8.1901,8.18,8.1886,8.1744,8.1703,8.1703,8.1579,8.1431,8.1392,8.1374,8.1285,8.117,8.1131,8.1516,8.2439,8.3101,8.3409,8.3708,8.4555,8.47,8.5047,8.5632,8.5978,8.6094,8.6094,8.6094,8.6094,8.6094,8.6094,8.6094,8.6094,8.6094,8.594,8.6017,8.5978,8.6017,8.6017,8.5893,8.5632,8.5286,8.4747,8.417,8.3939,8.367,8.317,8.2986,8.2708,8.2324,8.1554,8.117,8.1093,8.1093,8.1208,8.1131,8.1093,8.1246,8.167,8.1439,8.1285,8.1708,8.2131,8.2524,8.3131,8.4093,8.4893,8.1519,8.1655,8.1655,8.166,8.1679,8.1675,8.1689,8.1748,8.1726,8.182,8.1984,8.2148,8.2216,8.2224,8.221,8.2214,8.223,8.2237,8.2099,8.2076,8.2146,8.2086,8.2047,8.1974,8.1971,8.1955,8.1894,8.1774,8.1753,8.1881,8.1804,8.1721,8.1783,8.1721,8.1665,8.164,8.165,8.163,8.1828,8.1958,8.2131,8.2218,8.2292,8.2292,8.2292,8.2292,8.2292,8.2278,8.2232,8.2228,8.2076,8.2053,8.2076,8.1934,8.1859,8.1881,8.1787,8.1665,8.1651,8.1756,8.1747,8.1339,8.1239,8.1447,8.2139,8.2324,8.2516,8.317,8.4439,8.497,8.5247,8.5555,8.6017,8.6094,8.6094,8.6094,8.6094,8.6094,8.6094,8.6094,8.6094,8.6094,8.6094,8.6094,8.6094,8.6094,8.5863,8.5747,8.5585,8.5247,8.4747,8.4286,8.3978,8.3516,8.2747,8.2554,8.2631,8.2208,8.1477,8.1208,8.1093,8.1093,8.1093,8.1093,8.1093,8.1093,8.1093,8.1131,8.117,8.1131,8.14,8.1939,8.2708,8.3708,8.4439,8.1808,8.1873,8.1996,8.2023,8.1866,8.1905,8.1958,8.2062,8.207,8.2128,8.2171,8.228,8.2292,8.2293,8.2292,8.2292,8.2292,8.2292,8.2232,8.2228,8.2234,8.2234,8.221,8.2166,8.2169,8.216,8.2081,8.2067,8.2086,8.2146,8.2148,8.2076,8.2047,8.1971,8.1927,8.1791,8.1787,8.1901,8.1968,8.2056,8.2173,8.223,8.2292,8.2292,8.2292,8.2292,8.2292,8.2292,8.2292,8.2285,8.2222,8.2232,8.2285,8.2128,8.2084,8.2146,8.1971,8.1888,8.1855,8.198,8.1889,8.2164,8.2059,8.2087,8.2309,8.3301,8.3785,8.4362,8.4786,8.5401,8.5709,8.5901,8.6094,8.6094,8.6094,8.6094,8.6094,8.6094,8.6094,8.6094,8.6094,8.6094,8.6094,8.6094,8.6094,8.6055,8.5824,8.5593,8.544,8.5431,8.5055,8.4863,8.467,8.4132,8.3362,8.3054,8.2755,8.2016,8.1362,8.1208,8.1093,8.1093,8.1093,8.1093,8.1093,8.1093,8.1093,8.1093,8.1093,8.1093,8.1246,8.1516,8.2362,8.3285,8.3939,8.2026,8.2102,8.2248,8.2236,8.2089,8.2092,8.2171,8.2295,8.2302,8.2307,8.2307,8.2308,8.2307,8.2307,8.2308,8.2308,8.231,8.2309,8.2308,8.2308,8.2308,8.2307,8.2308,8.2307,8.2265,8.2307,8.2301,8.2293,8.2248,8.2298,8.2287,8.2284,8.2295,8.2177,8.2086,8.1971,8.1955,8.2062,8.2128,8.2148,8.2289,8.2292,8.2292,8.2292,8.2292,8.2292,8.2292,8.2292,8.2292,8.2292,8.2289,8.229,8.2292,8.2292,8.2292,8.2275,8.221,8.2092,8.2067,8.2174,8.2238,8.2532,8.2619,8.276,8.3157,8.3794,8.3779,8.4443,8.519,8.5833,8.5956,8.6094,8.6094,8.6094,8.6094,8.6094,8.6094,8.6094,8.6094,8.6094,8.6094,8.6094,8.5901,8.5824,8.5555,8.5709,8.5901,8.5632,8.5354,8.547,8.5662,8.5555,8.5555,8.4901,8.4247,8.3593,8.287,8.1785,8.1246,8.117,8.1093,8.1093,8.1093,8.1093,8.1093,8.1093,8.1093,8.1093,8.1093,8.1093,8.1208,8.1323,8.167,8.2516,8.3401,8.2093,8.2273,8.2287,8.2318,8.229,8.2307,8.2312,8.2315,8.2325,8.2289,8.2289,8.2289,8.2289,8.2289,8.2327,8.2326,8.2327,8.2289,8.2289,8.2327,8.2325,8.2289,8.2289,8.2289,8.2325,8.2289,8.2322,8.2314,8.2314,8.231,8.2305,8.2301,8.2302,8.2298,8.2289,8.2287,8.2287,8.2287,8.2284,8.2287,8.229,8.2292,8.2292,8.2292,8.2292,8.2292,8.2292,8.2292,8.2292,8.2292,8.2292,8.2292,8.2292,8.2292,8.2292,8.2289,8.2287,8.2284,8.2319,8.2701,8.2889,8.2844,8.2786,8.2582,8.2153,8.2499,8.3225,8.3908,8.4684,8.5375,8.5766,8.6126,8.612,8.6112,8.6129,8.6094,8.6094,8.6094,8.6094,8.6094,8.6094,8.6055,8.5786,8.5517,8.5085,8.5162,8.5701,8.5624,8.5124,8.5277,8.547,8.5363,8.5286,8.4593,8.3824,8.3632,8.2939,8.1823,8.117,8.1093,8.1093,8.1093,8.1093,8.1093,8.1093,8.1093,8.1093,8.1093,8.1093,8.1093,8.1093,8.1208,8.14,8.1977,8.3054,8.2235,8.2327,8.2291,8.2289,8.2322,8.2325,8.2327,8.2327,8.2291,8.2293,8.2293,8.2293,8.2293,8.2293,8.2293,8.2293,8.2293,8.2293,8.2293,8.2293,8.2293,8.2293,8.2293,8.2294,8.2293,8.2292,8.2289,8.2327,8.2327,8.2322,8.2314,8.2309,8.2307,8.2298,8.2293,8.2292,8.2292,8.2292,8.2292,8.2292,8.2292,8.2292,8.2292,8.2292,8.2292,8.2292,8.2292,8.2292,8.2292,8.2292,8.2292,8.2292,8.2292,8.2292,8.2292,8.2292,8.2292,8.2292,8.2489,8.2869,8.3262,8.3036,8.2702,8.2497,8.245,8.2616,8.2986,8.3469,8.4496,8.5204,8.562,8.613,8.6261,8.6267,8.6253,8.6112,8.6094,8.6094,8.6094,8.6094,8.6094,8.6094,8.594,8.4978,8.4439,8.4209,8.4593,8.4516,8.4093,8.4593,8.4978,8.4632,8.4362,8.3785,8.3285,8.3054,8.2593,8.1554,8.1131,8.1093,8.1093,8.1093,8.1093,8.1093,8.1093,8.1093,8.1093,8.1093,8.1093,8.1093,8.1093,8.1093,8.1246,8.2054,8.3285,8.2296,8.2297,8.2299,8.23,8.2299,8.2297,8.2297,8.2299,8.2299,8.2299,8.23,8.23,8.23,8.23,8.23,8.23,8.2299,8.23,8.23,8.23,8.23,8.23,8.23,8.2304,8.2301,8.2299,8.2297,8.2296,8.2296,8.2291,8.2289,8.2325,8.2315,8.231,8.2304,8.2298,8.2292,8.2292,8.2292,8.2292,8.2292,8.2292,8.2292,8.2292,8.2292,8.2292,8.2292,8.2292,8.2292,8.2292,8.2292,8.2292,8.2292,8.2292,8.2292,8.2292,8.2292,8.2295,8.2496,8.2649,8.2893,8.283,8.2572,8.2602,8.2659,8.254,8.3048,8.3645,8.4504,8.5243,8.5791,8.6281,8.6448,8.6462,8.6338,8.6215,8.6118,8.6118,8.6055,8.6055,8.6017,8.6055,8.5786,8.4632,8.367,8.3516,8.3409,8.3255,8.3255,8.3901,8.4209,8.3785,8.3593,8.317,8.2747,8.2439,8.19,8.1208,8.1093,8.1093,8.1093,8.1093,8.1093,8.1093,8.1093,8.1093,8.1093,8.1093,8.1093,8.1093,8.1093,8.1093,8.1131,8.1939,8.3024,8.2302,8.2302,8.2304,8.2304,8.2304,8.2303,8.2303,8.2304,8.2304,8.2304,8.2304,8.2304,8.2304,8.2304,8.2304,8.2304,8.2304,8.2304,8.2304,8.2304,8.2304,8.2304,8.2304,8.2304,8.2304,8.2304,8.2304,8.2302,8.2302,8.2299,8.2299,8.2298,8.2289,8.232,8.231,8.2301,8.2293,8.2292,8.2292,8.2292,8.2292,8.2292,8.2292,8.2292,8.2292,8.2292,8.2292,8.2292,8.2292,8.2292,8.2292,8.2292,8.2292,8.2292,8.2292,8.2292,8.2292,8.2299,8.2344,8.2456,8.2457,8.2562,8.2913,8.2835,8.2573,8.2346,8.2743,8.3481,8.4298,8.5317,8.6175,8.6433,8.6692,8.657,8.6449,8.631,8.6138,8.6104,8.6025,8.5978,8.5893,8.5747,8.5209,8.4209,8.3054,8.2939,8.2755,8.237,8.2562,8.3409,8.3478,8.267,8.2554,8.2593,8.2247,8.19,8.167,8.1131,8.1093,8.1093,8.1093,8.1093,8.1093,8.1093,8.1093,8.1093,8.1093,8.1093,8.1093,8.1093,8.1093,8.1093,8.1093,8.14,8.2255,8.2304,8.2304,8.2304,8.2304,8.2304,8.2304,8.2304,8.2304,8.2304,8.2304,8.2304,8.2304,8.2304,8.2304,8.2304,8.2304,8.2304,8.2304,8.2304,8.2304,8.2304,8.2304,8.2304,8.2304,8.2304,8.2304,8.2304,8.2304,8.2304,8.2303,8.23,8.2295,8.2292,8.2322,8.2314,8.2301,8.2296,8.2292,8.2292,8.2292,8.2292,8.2292,8.2292,8.2292,8.2292,8.2292,8.2292,8.2292,8.2292,8.2292,8.2292,8.2292,8.2292,8.2292,8.2292,8.2292,8.2293,8.2295,8.2298,8.2295,8.2295,8.2299,8.2568,8.2529,8.2324,8.231,8.2522,8.3272,8.4192,8.5205,8.603,8.642,8.6751,8.6802,8.6649,8.6487,8.6268,8.5875,8.5791,8.5567,8.5482,8.4942,8.4403,8.3439,8.2439,8.2362,8.217,8.1823,8.1785,8.2639,8.2832,8.2016,8.19,8.2054,8.1747,8.1362,8.1285,8.1131,8.1131,8.1093,8.1093,8.1093,8.1093,8.1093,8.1093,8.1093,8.1093,8.1093,8.1093,8.1093,8.1093,8.1093,8.1131,8.14,8.1747,8.2304,8.2304,8.2304,8.2304,8.2304,8.2304,8.2304,8.2304,8.2304,8.2304,8.2304,8.2304,8.2304,8.2304,8.2304,8.2304,8.2304,8.2304,8.2304,8.2304,8.2304,8.2304,8.2304,8.2304,8.2304,8.2304,8.2304,8.2304,8.2304,8.2304,8.2302,8.2301,8.2295,8.2289,8.2323,8.2317,8.2305,8.2298,8.2292,8.2292,8.2292,8.2292,8.2292,8.2292,8.2292,8.2292,8.2292,8.2292,8.2292,8.2292,8.2292,8.2292,8.2292,8.2292,8.2292,8.2292,8.2293,8.2293,8.2293,8.2293,8.2292,8.2292,8.2292,8.2331,8.2331,8.2324,8.2596,8.3098,8.4118,8.5055,8.5703,8.6346,8.6721,8.7088,8.6895,8.6666,8.618,8.5662,8.5348,8.5065,8.4612,8.4065,8.3287,8.2394,8.1977,8.2208,8.2131,8.1785,8.1554,8.1785,8.1939,8.1477,8.1516,8.1631,8.1285,8.1093,8.1093,8.1131,8.1093,8.1093,8.1093,8.1093,8.1093,8.1093,8.1093,8.1093,8.1093,8.1093,8.1093,8.1093,8.1093,8.1093,8.1131,8.1246,8.1631,8.2304,8.2304,8.2304,8.2304,8.2304,8.2304,8.2304,8.2304,8.2304,8.2304,8.2304,8.2304,8.2304,8.2304,8.2304,8.2304,8.2304,8.2304,8.2304,8.2304,8.2304,8.2304,8.2304,8.2304,8.2304,8.2304,8.2304,8.2304,8.2304,8.2304,8.2304,8.2304,8.2304,8.2222,8.2018,8.2244,8.2193,8.1945,8.2176,8.2292,8.2292,8.2292,8.2292,8.2292,8.2292,8.2292,8.2292,8.2292,8.2292,8.2292,8.2292,8.2292,8.2292,8.2292,8.2292,8.2292,8.2292,8.2292,8.2292,8.2292,8.2292,8.2292,8.2292,8.2292,8.2292,8.2292,8.2567,8.2918,8.3816,8.4401,8.5014,8.6023,8.6658,8.688,8.6824,8.6787,8.6622,8.5763,8.4759,8.4323,8.3531,8.3017,8.2648,8.1823,8.1554,8.1939,8.1939,8.1593,8.1477,8.1362,8.1285,8.1131,8.1246,8.1362,8.1246,8.1093,8.1093,8.1093,8.1093,8.1093,8.1093,8.1093,8.1093,8.1093,8.1093,8.1093,8.1093,8.1093,8.1093,8.1093,8.1093,8.1093,8.1131,8.1208,8.1362,8.2304,8.2304,8.2304,8.2304,8.2304,8.2304,8.2304,8.2304,8.2304,8.2304,8.2304,8.2304,8.2304,8.2304,8.2304,8.2304,8.2304,8.2304,8.2304,8.2304,8.2304,8.2304,8.2304,8.2304,8.2304,8.2304,8.2304,8.2304,8.2304,8.2304,8.2304,8.2265,8.2186,8.1946,8.1394,8.1697,8.1838,8.1396,8.1747,8.1981,8.202,8.2214,8.2292,8.2292,8.2292,8.2292,8.2292,8.2292,8.2292,8.2292,8.2292,8.2292,8.2292,8.2292,8.2292,8.2292,8.2292,8.2292,8.2292,8.2292,8.2292,8.2292,8.2292,8.2292,8.2292,8.2292,8.2489,8.284,8.3269,8.3816,8.448,8.5569,8.6499,8.6616,8.6652,8.6751,8.6848,8.5587,8.4254,8.3367,8.2512,8.2143,8.1862,8.1624,8.1362,8.1285,8.1323,8.1208,8.1246,8.117,8.1208,8.1093,8.1093,8.1131,8.1093,8.1093,8.1093,8.1093,8.1093,8.1093,8.1093,8.1093,8.1093,8.1093,8.1093,8.1093,8.1093,8.1093,8.1093,8.1093,8.1093,8.1093,8.1093,8.1131,8.117,8.2304,8.2304,8.2304,8.2304,8.2304,8.2304,8.2304,8.2304,8.2304,8.2304,8.2304,8.2304,8.2304,8.2304,8.2304,8.2304,8.2304,8.2304,8.2304,8.2304,8.2304,8.2304,8.2304,8.2226,8.2304,8.2304,8.2304,8.2304,8.2187,8.2265,8.2226,8.1836,8.1677,8.1322,8.0613,8.0913,8.1017,8.0499,8.1005,8.12,8.1435,8.1784,8.2214,8.2292,8.2292,8.2292,8.2292,8.2292,8.2292,8.2292,8.2292,8.2292,8.2292,8.2292,8.2292,8.2292,8.2292,8.2292,8.2292,8.2292,8.2292,8.2292,8.2292,8.2292,8.2292,8.2292,8.2292,8.2684,8.323,8.3777,8.4011,8.4868,8.5766,8.6174,8.581,8.559,8.5297,8.4467,8.3443,8.2624,8.2106,8.2034,8.1767,8.1567,8.134,8.1294,8.1227,8.11,8.1093,8.1093,8.1093,8.1093,8.1093,8.1093,8.1093,8.1093,8.1093,8.1093,8.1093,8.1093,8.1093,8.1093,8.1093,8.1093,8.1093,8.1093,8.1093,8.1093,8.1093,8.1093,8.1093,8.1093,8.1093,8.1093,8.1131,8.1914,8.1953,8.1914,8.2031,8.2109,8.1953,8.1992,8.207,8.2109,8.2109,8.2109,8.2226,8.2304,8.2304,8.2304,8.2304,8.2304,8.2304,8.2304,8.2304,8.2304,8.2109,8.1992,8.2031,8.1836,8.1719,8.1679,8.1679,8.164,8.1601,8.1289,8.0898,8.0664,8.0389,7.9796,7.971,7.9779,7.9685,7.9834,7.9871,8.0418,8.1199,8.1786,8.2098,8.2253,8.2292,8.2292,8.2292,8.2292,8.2292,8.2292,8.2292,8.2292,8.2292,8.2292,8.2292,8.2292,8.2292,8.2292,8.2292,8.2292,8.2292,8.2292,8.2292,8.2292,8.2292,8.2292,8.2567,8.3113,8.3386,8.3621,8.4089,8.4909,8.5456,8.4943,8.4549,8.404,8.3561,8.2835,8.2088,8.192,8.1906,8.1746,8.1547,8.1424,8.1356,8.1263,8.1176,8.1093,8.1093,8.1093,8.1093,8.1093,8.1093,8.1093,8.1093,8.1093,8.1093,8.1093,8.1093,8.1093,8.1093,8.1093,8.1093,8.1093,8.1093,8.1093,8.1093,8.1093,8.1093,8.1093,8.1093,8.1093,8.1093,8.1093,8.0195,8.0195,8.0195,8.0625,8.1094,8.0547,8.0586,8.1172,8.125,8.125,8.1406,8.1992,8.2304,8.2265,8.2304,8.2226,8.207,8.207,8.2226,8.2304,8.1953,8.1679,8.1445,8.1211,8.0781,8.0625,8.0508,8.0273,8.0703,8.0508,8.0195,7.9961,7.9961,7.9566,7.8936,7.8967,7.9191,7.8982,7.917,7.9405,7.9756,8.0459,8.1044,8.1474,8.1942,8.2176,8.2292,8.2292,8.2292,8.2292,8.2292,8.2292,8.2292,8.2292,8.2292,8.2292,8.2292,8.2292,8.2292,8.2292,8.2292,8.2292,8.2292,8.2292,8.2292,8.2292,8.2292,8.2292,8.2645,8.2645,8.2918,8.3347,8.405,8.4284,8.4086,8.393,8.3655,8.3304,8.2811,8.2244,8.192,8.1878,8.1826,8.163,8.1474,8.1412,8.1263,8.1191,8.1138,8.11,8.11,8.1093,8.1093,8.1093,8.1093,8.1093,8.1093,8.1093,8.1093,8.1093,8.1093,8.1093,8.1093,8.1093,8.1093,8.1093,8.1093,8.1093,8.1093,8.1093,8.1093,8.1093,8.1093,8.1093,8.1093]}]]